GFSWCAN_925_spd_000.txt.gz
Wind_Speed
38 37 35 33 31 29 26 24 22 19 18 17 15 14 18 28 27 12 6 6 4 3 1 2 3 6 4 3 5 5 4 3 3 4 3 4 3 5 2 4 6 7 6 4 3 2 8 6 3 7 6 2 6 8
37 36 34 32 29 27 24 22 20 18 16 16 16 12 13 23 25 15 5 8 8 5 3 6 9 5 2 7 6 1 4 4 5 4 1 3 2 2 2 3 2 2 6 4 8 6 5 6 5 4 2 3 5 7
38 36 33 30 28 26 23 21 19 18 15 16 15 13 14 19 21 21 13 11 6 4 4 5 3 7 9 5 6 5 2 5 3 2 4 3 3 4 4 5 1 4 4 2 2 4 7 8 6 6 6 7 4 6
37 34 32 30 27 25 22 20 19 18 15 16 15 15 16 17 16 16 10 6 8 4 4 3 5 5 11 2 3 4 14 8 7 3 3 3 3 4 3 3 3 4 5 4 5 8 6 8 7 9 6 5 5 4
35 32 30 27 25 23 21 19 18 17 17 16 16 17 20 23 22 24 24 17 9 6 4 2 1 9 15 8 15 18 20 6 3 3 3 3 3 4 1 2 3 5 7 4 6 9 5 7 5 1 6 8 7 7
32 30 28 25 23 21 18 17 16 16 17 15 14 14 13 11 8 5 4 12 14 6 4 2 3 5 13 15 19 11 7 4 3 4 3 2 1 3 4 4 8 4 5 6 6 2 6 6 5 3 5 5 6 6
28 26 24 22 21 19 17 16 15 16 17 16 14 13 11 8 8 9 5 3 8 6 3 3 3 5 6 5 5 4 6 3 3 2 1 3 1 3 3 4 10 7 8 7 5 3 5 4 5 2 3 9 16 18
23 22 21 20 20 17 15 15 15 16 18 19 21 21 20 18 15 11 16 10 8 12 4 3 2 3 7 2 2 3 2 2 4 2 1 2 2 2 3 8 6 6 6 6 5 7 2 2 6 7 13 17 14 11
21 18 17 17 17 14 14 14 14 16 16 16 16 14 7 8 5 3 7 11 15 8 4 2 4 3 3 2 1 3 2 2 1 2 1 3 1 4 2 6 7 5 5 7 5 5 7 9 10 10 13 12 16 11
21 19 17 16 17 16 14 13 13 14 14 11 5 6 3 4 4 4 4 4 5 4 4 2 1 2 2 1 2 2 2 1 1 3 2 2 2 2 6 6 6 7 6 3 3 5 7 10 11 13 13 12 10 8
26 23 20 17 16 15 15 14 14 12 7 4 4 2 2 5 3 4 3 4 3 3 2 1 1 2 2 2 2 1 2 0 2 3 3 1 1 4 7 7 7 9 14 14 15 15 14 12 11 11 7 7 7 6
26 25 25 21 17 15 13 12 10 4 6 7 12 7 3 5 3 6 2 1 2 2 2 1 1 1 0 2 3 1 2 1 4 0 1 1 2 2 3 5 7 11 15 15 21 16 16 14 11 7 4 3 4 5
28 26 24 22 20 17 13 9 14 20 11 6 5 4 3 3 4 3 4 1 1 2 2 2 1 0 2 3 3 2 3 3 1 1 1 2 4 2 4 5 8 13 16 13 9 10 10 6 5 5 3 4 6 8
24 25 25 23 18 14 11 10 9 6 6 4 3 4 2 2 2 2 1 2 0 0 1 1 2 2 1 2 1 2 1 1 2 1 2 2 0 5 4 4 6 4 5 6 7 6 5 4 3 3 4 5 7 9
22 23 24 24 17 11 9 9 8 7 6 3 3 3 2 1 2 1 0 2 0 1 1 2 2 2 2 2 2 2 2 1 1 2 1 1 3 4 5 3 4 5 4 5 3 1 1 2 5 7 6 7 7 8
9 11 28 23 16 10 7 7 8 5 5 3 4 3 1 2 1 1 1 1 1 1 1 2 2 2 2 1 2 2 3 2 1 1 1 1 4 4 5 6 2 1 1 2 2 3 3 3 5 7 9 9 9 9
17 14 21 19 12 11 6 5 5 5 4 3 2 2 2 2 2 1 0 1 1 1 2 2 3 3 2 2 1 1 3 3 2 2 2 3 3 4 5 5 4 2 2 2 3 1 4 6 8 12 14 16 16 17
13 18 17 18 10 6 6 8 4 4 5 2 2 2 2 2 2 1 1 2 2 1 2 2 3 2 4 5 2 2 3 1 1 0 1 2 0 3 4 4 3 3 3 6 9 10 12 13 15 14 17 19 19 20
16 18 16 18 12 5 4 6 5 3 2 1 1 2 2 1 1 1 1 3 0 2 3 2 3 2 3 3 3 4 2 2 2 2 1 5 4 6 6 6 6 8 11 11 13 14 14 12 12 13 14 15 15 17
13 17 17 15 10 5 4 3 4 4 2 0 2 2 1 1 2 2 2 2 2 1 2 1 3 3 3 2 2 3 3 4 3 2 2 4 9 13 14 14 13 11 11 10 9 13 12 12 15 17 20 20 19 19
14 20 15 12 7 12 3 3 3 2 1 2 0 1 1 1 2 2 2 2 2 1 1 1 1 2 3 5 8 8 8 3 2 2 2 3 9 15 15 16 14 14 12 12 12 13 15 14 16 22 24 24 21 19
10 13 7 10 9 6 4 10 1 2 2 1 1 1 0 1 1 1 1 1 1 1 1 1 1 1 3 4 9 12 12 15 14 14 16 11 4 6 11 12 12 12 12 13 12 14 16 16 20 22 24 25 23 23
7 7 5 6 5 5 2 8 3 3 1 1 1 1 1 1 1 2 1 1 1 2 2 3 7 13 14 15 18 19 17 16 15 14 14 13 13 12 13 15 16 15 10 11 12 14 18 20 22 23 24 26 27 27
7 5 4 3 4 1 2 3 2 2 2 1 1 2 1 1 2 1 2 1 1 2 1 7 10 6 10 12 10 12 12 12 14 16 13 10 11 12 12 11 12 13 13 12 14 16 19 22 22 23 25 27 26 23
5 3 3 3 1 4 3 2 1 1 2 2 1 3 2 1 1 1 1 2 2 2 3 7 10 9 5 5 9 11 12 10 10 11 13 11 12 10 9 9 8 9 17 19 20 19 21 23 23 22 23 24 24 22
5 2 2 1 1 1 2 0 3 2 1 2 4 1 2 2 2 2 1 3 2 4 4 5 6 6 7 10 7 6 7 7 8 11 8 10 13 13 10 8 10 11 17 16 16 17 19 22 22 22 23 20 20 21
2 2 1 1 1 0 2 2 2 2 3 3 1 0 1 2 1 2 1 7 3 8 11 11 12 13 11 10 10 10 8 7 6 12 13 10 11 13 14 12 12 15 16 15 14 14 18 20 20 20 19 17 15 17
3 1 1 3 2 3 2 1 1 1 2 2 1 2 1 2 1 2 3 6 10 13 16 17 17 18 19 17 13 11 12 13 13 10 7 5 3 6 14 14 15 14 13 13 14 15 15 14 15 16 15 15 16 15
1 1 1 2 2 2 1 1 1 1 2 0 1 2 2 2 4 5 7 5 7 11 15 16 15 14 14 13 12 12 10 4 2 4 2 3 6 5 14 17 17 16 15 17 15 14 12 10 12 12 13 12 11 10
2 1 2 1 1 1 0 2 1 2 3 3 3 3 2 3 8 6 5 6 10 13 11 9 7 4 7 5 7 7 7 7 8 6 2 3 6 12 16 18 20 19 18 17 17 17 12 10 12 13 13 12 11 11
1 1 1 0 1 0 2 3 2 1 3 3 4 3 2 2 4 12 12 11 9 8 8 9 8 7 5 6 5 2 1 4 8 9 9 9 10 13 16 17 18 18 17 16 17 15 13 12 13 13 12 11 11 11
2 2 1 2 3 3 5 3 2 2 3 2 2 3 3 3 2 3 3 3 4 8 7 6 4 2 2 4 4 4 5 8 9 10 11 10 11 14 15 16 17 17 16 16 15 13 12 11 12 11 10 10 10 11
3 3 3 2 3 4 3 3 4 3 3 2 2 1 1 3 3 1 4 6 6 6 5 5 3 2 2 4 6 6 8 10 10 10 11 11 13 15 15 16 16 16 15 14 14 13 11 10 10 10 10 10 11 11

GFSWCAN_925_spd_003.txt.gz
Wind_Speed
40 40 37 36 33 32 29 27 26 24 21 19 20 26 34 42 43 15 8 10 3 3 1 1 5 6 3 2 5 5 4 2 3 3 3 3 3 4 2 3 5 5 5 3 3 1 6 5 2 5 4 2 2 6
40 36 34 34 32 30 28 26 25 23 21 17 17 24 32 41 41 17 6 8 9 5 3 5 10 6 2 7 6 0 3 4 4 4 1 3 2 1 2 3 1 3 4 3 7 4 4 5 4 2 2 3 3 3
36 33 31 30 29 28 26 26 24 21 19 16 16 23 31 38 35 16 12 18 8 3 3 3 4 7 8 4 7 5 1 4 3 2 4 2 3 3 4 5 1 3 3 3 1 2 7 10 9 8 7 10 6 7
33 31 30 29 27 25 24 23 22 20 18 17 19 26 31 32 29 22 11 14 5 4 4 3 5 4 10 2 3 3 13 9 7 2 3 3 3 4 3 2 3 3 6 4 4 8 5 7 8 10 8 6 8 6
31 31 30 28 25 24 24 22 21 20 18 22 23 26 28 25 28 19 11 4 5 4 4 2 1 9 13 10 19 21 19 7 3 2 2 2 3 4 1 1 3 6 6 4 5 8 4 6 4 3 4 6 6 6
30 29 27 25 24 23 24 23 21 20 19 20 26 31 31 30 29 21 2 7 7 6 5 3 3 5 12 17 21 12 7 4 2 3 2 1 1 3 4 3 7 4 5 5 5 1 4 5 7 5 6 6 2 3
27 26 24 22 22 22 21 20 21 20 18 17 15 15 13 12 12 7 4 1 5 7 3 3 3 3 6 5 4 4 6 2 2 2 2 2 1 2 3 3 4 7 7 5 4 2 5 1 4 7 4 9 17 21
24 22 21 21 21 20 20 20 20 24 27 27 25 25 25 22 17 12 18 13 10 12 4 4 1 3 7 3 2 3 2 2 4 2 2 2 2 1 3 3 10 10 12 4 9 4 3 6 8 9 12 16 16 15
19 19 18 19 20 18 18 15 16 17 17 15 15 13 6 10 5 2 7 14 18 9 4 2 5 4 3 2 1 2 2 3 1 1 1 3 1 3 3 9 9 10 6 9 7 10 11 11 12 11 13 14 15 10
17 15 14 17 17 14 14 13 12 12 9 7 2 6 3 4 4 4 4 4 6 4 4 3 1 2 1 0 2 2 2 2 2 1 2 2 2 4 5 5 5 8 9 4 1 5 9 10 12 13 13 11 10 6
22 19 16 15 15 14 10 10 8 6 5 6 4 2 2 5 3 4 3 4 2 4 3 1 1 3 2 2 2 1 2 1 2 2 3 2 2 2 3 7 7 9 13 14 15 15 14 12 10 10 6 6 4 5
28 24 19 16 13 12 9 7 5 6 7 7 13 8 4 5 4 6 2 2 3 2 1 2 0 2 1 1 3 0 3 1 3 2 1 2 2 2 2 5 6 8 11 12 15 14 14 14 12 10 8 7 5 5
25 24 23 21 16 11 10 11 16 18 9 6 5 4 3 3 6 4 5 2 2 0 1 1 2 1 1 2 3 2 3 2 1 2 1 2 5 5 6 5 5 5 7 9 8 7 6 4 3 3 3 3 5 6
27 23 21 20 17 15 13 10 8 6 6 4 4 5 3 2 2 1 2 2 1 1 1 2 2 2 0 3 1 2 1 1 3 3 3 4 2 5 5 3 4 2 2 5 6 5 5 6 7 8 8 9 10 10
23 27 22 21 15 12 11 11 11 10 7 4 4 3 3 2 3 2 1 2 1 1 1 2 2 2 2 3 1 2 2 1 1 2 1 4 6 3 3 3 3 3 1 2 3 3 4 6 8 10 12 11 11 12
9 13 28 17 13 10 8 9 11 6 5 3 5 3 1 2 2 2 2 2 1 1 1 2 2 2 2 2 2 2 4 3 2 1 3 5 5 4 4 3 4 2 4 3 1 4 6 7 8 7 9 15 16 14
20 14 23 17 10 12 8 6 7 5 4 4 3 2 2 3 3 2 2 2 3 2 1 1 2 1 1 2 1 1 2 3 3 3 3 5 5 3 6 4 2 1 4 7 8 9 8 9 11 17 16 18 20 18
15 20 20 15 6 8 6 9 4 4 5 3 3 2 2 2 2 2 2 3 2 1 1 1 3 2 3 4 2 2 2 2 2 2 2 2 2 5 4 7 9 11 14 15 15 14 15 15 14 13 14 17 16 17
19 20 18 15 10 6 4 6 5 4 3 1 1 2 2 2 1 1 1 4 3 2 3 2 3 1 2 2 2 2 3 2 3 2 2 8 9 11 12 14 16 15 15 15 14 14 13 13 12 13 14 15 16 17
16 18 17 19 8 5 4 3 4 4 2 1 1 2 2 2 2 2 3 3 2 1 3 2 1 1 1 1 1 1 2 3 3 3 4 6 12 15 15 14 13 13 13 12 13 13 11 9 11 12 14 14 15 17
15 20 17 11 8 12 4 3 4 2 2 2 2 2 2 2 2 3 2 3 2 2 1 1 1 1 3 4 4 6 6 4 2 2 3 5 10 13 13 13 12 13 12 10 9 10 11 10 12 14 17 19 20 18
11 13 8 12 8 5 4 9 2 2 2 0 2 1 2 1 1 1 2 1 1 1 1 1 0 1 2 4 9 11 11 13 15 18 18 12 6 8 11 11 10 10 10 9 8 9 10 12 16 17 18 20 20 20
8 7 6 10 6 6 2 6 4 4 3 3 3 3 2 0 1 2 1 0 1 2 1 3 7 12 13 12 15 18 17 16 13 15 15 15 14 13 11 11 10 8 7 9 10 10 11 16 16 18 18 19 18 19
8 6 4 3 4 2 2 4 3 2 2 2 2 3 2 1 3 2 1 1 2 4 3 6 10 6 10 10 9 13 12 13 13 16 12 11 11 10 8 7 8 11 11 9 10 12 14 17 18 18 18 17 17 15
6 6 4 4 3 5 3 3 2 1 1 1 1 3 1 1 1 1 1 2 3 4 4 8 10 10 5 4 8 9 11 8 11 14 12 11 11 8 7 8 7 8 14 13 14 16 17 18 18 17 17 16 15 16
6 4 3 2 2 2 1 1 2 1 1 2 3 2 1 2 2 2 2 3 3 4 6 5 5 5 6 9 6 6 6 8 10 12 9 10 11 10 6 6 7 6 14 13 14 15 16 17 17 17 18 17 17 19
4 3 2 1 1 1 2 1 1 1 1 2 1 1 2 1 1 1 1 6 3 6 10 12 11 11 8 7 8 9 9 7 8 13 12 9 10 12 13 10 8 11 14 13 13 14 16 17 16 16 17 17 15 14
2 2 1 3 1 1 1 1 1 0 1 1 1 1 2 1 1 2 3 5 7 11 15 17 16 15 14 13 13 14 15 14 12 9 7 5 4 5 12 11 11 12 12 12 13 13 14 14 14 14 15 15 14 12
2 2 3 2 2 2 1 1 1 1 2 1 3 1 2 2 2 4 5 4 5 9 12 13 13 13 14 14 14 12 6 2 3 4 3 2 5 3 12 14 15 16 16 15 13 13 12 10 11 11 11 11 10 9
2 1 2 1 1 1 0 1 1 2 3 3 3 3 2 3 7 5 3 5 8 10 9 7 4 3 5 5 6 7 7 7 9 7 2 2 6 11 13 15 17 17 17 16 16 16 11 9 9 10 10 9 10 10
0 1 1 1 1 0 2 5 3 2 3 2 4 3 2 2 4 11 11 9 7 6 6 7 7 6 5 5 5 3 2 5 8 8 8 9 9 10 13 14 16 17 16 15 15 14 13 11 10 10 10 10 10 10
4 2 2 1 3 3 5 3 2 2 2 2 2 2 2 2 2 4 6 4 5 7 6 5 4 3 4 5 5 5 5 7 9 9 9 10 11 12 14 15 15 16 15 14 13 12 11 10 9 9 9 9 10 10
2 1 1 2 3 3 3 2 4 3 4 2 2 1 1 2 2 0 4 6 7 7 6 6 4 3 3 5 7 6 7 9 11 12 11 11 12 15 15 13 15 16 14 13 11 11 10 9 9 9 9 9 9 10

GFSWCAN_925_spd_006.txt.gz
Wind_Speed
26 23 23 35 35 32 25 26 33 32 31 33 36 38 39 45 55 14 6 9 3 3 5 5 5 6 5 6 6 8 6 2 2 2 2 3 2 4 3 2 4 4 5 3 2 3 4 5 5 3 3 2 4 4
27 28 30 28 26 24 26 26 26 27 30 33 35 36 39 45 55 18 5 8 12 5 4 3 4 1 2 6 6 12 1 5 5 3 1 3 2 1 1 2 3 3 3 1 6 1 3 8 6 3 3 7 8 8
42 34 29 29 31 31 31 29 27 26 27 29 33 36 42 48 51 26 9 15 9 4 3 4 3 4 3 2 3 5 2 4 4 3 4 2 3 4 4 4 3 4 4 3 2 3 9 9 10 11 11 11 11 11
33 33 32 30 29 28 28 25 22 22 24 28 32 37 40 45 48 30 7 11 11 4 4 3 4 3 9 2 2 1 11 9 7 2 3 3 3 3 2 0 2 1 7 4 5 11 8 8 8 7 7 8 9 9
32 30 28 28 27 26 25 23 19 17 22 27 32 36 39 43 42 25 11 8 7 0 4 3 2 8 11 6 12 12 17 9 3 3 2 2 3 4 2 0 3 6 5 4 5 8 5 8 5 6 9 10 10 10
31 29 29 28 27 24 22 22 24 23 21 25 32 36 40 42 34 15 4 1 9 8 3 3 2 4 10 13 12 12 7 5 3 3 2 3 2 2 4 4 2 1 5 6 5 7 9 10 8 10 8 10 9 8
29 29 29 28 26 25 23 23 25 25 27 28 31 35 38 39 22 6 4 5 9 10 3 4 3 2 4 4 4 4 6 3 2 3 2 3 3 3 3 4 4 7 9 8 7 7 4 10 5 9 11 14 18 19
27 27 27 26 26 26 28 31 36 37 36 31 27 25 26 28 16 7 11 7 9 4 3 4 2 2 6 2 2 3 2 2 5 3 2 3 3 1 3 4 8 9 10 4 11 9 6 8 11 10 12 14 15 14
24 24 26 25 24 23 23 23 22 23 23 22 19 19 15 8 4 3 1 6 11 4 3 2 5 4 2 2 2 2 2 3 1 2 2 3 2 4 2 5 7 9 7 7 6 9 11 13 11 11 12 13 12 9
22 21 21 22 20 22 19 16 15 14 13 13 10 7 3 2 2 3 4 3 6 5 5 3 1 3 1 1 2 2 2 2 2 2 3 2 2 3 2 2 4 6 9 4 2 7 9 12 12 11 10 9 8 6
21 18 17 19 20 19 13 11 10 8 7 5 3 3 1 5 3 4 3 4 3 3 3 2 2 4 2 2 3 2 2 1 3 3 3 3 2 3 4 5 5 7 10 11 13 12 13 12 10 9 7 8 5 1
23 21 19 16 15 15 11 7 5 5 6 7 11 8 5 5 3 6 3 1 3 2 1 1 2 3 2 2 3 1 3 1 3 3 2 3 4 6 5 5 6 8 11 12 14 13 12 10 8 6 5 5 5 5
24 22 21 19 16 13 13 15 17 14 8 5 4 4 3 4 6 3 4 2 2 1 1 1 2 2 2 2 3 2 3 2 3 2 2 3 8 6 6 5 6 8 9 11 10 9 8 8 8 8 7 7 8 7
23 21 21 20 18 17 14 10 7 7 7 5 5 5 4 3 4 3 2 2 1 1 2 2 2 1 1 2 1 2 2 1 4 4 3 4 6 7 5 5 6 7 6 5 7 7 7 8 9 10 10 9 11 11
25 21 21 21 16 14 13 13 13 11 8 4 4 4 4 2 3 2 1 1 2 1 0 2 3 1 2 3 2 3 3 3 2 1 2 5 7 9 8 4 2 4 3 3 4 5 6 7 10 11 13 13 13 14
13 18 20 14 13 11 14 16 21 8 5 4 5 3 1 2 2 2 3 2 2 1 0 2 2 2 2 2 3 2 2 2 2 2 4 7 8 7 4 4 4 2 3 2 5 6 9 11 10 8 10 13 12 11
20 12 16 9 11 13 7 7 6 5 4 3 3 2 2 4 3 2 2 2 4 1 2 0 1 3 2 2 2 1 2 2 3 5 4 6 6 3 2 2 4 6 9 10 11 12 11 9 9 10 11 14 13 12
14 19 15 6 5 8 7 9 4 4 6 4 3 3 2 3 2 2 2 3 2 2 1 2 2 1 1 2 2 2 2 3 4 4 4 4 5 6 9 12 13 13 14 13 12 11 10 8 8 9 10 13 12 12
19 17 15 11 8 6 4 6 5 4 4 1 1 2 2 2 3 1 1 4 3 2 3 1 2 2 2 2 1 3 3 3 4 4 6 10 10 12 14 15 14 14 13 11 9 8 8 9 9 9 10 11 12 13
13 17 16 18 7 5 5 4 4 4 3 2 2 3 2 2 2 2 3 4 3 1 3 3 3 3 3 3 3 1 5 6 8 7 6 6 10 12 11 10 11 11 10 9 10 8 7 6 8 9 10 10 12 14
14 18 18 9 7 12 4 3 4 3 2 2 1 1 2 1 2 3 3 4 3 3 2 3 2 2 3 5 4 2 5 6 4 4 5 6 9 11 11 10 10 9 9 8 7 8 8 8 8 9 10 11 11 12
11 12 8 11 7 5 5 9 3 2 2 2 2 2 2 1 2 2 3 1 2 3 3 2 2 1 3 5 7 8 7 12 16 18 18 14 8 9 9 8 8 9 9 8 7 6 6 7 8 9 9 11 11 11
8 8 7 11 5 6 3 5 4 4 2 2 1 1 2 2 2 3 1 2 3 7 5 4 7 10 11 10 11 14 11 9 14 15 15 14 13 12 11 11 9 8 6 6 6 5 6 8 8 9 9 10 11 11
9 6 5 5 5 3 2 4 3 2 2 3 3 2 2 3 3 1 2 3 5 10 7 5 5 5 9 11 10 12 11 11 14 15 12 11 11 10 9 8 8 7 6 5 5 6 7 8 10 9 10 10 10 11
5 7 4 5 4 4 4 3 3 2 3 3 3 2 2 3 2 3 2 3 5 6 6 8 8 8 5 5 8 11 13 7 9 12 12 10 9 8 7 6 5 6 7 7 7 8 8 9 9 10 10 10 11 12
6 7 4 3 3 3 2 2 2 3 2 2 1 1 1 1 2 2 2 4 4 5 7 6 4 5 6 9 6 6 7 7 8 12 9 8 8 6 5 4 4 4 8 7 8 10 11 11 11 11 11 11 11 12
4 4 3 2 2 2 2 2 1 1 0 0 1 0 0 1 2 2 2 6 4 6 8 9 9 9 8 8 8 8 8 9 9 10 9 8 8 9 8 6 5 6 8 8 8 9 10 11 12 11 12 12 11 11
3 2 3 3 2 1 1 1 1 2 2 2 1 1 1 2 2 2 3 4 5 6 9 11 11 10 10 9 8 8 9 10 9 7 6 6 5 6 7 6 7 9 9 9 9 8 10 11 11 11 12 12 11 9
2 2 1 2 1 2 2 2 2 2 3 2 2 1 2 3 3 3 4 4 3 3 5 7 8 8 9 10 10 8 6 5 3 3 3 2 3 3 7 7 8 8 9 10 9 9 10 9 9 9 9 9 8 8
2 2 1 1 1 1 2 2 2 2 3 3 3 3 3 3 6 6 4 5 5 6 5 5 3 3 4 3 4 5 7 7 8 6 4 4 5 7 7 8 9 10 10 10 10 11 9 7 7 6 7 7 7 7
2 2 1 1 1 2 2 5 3 3 3 2 4 3 3 3 4 8 9 7 5 4 4 5 6 6 5 6 5 4 3 5 8 6 5 6 7 7 8 10 10 11 10 10 10 9 9 8 7 7 7 7 7 7
4 3 3 2 0 2 4 3 2 1 1 2 2 2 3 2 2 3 7 6 5 6 6 5 4 4 4 5 5 4 3 5 7 9 9 8 8 8 10 10 11 11 12 11 9 8 8 7 7 7 7 7 8 8
0 0 1 3 2 2 3 3 3 2 3 2 3 2 2 3 3 3 4 8 7 5 5 5 4 2 3 5 8 6 7 9 10 12 12 11 10 13 14 10 9 11 13 11 8 8 8 7 7 7 7 7 7 8

GFSWCAN_925_spd_009.txt.gz
Wind_Speed
27 26 26 26 27 28 29 28 29 34 37 43 44 44 44 49 52 45 7 4 8 6 6 6 9 11 14 11 7 9 7 2 3 3 3 3 1 4 2 1 5 6 6 3 2 2 5 6 5 1 4 5 6 7
23 24 25 26 23 23 27 31 31 36 35 41 40 41 46 46 49 42 6 4 5 2 5 2 6 5 3 13 9 12 6 10 7 4 2 2 2 2 0 3 2 3 3 1 5 1 5 6 4 3 4 7 9 9
17 19 24 24 27 27 32 33 35 37 35 37 39 42 43 45 48 43 7 8 9 3 4 4 5 3 2 2 3 5 3 5 5 3 4 2 3 4 4 4 3 4 2 3 1 3 5 5 7 6 6 6 8 10
22 22 27 29 28 24 27 30 33 33 35 37 38 39 40 43 47 33 8 4 8 5 3 3 3 2 4 2 6 3 7 6 9 5 3 3 3 4 3 1 2 2 7 5 6 10 7 5 4 3 7 8 9 9
25 24 25 24 23 25 25 26 28 30 32 34 36 38 39 43 47 15 5 5 7 2 4 5 7 4 3 5 8 7 13 9 5 3 2 2 3 4 2 0 3 5 3 3 3 6 5 7 9 9 8 8 9 8
30 29 27 27 26 23 20 20 25 28 31 34 35 36 39 41 52 13 4 3 7 8 3 5 3 4 8 11 12 10 5 4 2 4 3 3 2 3 4 4 5 5 5 6 4 10 8 7 10 8 9 9 11 11
34 31 27 24 22 21 19 16 20 26 28 32 35 37 39 41 38 3 1 6 13 9 2 5 4 3 4 6 2 4 4 4 1 3 2 3 3 3 3 4 8 4 5 5 7 7 4 10 7 9 10 14 18 19
36 36 37 38 38 33 24 29 28 29 33 35 36 36 40 36 17 4 11 10 13 2 2 4 3 4 3 2 3 4 2 2 5 3 2 3 3 1 3 7 4 6 4 7 6 8 9 9 10 10 14 15 13 12
34 33 32 32 33 33 33 35 39 41 40 39 41 41 29 6 3 3 9 13 8 3 3 2 6 4 3 3 2 2 1 2 1 2 2 4 3 4 4 3 4 5 4 2 6 8 9 10 11 11 12 12 12 10
30 27 29 30 30 26 24 26 27 32 38 37 29 6 4 3 14 14 4 2 5 4 2 3 2 4 2 2 2 2 2 3 3 2 4 2 3 4 4 4 5 7 8 5 7 7 8 11 10 11 11 9 8 6
24 28 25 29 29 26 21 17 17 19 22 6 3 3 3 7 7 3 1 2 2 3 4 3 2 5 2 3 3 2 3 1 4 3 4 4 3 5 6 7 5 6 9 11 12 13 15 13 10 9 7 11 11 9
22 21 21 24 26 26 23 16 12 17 8 10 18 10 4 2 2 4 2 2 2 2 2 2 3 3 2 0 3 2 3 2 4 4 3 3 4 9 7 7 8 10 14 15 16 14 13 12 11 10 8 6 6 5
23 23 21 21 19 17 21 23 21 15 8 5 5 5 3 4 5 3 3 2 2 1 1 1 3 2 3 3 3 2 3 2 4 2 3 2 9 8 8 8 9 11 14 14 13 12 12 12 12 10 8 8 8 8
22 21 22 23 20 16 12 13 16 15 14 5 5 6 4 3 4 2 3 3 2 1 1 4 3 2 1 3 1 3 1 1 3 3 3 5 7 7 8 9 10 11 7 10 11 11 11 11 12 13 12 11 10 10
19 21 21 23 19 18 15 12 12 15 8 5 4 4 4 2 2 1 1 1 3 1 1 3 3 2 2 3 2 4 2 3 3 0 2 5 9 9 10 9 9 9 4 7 10 10 10 10 11 11 10 9 9 9
9 14 21 15 14 16 17 16 16 8 5 3 5 3 1 2 3 3 3 3 4 2 2 3 2 2 3 2 3 2 2 2 3 2 4 7 8 6 8 8 8 8 8 9 10 11 10 10 9 8 8 10 10 10
17 9 11 11 15 12 8 9 7 5 4 3 3 2 2 4 4 2 2 2 4 2 2 2 2 4 1 1 2 2 2 2 3 4 5 6 7 7 8 8 8 9 11 11 11 10 9 8 7 7 7 9 7 7
11 13 10 5 6 9 7 9 4 4 6 4 3 3 3 3 2 3 3 4 2 2 1 2 2 1 2 2 2 2 3 3 5 5 5 5 6 7 7 10 12 13 12 11 10 9 7 5 4 6 6 9 8 9
15 18 10 11 8 6 4 6 5 4 5 2 2 2 2 2 4 4 2 4 3 2 2 1 2 2 3 4 2 2 4 3 3 5 6 9 10 12 13 14 13 13 11 9 7 6 7 7 6 6 7 9 9 10
15 14 18 14 9 5 5 4 5 4 3 3 3 3 3 3 3 3 4 5 4 2 4 4 4 3 4 5 6 3 2 4 6 7 6 6 10 12 11 10 11 12 11 10 9 5 4 4 6 7 8 8 10 11
13 16 16 10 8 12 5 3 4 3 3 3 1 1 3 2 3 4 4 5 4 4 3 3 4 3 6 9 11 10 12 8 0 5 7 7 9 11 12 11 9 9 8 7 5 6 7 6 7 8 8 9 9 10
9 12 6 10 6 5 5 10 3 2 3 3 3 3 3 2 3 4 4 5 4 4 4 4 6 5 6 9 11 13 10 10 13 16 17 15 7 9 9 9 10 10 9 8 7 6 6 7 7 8 9 10 10 10
8 8 7 11 5 5 3 5 4 5 3 2 1 2 2 2 3 3 2 3 3 6 7 7 8 10 10 11 13 16 15 13 13 14 13 14 14 13 12 12 10 8 7 7 6 6 5 6 7 8 9 10 11 11
10 6 5 5 6 4 2 4 2 2 2 2 2 2 2 2 3 2 3 3 4 9 7 7 4 4 8 11 10 13 12 12 14 13 9 10 12 12 10 9 9 9 7 5 5 5 6 7 8 9 10 11 11 12
5 7 4 6 4 3 3 3 3 3 3 2 1 3 2 2 1 2 2 2 5 6 6 9 9 8 5 5 9 12 14 10 10 11 11 10 10 9 7 7 7 7 7 5 6 7 7 8 9 10 11 11 12 12
7 8 5 4 3 3 3 2 3 4 2 2 3 2 1 1 1 3 2 3 4 5 7 8 5 4 6 10 7 9 10 8 8 11 10 9 8 6 4 3 2 3 7 7 8 9 10 10 10 11 12 12 11 13
5 6 4 3 2 2 3 2 2 2 2 3 2 1 1 1 3 3 3 6 4 7 8 9 10 10 8 9 9 9 9 11 10 9 7 7 8 8 7 5 5 5 7 7 8 9 10 11 12 12 13 13 12 12
4 5 4 3 3 2 2 2 1 2 2 2 2 1 2 4 3 3 4 5 5 6 8 10 11 10 10 9 8 7 8 6 6 6 5 5 5 5 6 6 6 9 8 8 9 8 9 11 12 13 13 13 13 11
4 3 2 3 2 3 3 3 2 2 3 3 4 2 3 3 4 4 5 5 3 3 5 6 8 7 8 9 8 8 7 7 5 3 4 3 4 4 8 8 8 9 10 10 10 10 11 11 12 12 11 11 11 11
4 4 2 2 1 2 2 4 3 3 5 3 3 3 3 4 7 7 7 7 7 7 7 6 6 6 6 5 5 6 7 8 9 7 5 5 8 9 9 9 10 10 10 11 11 12 10 11 10 9 9 10 10 10
3 3 1 2 2 2 3 4 1 3 2 3 5 4 4 4 5 10 10 9 7 6 5 7 8 8 7 7 7 6 4 6 8 7 6 6 8 9 9 10 11 11 10 11 12 12 12 12 11 10 10 10 10 10
3 4 4 3 2 2 3 3 2 1 2 2 2 2 3 3 3 4 9 9 7 8 8 7 6 6 5 5 6 5 4 6 7 8 8 9 9 9 10 11 11 11 11 12 12 11 11 11 11 11 11 10 10 10
1 2 2 2 2 2 3 4 1 1 2 2 3 3 4 4 4 3 4 9 8 6 6 6 5 4 4 5 6 6 7 7 9 11 12 12 11 10 11 10 10 11 13 13 12 12 11 11 11 10 10 9 9 10

GFSWCAN_925_spd_012.txt.gz
Wind_Speed
35 34 33 31 30 29 28 27 27 29 34 39 39 43 35 46 36 39 32 30 9 4 10 11 12 14 8 9 6 10 6 3 2 2 3 2 2 3 2 5 6 5 5 3 1 2 6 5 4 2 4 3 7 6
30 29 29 29 28 27 27 27 29 34 33 35 35 38 37 42 34 36 22 29 19 9 4 15 16 11 4 6 6 10 6 10 6 4 1 3 2 2 3 2 3 2 4 2 7 3 4 5 4 4 1 2 4 4
27 27 27 26 28 26 26 27 29 31 35 36 37 41 37 32 34 39 33 24 18 5 4 5 5 8 11 9 6 4 3 8 6 3 3 2 3 4 3 3 3 3 4 1 2 3 6 8 3 4 2 3 6 8
23 24 25 25 26 25 24 25 25 28 35 40 39 37 35 33 37 40 33 29 21 5 4 4 3 4 5 4 4 4 3 8 6 4 3 3 3 4 3 2 3 1 8 7 6 8 7 1 10 10 8 7 8 10
20 24 27 25 22 22 25 29 35 36 31 28 37 40 36 34 36 36 39 25 18 0 3 5 7 3 1 3 7 4 6 7 4 3 2 2 2 4 2 1 1 6 4 3 3 8 3 7 11 8 10 11 10 9
31 35 32 29 32 35 35 30 34 37 33 34 33 34 35 36 31 16 4 8 7 10 4 3 2 2 6 11 10 8 6 5 3 3 2 3 2 2 3 3 6 10 9 6 3 6 4 11 12 14 12 11 13 13
19 24 29 26 22 26 29 31 32 32 33 35 34 34 33 31 30 4 2 2 7 6 3 3 4 0 7 11 5 5 3 2 2 3 2 3 2 2 4 3 10 7 5 7 6 4 8 9 8 12 15 16 18 18
38 33 27 29 27 24 28 31 33 33 32 32 31 29 28 29 13 1 9 7 10 8 3 2 0 4 4 3 3 3 2 3 5 3 1 2 3 1 2 8 8 6 4 7 7 11 12 12 14 12 15 14 12 11
40 45 40 32 30 31 31 35 35 35 36 35 32 30 29 17 3 3 14 18 19 8 3 0 6 3 3 3 1 2 1 2 2 2 0 4 2 3 6 8 7 4 2 8 9 10 11 11 12 12 11 11 12 10
47 46 42 40 36 35 39 37 37 38 41 45 44 7 4 4 15 5 2 3 5 3 4 3 4 3 2 2 2 2 2 2 2 1 2 2 3 7 5 6 7 6 7 10 10 10 11 10 11 11 11 11 12 11
38 45 46 43 38 36 39 44 48 53 49 14 3 3 7 13 2 2 3 1 3 2 1 2 2 3 3 2 3 2 2 2 3 3 5 3 3 6 7 9 6 7 9 12 14 14 14 13 10 9 8 12 12 12
30 26 34 40 42 36 30 33 25 14 5 10 18 12 4 2 3 5 2 2 1 2 1 1 2 3 2 0 3 2 2 0 2 5 2 4 4 10 9 8 8 9 14 15 18 14 15 15 13 12 11 10 9 11
29 29 28 24 30 33 32 29 36 38 26 13 7 4 3 4 5 3 5 3 4 1 1 2 2 2 2 3 3 3 3 3 5 2 3 2 9 8 9 8 10 15 16 18 18 17 16 16 15 14 11 9 9 15
27 29 30 29 19 20 23 20 16 12 12 5 4 5 4 3 2 1 2 2 1 1 2 1 3 2 1 3 0 4 2 2 3 3 3 5 10 8 6 7 11 12 11 13 14 15 14 14 13 14 13 11 10 10
26 25 28 29 24 22 17 17 22 17 8 5 4 4 3 2 1 1 1 0 3 1 3 1 3 3 3 4 2 3 2 3 4 1 2 5 9 8 8 8 11 9 6 10 13 12 13 12 11 11 9 9 10 10
17 26 29 22 23 19 19 20 26 9 5 4 5 3 1 2 2 2 3 2 3 2 2 2 3 3 4 2 1 2 2 1 2 2 3 7 8 5 7 8 9 11 12 16 14 13 12 10 10 10 10 9 10 12
20 11 15 17 20 23 21 14 9 5 4 4 4 2 2 4 4 3 3 3 4 2 3 2 4 3 1 2 2 3 3 2 3 4 4 8 5 8 9 10 11 15 15 15 14 11 10 10 9 7 7 9 6 8
11 15 9 8 8 15 11 10 5 5 6 4 4 4 3 3 1 2 3 4 3 2 2 3 1 2 3 2 3 2 2 2 3 4 5 3 6 9 12 12 16 17 16 12 11 11 9 7 6 8 7 7 6 8
21 17 12 13 10 7 4 6 5 4 5 2 2 2 2 2 4 4 4 3 3 1 4 1 4 4 3 4 4 3 2 2 3 4 6 12 14 15 17 18 17 14 12 11 9 11 10 11 9 7 6 7 7 8
14 19 20 19 8 5 5 4 5 4 3 2 2 4 3 3 3 3 5 5 3 3 5 4 4 3 3 3 4 4 4 2 5 5 5 5 11 13 12 11 10 12 13 12 10 8 8 9 8 7 7 7 7 8
13 17 18 11 9 13 4 3 4 3 3 3 1 1 3 3 4 4 4 5 6 4 3 4 3 4 7 8 11 9 10 11 3 0 6 5 9 11 10 11 9 9 10 9 10 10 9 8 7 6 6 6 7 7
9 12 7 12 6 5 5 12 3 2 3 2 2 3 3 3 3 4 3 5 4 4 3 4 6 5 7 9 12 14 13 15 18 21 18 16 6 9 9 10 12 12 12 10 9 8 7 6 6 6 6 7 8 8
7 8 7 10 5 6 3 7 4 5 3 2 2 3 3 3 4 4 4 4 3 5 8 6 8 11 10 11 14 16 15 13 13 13 14 15 16 15 15 15 13 9 9 9 7 6 6 5 6 7 7 9 11 9
9 6 6 5 6 4 2 4 3 3 3 3 2 3 3 3 4 3 4 3 4 9 8 11 8 5 11 13 10 14 14 13 15 15 12 12 12 12 11 10 10 10 8 6 7 6 6 7 8 9 10 11 11 10
6 7 4 6 4 3 4 3 4 4 4 3 2 3 3 2 2 3 3 2 6 6 7 9 11 10 6 6 10 13 14 12 12 12 12 8 9 9 9 8 9 9 9 8 9 9 8 8 9 10 11 11 11 11
7 9 5 6 4 4 4 3 3 4 3 2 3 2 1 1 2 4 3 4 5 5 7 9 7 6 7 12 8 10 10 8 8 12 11 10 10 7 6 5 4 8 11 9 8 9 10 10 10 11 11 12 12 11
6 6 4 2 2 1 3 3 1 1 3 4 2 3 2 0 4 3 4 8 4 8 9 11 12 11 10 10 9 9 10 12 12 10 8 9 10 11 11 9 7 6 7 8 9 9 10 11 11 12 13 13 12 11
5 6 5 5 4 4 3 2 3 5 3 4 4 3 4 6 4 3 4 6 6 6 8 10 10 10 10 10 9 8 7 6 7 5 6 7 8 8 8 7 6 9 7 7 9 8 9 10 12 13 14 13 14 12
4 4 3 4 3 4 4 4 2 2 4 3 5 3 3 3 6 6 6 5 5 5 7 7 7 7 8 9 10 11 11 12 10 5 5 4 3 7 11 9 8 8 9 10 10 10 10 12 11 13 12 11 11 12
4 4 2 3 3 3 3 5 4 4 5 4 3 4 4 4 9 11 11 11 10 9 8 9 9 9 9 7 7 7 9 10 11 9 5 5 8 9 9 9 9 10 10 11 11 12 12 10 12 12 10 9 9 9
3 3 2 3 3 3 2 3 1 4 3 3 7 6 5 4 6 11 13 11 9 10 8 9 11 12 10 11 10 8 6 8 9 7 8 7 8 9 10 10 10 10 11 11 11 12 13 13 11 12 12 11 11 10
3 4 4 3 3 3 3 3 2 3 2 3 3 3 4 4 3 4 13 13 11 11 12 11 10 8 7 6 6 6 7 7 8 9 10 10 10 10 11 11 11 11 11 12 14 13 13 13 12 12 13 12 11 10
1 1 2 2 1 2 3 4 0 3 3 3 3 3 4 4 4 3 5 10 8 8 8 7 6 6 6 7 8 7 8 8 11 14 12 12 18 17 11 10 12 12 13 13 13 13 13 13 12 11 12 12 11 10

GFSWCAN_925_spd_015.txt.gz
Wind_Speed
38 37 37 34 32 30 28 28 30 26 33 40 38 40 40 39 37 32 27 26 5 3 6 3 10 7 5 5 6 11 4 3 3 4 4 3 3 4 4 7 7 6 5 3 3 2 5 5 4 7 6 3 6 5
34 33 31 30 30 29 27 25 24 27 30 34 38 39 36 39 40 28 16 23 18 5 5 16 12 22 9 9 7 4 8 7 5 4 2 4 2 2 3 2 3 1 6 5 6 5 7 2 7 5 6 5 3 5
30 30 30 31 30 27 25 26 26 27 32 35 37 36 35 40 38 37 23 10 7 3 6 7 5 16 22 22 23 5 2 5 3 4 4 3 3 4 3 4 3 2 3 4 5 2 5 6 2 7 8 9 11 11
28 30 30 29 28 28 28 26 24 25 32 34 39 38 39 34 34 34 19 17 10 4 3 1 7 7 9 18 21 11 7 7 7 4 3 4 4 3 4 4 4 5 4 5 2 3 10 9 8 11 13 12 16 16
26 26 26 26 27 25 24 23 25 31 34 34 33 35 34 31 23 27 17 25 19 3 3 2 4 11 9 13 18 18 9 6 4 3 3 3 3 4 2 3 1 3 6 4 4 1 9 4 8 12 15 13 12 14
25 26 25 26 27 24 23 24 25 28 29 32 33 29 29 26 25 13 2 30 32 29 3 2 3 7 8 10 11 9 5 2 3 4 2 2 1 4 3 3 1 6 8 4 5 8 15 13 15 15 16 14 15 15
24 25 26 24 25 25 26 22 24 24 31 31 31 28 27 23 25 4 2 4 8 7 1 3 4 6 4 5 4 4 3 3 3 2 2 3 1 4 3 4 6 7 9 8 7 12 7 4 9 13 16 18 22 20
33 34 29 27 32 30 28 25 29 29 26 25 30 27 23 20 8 9 7 6 7 3 3 3 2 4 6 2 2 3 2 3 5 2 3 3 2 2 2 6 8 9 10 11 13 14 16 16 17 13 16 15 12 9
24 25 27 31 35 36 32 30 33 34 30 32 32 29 23 13 7 14 5 5 17 8 4 3 3 2 2 3 1 4 3 3 2 2 1 4 2 1 3 10 7 6 6 11 14 15 15 15 14 11 8 8 11 9
33 28 26 30 29 31 35 38 38 37 36 36 29 5 3 1 6 4 3 4 5 3 4 3 2 1 2 2 2 2 2 2 2 3 1 3 2 3 6 7 6 5 14 15 16 11 14 13 11 11 11 10 11 10
43 38 30 26 30 32 35 36 40 43 43 8 3 3 4 9 6 4 3 4 1 4 3 1 3 1 3 3 3 0 2 1 3 3 4 1 1 4 8 8 8 12 13 11 14 14 14 15 11 11 9 13 15 14
47 42 39 33 32 32 36 42 46 21 5 8 16 9 5 5 4 6 3 4 5 3 3 2 1 2 2 2 3 1 3 2 2 1 2 2 1 10 9 7 12 13 15 15 21 17 19 17 16 16 13 14 14 14
44 45 42 40 37 34 43 41 16 40 32 12 7 5 3 4 7 1 2 2 2 2 1 2 2 1 3 3 2 2 2 1 1 2 2 0 7 6 8 9 13 18 19 21 19 21 21 18 19 18 15 16 17 16
32 33 35 36 32 30 30 24 9 5 10 4 4 6 3 3 2 2 3 2 1 2 1 3 3 2 1 4 1 4 0 3 2 4 3 3 6 6 4 8 12 14 13 13 15 16 17 18 17 18 17 16 17 17
32 30 27 28 25 22 21 20 14 14 8 5 5 5 3 1 2 0 1 2 2 2 3 2 3 2 2 3 2 3 3 4 2 2 1 4 7 5 10 13 12 12 10 11 13 15 16 16 16 15 15 15 15 14
24 33 30 21 16 17 14 21 25 9 4 4 6 3 2 2 3 3 4 3 3 3 2 2 2 2 3 1 2 3 3 2 1 1 1 6 6 9 11 11 11 15 15 15 15 16 16 14 15 17 16 15 14 12
29 14 16 19 24 17 17 12 10 6 4 4 3 2 2 3 3 2 2 2 2 1 2 1 4 1 1 3 3 3 2 2 1 2 3 5 7 10 9 11 13 17 17 17 15 15 15 17 20 16 11 10 12 12
17 19 11 9 12 22 15 10 5 4 6 4 4 4 3 3 2 2 3 2 2 2 2 2 2 4 4 3 3 2 2 2 4 4 5 6 7 13 14 14 16 18 18 16 16 15 16 15 13 12 13 11 12 11
19 17 13 13 10 7 4 6 6 4 4 2 2 2 2 2 1 2 4 3 1 3 3 3 5 4 3 3 2 4 3 2 3 4 5 11 14 15 16 17 18 17 16 15 14 15 17 18 16 14 12 10 11 11
18 21 23 16 8 6 5 3 5 4 3 1 1 3 2 2 3 3 8 7 5 3 6 4 4 3 3 3 3 3 3 3 3 6 5 6 13 16 13 13 15 18 17 18 16 16 16 16 14 11 10 9 8 7
13 19 17 12 9 14 4 3 4 3 2 2 2 2 2 2 7 7 4 5 6 4 4 4 4 6 11 11 13 11 12 12 3 1 3 5 11 16 15 15 17 16 14 13 13 14 15 13 10 9 8 7 7 9
11 12 7 13 6 5 4 11 3 1 3 0 3 3 3 3 3 4 2 7 4 4 3 3 6 5 7 10 13 16 14 15 18 21 21 17 7 11 13 14 18 16 16 14 13 12 11 8 8 5 8 7 7 7
7 9 8 10 6 6 2 8 5 4 3 2 3 3 3 2 2 2 3 3 3 7 9 5 9 15 14 16 18 21 20 18 16 17 17 18 18 18 19 20 17 15 12 11 11 9 9 6 8 8 6 7 9 7
10 7 6 5 5 4 2 4 3 3 3 3 3 3 3 2 2 3 4 3 3 11 9 11 8 5 12 14 10 15 16 16 17 18 16 14 14 15 16 16 17 15 12 10 9 9 8 7 7 7 9 9 9 9
7 8 5 6 5 5 5 4 5 4 3 4 4 3 2 2 3 3 3 3 5 5 6 10 13 11 4 5 10 14 18 14 12 12 15 11 13 13 12 14 15 14 10 9 10 9 10 8 8 9 9 10 12 11
8 8 5 6 4 4 4 3 3 2 2 3 3 1 2 2 4 4 3 3 3 3 6 8 5 5 7 12 8 11 13 9 14 14 14 13 15 14 11 8 7 8 10 8 7 8 8 9 11 11 12 13 14 8
6 5 2 1 0 1 2 1 1 3 5 4 2 3 2 3 4 3 2 8 3 10 11 15 14 13 10 10 11 12 14 13 13 12 11 13 15 14 12 11 8 7 6 7 10 10 8 10 11 12 13 13 12 12
3 4 4 5 3 4 3 4 4 4 3 4 3 5 3 4 3 2 5 7 6 9 12 13 12 13 15 14 13 11 11 5 7 9 12 15 13 13 11 9 8 8 8 9 10 9 10 10 13 12 12 14 15 12
3 4 2 4 4 4 5 4 3 3 4 3 3 3 3 3 6 8 9 14 19 15 14 11 8 11 14 15 15 17 17 15 13 6 6 3 2 13 14 11 8 11 11 10 10 10 11 13 11 13 14 18 15 14
5 2 3 4 4 4 3 4 3 3 6 5 4 4 3 4 13 19 19 17 15 14 15 16 16 16 16 13 10 14 16 17 15 12 4 3 9 13 13 11 12 12 11 14 13 12 14 13 14 13 13 14 10 10
2 4 4 3 3 2 2 1 4 6 4 3 7 3 4 3 5 18 24 14 14 19 15 15 16 15 15 16 14 9 8 11 11 10 13 9 10 11 13 14 13 14 12 14 12 13 15 15 15 14 13 13 11 7
3 4 2 3 2 2 3 2 0 2 3 2 2 3 2 3 3 5 14 14 15 15 15 14 12 10 10 8 9 7 8 8 8 15 16 14 14 17 19 16 10 11 14 16 17 16 15 16 17 16 11 8 13 12
1 2 4 3 4 3 1 2 0 3 4 3 3 2 2 3 3 3 7 11 8 8 9 8 7 7 5 7 8 6 6 10 15 12 12 16 17 16 14 16 18 14 13 14 13 14 14 16 16 14 9 9 10 10

GFSWCAN_925_spd_018.txt.gz
Wind_Speed
41 41 42 40 40 38 37 37 37 37 38 38 39 41 44 41 44 36 29 25 9 4 6 2 11 15 14 10 8 4 4 3 3 4 4 4 4 5 4 6 7 6 6 3 3 3 6 6 3 7 6 4 8 5
34 36 35 34 33 33 33 34 34 35 35 39 41 42 41 37 39 40 8 28 24 3 4 18 22 20 23 10 6 1 7 5 4 4 1 4 2 2 5 3 3 1 6 6 8 6 6 4 5 5 7 6 4 7
30 29 29 29 29 29 30 27 28 32 34 39 38 38 37 38 40 38 13 12 8 4 7 3 6 5 19 34 27 5 2 3 5 4 5 3 5 4 3 4 4 2 5 4 4 3 2 4 5 6 5 10 7 6
25 27 27 27 27 27 25 20 21 24 32 38 39 38 39 37 37 31 13 20 8 4 2 4 12 6 2 29 25 13 10 7 7 3 3 3 4 4 4 4 5 5 6 6 3 1 10 8 6 10 12 12 14 13
24 25 25 26 26 25 25 23 23 26 32 32 34 35 35 34 30 26 17 18 16 4 2 4 12 8 8 25 20 24 12 8 3 3 3 2 2 4 1 3 1 5 7 5 5 8 5 3 4 7 13 11 10 15
26 26 25 24 24 25 24 22 24 25 28 30 32 32 30 27 26 19 3 21 29 8 3 1 6 6 7 13 14 14 5 5 3 4 2 1 0 3 4 3 2 1 2 6 6 6 13 12 10 9 14 12 12 14
25 25 24 22 20 19 19 19 21 25 27 27 28 25 27 25 32 8 5 2 26 20 3 2 4 5 6 5 3 4 4 4 2 2 2 3 1 3 3 3 6 4 8 13 17 17 10 0 8 11 16 18 22 20
27 25 25 24 24 23 23 21 22 23 23 25 25 23 24 28 13 14 11 4 17 5 3 3 2 4 6 2 3 2 2 2 4 2 1 2 2 2 1 2 9 8 12 10 7 10 13 16 15 12 17 17 14 11
33 28 26 27 26 23 22 19 21 24 28 25 24 26 21 10 4 8 18 7 28 9 4 3 4 3 1 1 1 3 3 3 2 2 1 3 1 2 2 10 12 12 7 14 15 17 15 16 14 12 11 9 12 10
36 28 29 29 26 24 21 16 23 31 36 35 27 6 2 1 9 13 8 2 2 1 3 3 1 2 2 1 3 3 3 2 2 3 1 4 0 3 5 5 5 11 18 18 19 11 14 14 13 10 11 8 9 10
27 30 32 29 27 25 25 29 31 28 34 11 4 2 9 20 6 2 3 2 1 4 4 2 2 4 5 4 3 2 2 1 3 3 4 2 2 2 4 8 7 11 10 7 12 12 13 15 14 12 10 13 14 14
30 29 29 29 29 29 31 31 32 22 9 8 13 12 6 2 1 3 3 3 4 1 2 2 1 2 2 3 4 0 3 2 3 2 4 2 2 5 9 10 11 12 15 16 20 16 18 18 18 17 15 15 15 16
34 34 31 33 33 34 36 42 43 15 33 16 4 4 3 4 7 4 2 2 1 1 1 2 3 2 3 3 2 3 4 1 1 2 2 1 5 6 11 11 13 16 21 20 17 21 21 19 18 21 18 17 18 17
41 38 34 32 34 36 40 34 7 5 5 4 3 4 4 4 4 3 2 2 1 2 2 2 3 3 0 4 1 4 0 2 2 2 4 3 7 8 9 12 14 12 13 14 14 18 18 19 18 19 19 22 21 18
36 36 32 28 24 19 11 9 9 12 10 6 6 5 5 1 1 1 1 2 2 1 1 1 2 2 3 3 2 3 1 2 1 2 1 3 4 9 12 11 12 12 11 11 16 16 17 17 17 17 19 20 21 19
28 34 25 16 14 19 19 18 20 7 4 4 6 3 3 3 5 3 3 2 2 1 0 0 3 4 3 2 2 2 2 1 1 0 0 4 8 9 11 11 10 14 14 15 15 17 17 15 16 18 19 17 16 16
31 9 18 17 26 15 14 11 8 6 4 4 3 1 0 1 1 0 2 2 2 1 2 2 5 3 1 3 3 4 2 2 1 2 3 7 8 10 11 12 14 14 15 16 17 15 16 19 22 19 14 14 14 16
19 18 10 13 19 24 14 13 5 5 7 4 3 5 3 3 3 4 4 3 3 2 2 3 3 5 5 4 3 3 3 2 3 4 5 8 8 12 13 11 14 17 16 16 16 16 19 16 13 10 15 16 15 14
23 18 15 16 11 8 4 6 6 4 5 2 3 3 2 3 7 6 7 7 8 7 3 3 5 4 3 3 3 4 3 3 2 3 4 9 13 13 14 16 17 17 17 16 17 16 17 17 14 13 13 11 11 8
24 26 25 17 9 6 5 3 5 4 3 2 2 6 4 3 4 6 10 8 6 4 6 5 4 3 3 4 4 4 4 4 2 5 5 6 12 16 14 16 15 20 20 20 19 19 17 16 13 11 10 8 8 5
13 18 15 14 9 14 4 3 4 3 2 3 2 2 3 4 9 7 6 7 7 4 4 4 3 5 10 11 14 11 13 11 4 3 3 6 14 17 17 18 19 19 17 15 14 14 15 11 8 7 7 7 8 7
10 11 7 13 7 6 5 11 3 0 3 1 3 3 3 3 3 4 2 7 4 4 3 3 5 6 8 12 15 20 17 19 19 20 19 17 7 10 13 14 17 15 16 14 13 12 11 10 7 6 6 6 5 4
7 9 9 11 7 7 3 6 5 5 4 3 3 4 3 3 2 2 3 4 4 8 8 10 12 15 14 16 20 24 22 19 17 16 17 18 18 18 19 18 16 14 13 13 12 12 10 7 7 5 6 6 5 4
11 7 6 5 6 3 3 5 3 3 4 4 3 3 3 2 2 4 4 3 4 12 11 9 9 5 12 16 12 16 17 16 17 18 16 15 15 15 17 17 20 18 14 12 12 10 9 8 6 6 7 6 7 7
7 8 6 7 4 6 5 4 4 4 3 4 4 3 2 2 3 3 3 2 4 5 6 10 13 11 5 5 10 14 17 15 13 12 16 13 14 14 15 17 17 15 11 10 11 8 8 7 7 7 8 10 11 8
8 6 5 6 3 4 3 3 3 2 2 3 2 2 2 3 4 4 2 1 2 3 5 6 4 5 7 12 8 10 12 10 14 16 16 16 12 10 8 6 6 9 10 11 11 9 7 8 9 9 11 9 8 11
6 5 3 0 2 2 3 2 2 5 4 3 2 3 3 4 4 3 1 5 2 7 12 14 13 11 9 10 13 13 15 14 16 16 16 19 19 18 14 11 8 6 6 8 9 8 9 10 10 13 12 10 11 11
3 4 4 5 4 3 4 3 3 3 3 4 3 6 3 3 3 2 4 4 13 15 16 16 16 16 17 15 13 12 8 11 13 14 15 15 16 16 12 8 7 8 9 9 9 9 9 10 12 9 10 13 15 14
3 2 3 6 5 5 4 3 3 2 4 2 3 3 3 3 7 8 11 15 14 17 16 13 13 15 17 18 20 21 20 12 7 5 4 3 8 13 15 8 9 10 10 10 11 10 9 12 13 12 12 12 13 10
3 2 4 4 4 4 3 3 2 3 7 5 5 5 5 4 12 18 18 17 18 17 17 17 15 16 15 12 13 16 17 17 18 16 3 2 7 12 14 16 17 15 14 13 12 10 10 13 13 12 12 13 11 10
3 4 4 4 3 1 1 4 11 9 5 4 7 3 4 4 7 20 20 17 16 16 17 17 16 14 14 15 13 9 12 11 10 13 12 11 11 12 16 16 14 13 14 15 16 16 17 17 15 14 15 15 8 9
3 2 3 3 1 2 3 2 1 3 2 3 1 2 2 3 3 4 12 10 14 14 12 11 12 9 8 9 7 6 3 6 12 14 14 13 14 13 13 14 17 16 13 13 14 13 13 14 14 15 15 9 9 11
3 4 4 3 3 4 3 3 2 3 3 2 2 2 2 3 2 3 7 9 11 13 12 9 6 5 2 3 5 6 11 14 13 10 9 10 11 15 15 13 12 13 14 13 14 13 13 14 17 18 16 13 12 10

GFSWCAN_925_spd_021.txt.gz
Wind_Speed
40 44 47 49 48 47 46 45 46 46 46 46 45 42 39 41 42 41 20 15 3 1 5 5 3 8 10 14 12 5 4 1 3 4 4 4 3 6 4 6 7 7 7 4 3 2 6 6 5 8 6 2 7 6
38 40 41 40 39 39 39 40 40 41 41 40 40 39 39 41 41 38 11 16 14 2 4 14 19 28 18 20 12 5 4 6 6 3 2 3 3 2 5 3 2 2 6 6 8 6 4 4 3 3 6 9 6 8
33 34 34 34 34 34 34 35 36 38 38 36 35 37 37 38 34 36 15 20 7 2 7 3 6 17 18 28 32 5 2 5 4 3 4 2 4 4 4 4 4 3 4 4 4 2 3 2 2 4 3 4 5 4
29 31 31 31 31 32 32 32 33 33 33 33 31 29 30 33 32 34 25 18 15 2 3 4 8 10 6 15 31 22 8 6 6 2 2 3 3 3 4 4 5 5 8 6 1 1 3 4 3 6 9 9 12 11
23 23 25 25 27 27 28 29 31 32 31 32 31 31 33 32 31 34 29 18 11 4 3 4 13 3 12 10 24 22 12 7 3 2 2 2 3 4 1 2 1 5 7 5 6 10 5 4 6 7 11 9 9 14
23 23 24 23 24 23 19 24 28 33 34 33 33 31 32 31 36 20 3 27 25 8 2 3 4 5 11 4 13 7 7 3 3 4 3 1 1 4 4 3 3 3 2 4 6 7 6 12 7 7 11 10 11 12
24 23 22 21 21 22 21 21 25 29 36 40 36 32 36 35 31 5 4 3 34 15 3 4 5 4 5 2 3 3 2 3 2 2 1 3 1 3 3 4 5 5 6 10 15 15 8 1 6 10 14 16 19 18
24 23 23 23 22 21 24 21 25 27 28 40 35 32 31 27 20 12 9 7 33 8 3 3 2 4 4 2 2 3 4 1 3 3 1 3 2 1 1 1 7 9 13 9 7 7 11 16 14 13 18 18 15 12
25 25 25 23 23 24 27 27 29 31 31 32 33 33 24 9 7 6 6 20 3 5 3 1 3 4 5 1 2 3 3 2 2 2 2 2 3 2 2 5 9 12 5 13 13 16 16 16 15 13 13 12 15 10
25 25 24 25 26 27 29 30 28 31 31 32 31 6 5 14 21 13 5 3 0 1 1 2 2 2 3 3 1 3 2 2 2 2 3 3 2 2 3 4 8 12 16 17 18 11 14 14 14 11 11 10 10 10
27 25 25 25 24 22 24 28 31 33 30 6 4 3 22 22 7 3 2 2 1 1 1 3 3 3 3 3 3 2 3 2 3 3 5 3 3 3 2 6 10 11 11 4 9 13 12 17 15 13 11 13 16 15
28 27 26 24 23 21 22 26 36 22 14 10 16 20 7 4 2 4 3 1 2 3 2 1 2 2 2 3 2 3 3 2 2 2 3 3 2 4 5 8 9 10 12 13 16 15 16 17 18 17 15 15 15 18
33 29 27 28 28 22 22 30 37 15 18 3 6 5 2 0 2 2 3 2 2 2 2 0 2 2 2 3 3 3 5 0 1 3 2 1 5 5 7 10 12 11 16 17 15 19 22 20 19 22 17 17 19 19
25 23 23 23 24 26 29 32 36 4 3 4 3 5 3 3 3 1 1 1 1 2 2 2 3 3 1 4 1 4 1 1 2 2 2 1 6 7 8 9 13 12 11 14 14 17 18 18 17 17 18 21 22 18
29 27 25 22 23 26 27 30 19 8 6 4 3 5 4 2 1 2 2 0 2 1 1 2 3 3 3 4 3 2 2 2 1 1 2 2 8 9 8 8 11 12 11 11 15 16 17 19 18 17 19 21 23 22
28 26 17 18 23 21 21 16 7 4 4 4 7 4 2 1 4 4 4 3 4 2 1 3 3 3 3 2 3 4 2 3 2 2 2 4 8 8 9 9 10 13 14 14 15 16 17 16 17 18 21 21 20 20
20 8 17 22 21 15 17 6 4 5 4 5 3 3 2 2 3 3 4 4 4 3 3 3 5 3 1 3 3 4 3 3 3 2 4 5 7 8 9 10 14 16 15 16 16 16 17 20 23 19 15 14 16 16
12 15 8 8 9 17 16 12 4 5 7 4 4 6 6 6 4 5 5 7 3 2 2 4 3 6 4 4 3 4 3 3 4 4 4 6 8 10 12 11 15 16 16 16 17 18 19 17 14 12 15 17 17 14
22 15 15 14 10 9 4 6 7 5 6 2 3 4 4 3 7 6 7 6 7 7 3 3 6 4 3 3 3 6 5 4 3 4 6 12 12 13 14 16 16 17 16 17 17 16 16 16 14 14 14 12 11 10
25 28 28 17 9 5 5 3 6 4 3 2 2 8 4 3 4 5 10 8 7 4 6 5 4 3 3 4 5 5 5 5 2 6 8 9 16 19 17 15 16 19 21 21 20 19 18 17 15 13 10 8 8 7
16 21 19 16 10 14 4 3 4 3 3 3 1 2 3 5 11 8 8 8 8 4 4 4 4 5 11 12 14 12 13 14 8 5 4 6 14 19 19 20 20 19 17 15 15 15 15 12 10 9 8 6 4 6
11 12 7 13 6 5 4 10 3 1 3 2 2 3 3 3 3 5 4 8 5 5 4 3 5 5 8 12 16 20 17 20 21 21 21 17 7 10 14 16 17 16 16 14 13 13 12 9 7 7 6 5 3 3
8 10 9 12 7 6 2 5 5 4 4 2 3 4 3 3 2 2 4 4 4 7 7 9 14 16 15 17 21 25 23 20 18 17 18 18 20 19 20 21 19 16 14 15 13 13 12 8 7 6 5 4 2 0
11 7 6 5 6 2 3 5 3 3 4 3 3 3 3 2 2 4 4 3 4 11 10 12 10 5 12 16 13 17 18 17 18 20 17 16 16 17 19 20 22 20 15 11 11 10 9 8 7 7 7 6 6 6
7 8 6 7 4 6 5 5 5 5 4 3 3 3 2 3 3 3 3 2 4 5 5 10 12 10 5 5 11 15 19 17 14 13 17 15 15 14 16 18 19 17 14 13 12 9 9 8 9 9 10 8 6 8
8 5 5 4 3 4 2 3 3 3 3 4 3 2 3 4 5 4 2 1 2 3 4 5 5 5 7 13 9 11 12 11 17 19 18 19 17 14 11 9 7 11 13 13 11 10 10 10 9 11 11 10 8 10
6 5 3 2 2 3 4 3 2 4 4 4 3 4 3 5 3 2 1 6 3 8 14 15 14 12 9 9 13 16 17 17 19 18 17 19 19 17 16 13 11 9 11 11 11 11 10 9 11 11 10 10 13 14
4 4 4 5 4 3 4 3 4 4 3 3 3 6 3 2 2 3 3 6 13 16 19 19 20 20 21 19 13 13 14 14 14 13 12 14 16 15 11 9 8 9 9 8 10 11 10 9 11 13 13 14 14 13
4 3 4 7 5 5 4 3 2 2 4 2 3 3 2 2 6 7 9 11 12 14 14 13 13 14 17 19 21 20 16 12 9 6 5 3 9 12 14 14 15 13 12 13 13 12 9 10 12 14 14 12 10 8
3 2 4 4 4 4 3 2 3 3 8 5 5 4 4 4 12 15 17 17 18 16 15 14 13 13 13 13 14 15 14 15 16 13 3 3 8 11 13 15 13 14 16 16 15 15 14 14 15 14 13 12 11 10
1 3 4 4 3 2 6 10 15 10 6 4 8 4 3 3 7 17 16 13 13 13 14 13 13 13 12 12 9 7 8 9 11 10 10 9 10 11 11 11 12 15 14 12 13 13 13 13 12 14 15 14 9 6
4 3 4 3 1 1 2 1 3 3 2 3 1 2 2 3 2 3 8 9 11 11 8 6 7 5 4 6 7 7 7 10 12 12 11 9 8 11 12 11 11 11 12 13 13 13 13 13 13 17 17 14 12 13
4 3 4 3 3 3 3 3 3 3 3 2 1 2 1 3 3 3 4 7 8 9 10 8 6 3 2 4 7 9 10 9 9 9 7 7 9 11 14 14 15 15 16 15 13 13 11 11 14 14 14 14 13 12

GFSWCAN_925_spd_024.txt.gz
Wind_Speed
6 13 22 29 33 33 26 52 57 57 56 54 54 54 53 51 47 39 35 25 5 3 7 7 2 9 10 15 9 4 7 4 2 6 4 4 4 6 4 4 7 7 7 4 3 3 7 8 4 9 7 1 6 8
38 26 19 25 25 35 51 55 53 52 52 51 51 50 47 45 44 33 10 33 19 5 3 6 12 18 8 7 12 6 6 7 6 4 1 4 3 1 3 3 1 3 7 6 9 7 5 6 4 6 5 6 7 8
34 40 42 44 44 46 47 47 48 46 46 47 44 42 38 39 41 35 19 26 22 3 5 5 7 7 16 21 19 6 2 2 3 3 4 3 4 4 4 4 3 3 3 4 4 4 6 5 2 2 3 4 6 5
29 31 33 35 36 37 38 39 40 40 40 40 38 36 36 36 36 34 22 19 16 2 1 5 3 7 5 21 26 23 4 5 5 1 3 3 3 3 4 3 4 4 8 7 3 3 1 5 3 4 3 7 10 8
25 28 29 31 33 34 36 36 36 37 37 37 36 35 34 36 36 27 21 16 25 3 0 5 17 11 9 8 20 25 15 5 2 2 2 3 2 4 1 3 2 5 7 6 7 9 7 5 7 6 7 6 8 15
22 24 26 28 29 31 33 34 35 35 32 32 34 36 38 40 34 20 4 22 10 14 2 3 4 3 5 4 12 14 10 3 3 4 3 3 3 2 3 3 5 5 6 6 6 7 4 8 7 4 10 9 10 11
22 24 22 22 23 26 29 32 34 35 33 33 33 34 35 33 33 5 5 4 18 6 2 3 4 3 3 2 2 3 3 3 3 3 2 3 3 1 3 4 5 5 5 4 11 13 6 3 6 9 14 13 20 20
20 21 20 19 19 23 25 25 29 31 33 33 33 33 34 32 27 7 2 8 25 7 2 3 4 3 5 1 3 2 3 2 4 2 2 2 1 2 2 1 2 4 9 6 5 5 9 15 14 13 16 17 16 14
19 20 21 21 23 25 24 24 32 36 31 31 30 28 27 10 1 1 3 14 13 5 4 3 2 3 1 2 2 2 1 2 1 2 2 2 2 4 5 5 7 3 2 11 11 13 14 16 16 14 14 13 17 13
21 19 19 23 21 25 29 27 35 37 33 33 35 5 2 13 17 17 9 1 5 5 3 3 1 2 1 1 1 1 1 2 2 2 2 2 3 3 2 3 8 8 11 13 16 11 13 13 13 13 12 11 13 12
22 22 25 29 26 31 35 37 40 42 38 13 3 2 13 24 6 3 2 3 3 3 3 3 3 1 1 3 3 0 2 1 3 3 4 1 3 1 2 4 7 12 8 2 8 9 6 14 16 14 12 11 17 17
25 25 24 23 25 29 35 38 40 24 12 8 11 17 7 3 3 4 3 2 3 3 2 2 2 0 1 1 3 2 2 1 3 3 4 3 2 3 5 7 8 9 8 9 12 15 13 13 16 14 13 15 18 19
17 20 19 19 18 22 30 34 20 7 12 2 4 3 2 0 4 5 5 2 2 3 2 2 1 1 2 3 3 2 2 2 1 2 2 1 2 3 6 8 11 11 11 13 15 19 22 21 22 21 17 17 23 21
18 18 17 16 13 16 19 26 8 3 3 3 4 5 3 3 3 1 1 1 2 2 2 1 2 2 1 3 0 4 1 2 3 2 1 1 4 5 6 8 10 11 11 13 14 17 18 20 21 22 21 20 23 20
20 17 15 14 15 14 17 25 4 13 5 4 4 4 4 2 1 2 2 3 4 2 1 1 2 2 3 3 3 2 2 4 4 2 3 3 5 7 8 9 10 11 11 11 15 15 18 20 21 19 20 22 23 24
27 24 12 19 17 13 15 16 6 8 4 4 6 4 3 3 7 5 6 4 5 4 2 3 3 4 5 3 5 5 3 4 3 3 3 2 6 8 9 9 9 11 13 14 17 19 19 18 19 19 20 20 21 22
12 5 21 21 20 18 14 7 2 4 4 5 4 6 4 3 4 4 5 5 4 3 3 3 5 4 3 4 4 5 4 4 4 2 3 6 7 8 9 10 12 16 16 17 18 18 19 21 22 20 16 14 17 17
13 19 26 32 33 24 11 6 4 5 7 4 4 6 7 5 6 6 6 7 3 2 2 4 3 6 4 4 3 3 3 6 5 7 7 7 9 10 13 11 16 17 17 17 19 19 19 18 15 13 16 15 16 14
16 19 31 33 10 6 4 6 6 5 7 3 3 4 3 2 8 6 7 7 7 7 4 4 6 4 3 3 5 6 7 4 5 6 8 17 17 16 17 18 19 19 19 18 18 17 18 18 15 15 14 12 11 9
29 25 19 21 11 4 4 3 5 4 3 2 2 8 4 4 5 7 11 9 8 4 6 5 4 3 3 4 5 5 6 6 2 7 9 9 18 22 21 19 18 20 22 22 22 20 19 18 17 14 12 10 8 6
18 18 13 10 7 12 4 2 4 3 3 3 1 2 3 7 12 11 10 8 10 4 5 4 4 5 12 13 16 13 15 15 9 6 5 7 15 19 20 20 21 20 18 16 15 16 18 14 12 12 12 10 7 4
9 11 6 12 6 5 5 10 3 1 3 2 3 3 3 3 4 5 4 8 5 5 4 4 6 6 8 12 16 21 19 22 23 22 23 19 9 12 16 18 19 18 19 17 16 15 15 15 13 12 11 8 5 4
7 9 9 12 8 7 3 7 5 5 4 3 3 4 3 3 2 2 4 5 4 8 12 9 12 16 16 17 21 26 24 21 19 18 19 20 21 21 22 23 21 17 15 17 16 16 14 11 12 11 10 9 8 6
9 7 6 5 6 2 3 6 3 3 4 4 3 4 4 2 2 4 4 3 4 11 11 14 12 6 12 18 13 17 18 17 19 22 18 17 17 18 19 20 22 22 17 12 14 14 13 13 12 12 12 11 10 10
7 8 6 7 4 6 6 5 5 5 4 4 3 3 3 3 3 4 2 2 4 5 6 11 13 12 6 5 12 16 21 17 15 15 19 14 13 13 16 20 22 21 19 19 17 15 14 12 11 12 12 11 10 11
8 6 5 2 3 4 1 3 4 3 3 4 4 2 3 4 5 3 2 1 2 3 5 5 4 4 7 12 8 10 13 14 19 20 18 20 19 17 14 12 10 13 15 13 12 12 11 11 11 12 12 12 12 14
6 5 3 3 2 4 4 3 2 5 4 4 2 3 4 5 3 2 2 6 3 7 11 12 12 10 7 9 14 16 16 17 20 18 15 16 17 16 16 14 11 9 10 10 10 11 11 11 11 11 13 14 15 15
4 4 4 5 5 3 4 3 4 3 2 2 3 5 4 3 1 2 4 7 12 15 17 18 19 17 14 13 12 13 13 12 9 8 11 14 15 12 13 12 10 10 10 11 12 12 12 12 9 11 14 16 16 13
4 3 4 6 5 5 5 4 3 3 4 2 4 2 2 2 5 5 5 10 10 12 14 14 14 15 17 17 16 15 15 11 9 5 5 3 7 10 12 13 11 11 15 15 12 11 10 12 14 15 16 16 16 14
4 2 5 4 5 5 4 2 2 2 7 4 5 4 3 4 9 11 13 13 15 15 14 12 10 9 11 11 11 11 12 13 13 11 1 2 8 12 12 11 11 13 14 12 13 14 14 14 14 13 14 15 15 12
1 3 4 4 4 2 5 8 13 9 5 4 8 4 3 3 5 11 11 9 9 9 9 10 9 9 8 8 7 4 6 8 10 9 8 6 6 8 10 11 12 12 13 14 15 15 15 14 13 14 17 17 15 13
4 4 4 4 3 2 0 2 2 3 2 3 2 2 3 3 2 2 4 4 5 6 4 2 1 3 4 6 7 7 7 9 8 9 7 6 8 9 11 13 13 14 14 15 14 13 13 12 12 14 15 16 15 13
3 3 4 4 3 2 1 3 3 2 3 2 1 2 2 4 4 4 3 3 5 6 7 6 4 4 3 4 6 7 8 8 8 9 7 6 8 12 14 14 13 14 15 15 13 12 12 13 13 13 13 14 14 14

GFSWCAN_925_spd_027.txt.gz
Wind_Speed
10 10 12 17 20 25 35 40 41 45 44 53 56 56 59 63 56 28 13 24 9 1 2 5 3 9 10 16 9 5 7 5 2 5 4 3 3 5 3 3 6 7 7 4 3 2 8 8 6 10 7 2 6 10
7 13 16 21 21 30 36 39 42 41 54 56 54 53 61 59 54 28 13 14 12 4 3 7 7 15 11 16 12 13 7 7 8 4 3 2 2 1 6 8 0 4 6 6 9 7 2 11 4 7 4 4 6 12
39 14 21 19 20 25 32 34 36 49 53 56 54 53 51 46 42 24 16 16 8 2 7 4 7 6 12 21 27 5 2 6 5 4 5 3 4 4 5 6 2 3 3 3 3 5 7 7 3 3 5 5 6 9
33 39 32 23 26 31 35 41 49 51 49 49 47 46 47 43 39 25 16 17 12 2 4 5 2 8 12 21 25 15 2 5 5 2 3 3 4 4 4 3 4 3 8 6 3 5 2 9 9 5 5 5 10 10
29 32 35 36 37 42 44 43 43 43 42 42 40 40 38 37 37 26 18 21 28 3 2 4 11 11 16 18 20 19 11 3 2 2 2 3 3 4 1 2 3 5 6 5 6 10 6 5 11 9 10 9 12 18
24 28 30 32 36 39 39 40 40 40 42 40 39 38 38 38 29 17 1 17 19 17 4 3 4 4 4 11 13 13 10 5 3 3 3 2 2 2 5 4 5 9 6 2 1 2 3 5 6 6 9 12 11 13
23 24 26 30 32 33 36 39 38 39 38 39 37 32 30 32 29 5 5 6 33 17 3 3 3 4 3 2 2 4 4 3 3 3 2 2 1 1 2 5 4 6 6 4 6 8 2 5 4 6 12 13 19 19
20 21 24 27 29 31 32 33 33 34 34 34 33 34 36 36 20 9 1 16 36 8 1 2 3 3 1 1 2 2 3 2 0 3 1 3 1 0 4 5 3 2 6 6 3 4 1 11 13 13 13 15 16 16
18 18 21 25 28 30 31 32 33 32 31 30 32 32 30 9 4 4 17 30 16 3 3 2 1 2 3 1 1 0 0 2 1 2 3 4 2 5 4 5 6 7 3 8 10 7 11 11 14 14 15 15 18 16
20 21 22 24 27 30 30 32 33 34 35 36 33 4 3 6 14 25 8 4 2 3 2 2 1 2 1 0 1 1 2 2 3 3 3 3 3 1 3 4 5 9 13 13 8 5 7 12 12 12 11 11 14 15
17 18 18 21 23 33 36 34 34 36 33 12 2 2 9 26 6 2 2 3 2 2 3 3 5 2 1 2 2 2 2 2 3 3 4 3 2 2 7 4 4 5 10 7 5 9 7 8 12 15 14 13 15 18
18 17 21 25 26 34 41 38 36 19 13 6 8 17 12 2 2 3 3 2 4 4 2 4 3 2 1 0 3 1 2 2 3 2 3 2 2 4 3 5 8 8 6 10 8 15 15 12 13 14 13 13 18 22
19 17 20 23 30 34 36 33 19 13 10 11 3 4 2 1 1 5 5 3 3 2 1 1 1 2 1 3 3 2 3 2 3 1 2 2 3 3 3 5 9 13 5 12 18 19 21 19 19 21 19 22 25 24
19 19 19 19 22 30 15 24 17 3 5 3 2 4 2 1 2 1 1 1 0 1 1 1 2 2 2 3 0 3 1 1 1 2 3 3 3 4 6 6 10 12 10 14 14 16 17 19 20 22 23 23 24 19
16 15 15 14 15 15 7 12 16 7 2 3 3 3 3 3 3 3 2 1 2 2 1 2 3 3 3 3 3 1 3 5 5 4 4 7 5 5 7 9 10 10 10 12 13 13 17 21 21 20 20 21 23 21
17 14 12 12 11 11 12 4 10 7 3 3 6 5 5 2 4 3 5 4 4 4 2 3 3 4 6 3 5 6 4 5 5 5 6 5 6 6 8 9 10 11 13 14 17 19 20 19 19 18 21 20 19 19
12 5 20 17 20 19 17 8 6 5 4 4 3 8 5 2 4 5 5 7 5 1 3 3 6 5 3 4 4 5 4 5 8 7 6 7 7 8 9 10 12 16 17 18 20 21 21 21 22 22 18 16 16 17
6 25 25 22 22 22 9 3 3 5 7 4 4 7 8 6 7 6 6 9 4 3 3 5 4 8 6 5 3 4 3 7 4 7 9 9 11 14 16 13 19 21 21 22 23 22 20 20 19 17 18 17 17 15
29 34 31 23 5 4 3 5 6 5 7 3 5 4 3 5 11 9 9 8 7 7 4 4 6 4 3 3 4 6 6 4 5 6 9 19 21 20 22 24 25 24 24 22 22 20 22 22 18 15 13 12 11 9
38 31 21 11 9 4 4 4 5 5 4 1 2 8 6 6 7 10 13 11 9 4 7 5 5 4 4 5 5 5 5 4 4 7 9 10 18 22 22 20 19 20 22 23 23 22 21 22 22 19 16 12 9 7
25 14 7 5 4 10 4 3 4 3 4 3 1 2 3 6 13 12 10 8 10 5 5 5 5 6 11 12 13 12 15 15 9 7 6 8 16 19 21 22 22 23 21 19 17 19 20 17 14 15 16 14 10 8
9 10 4 4 5 5 4 9 3 1 3 2 3 3 4 3 4 5 4 9 5 6 4 5 7 7 9 13 17 21 18 21 21 21 22 18 9 13 17 18 19 19 20 18 17 15 15 14 13 13 12 10 8 8
9 5 7 9 6 6 2 6 5 5 4 2 3 4 4 3 3 3 4 5 4 9 12 11 14 17 16 17 21 25 22 21 19 18 19 19 20 20 21 22 19 16 15 16 13 13 13 12 14 14 12 11 11 11
7 6 6 5 6 2 3 5 3 3 4 4 3 3 4 2 2 4 4 3 4 12 12 14 12 7 13 16 14 16 16 16 19 20 17 15 16 17 18 19 20 20 15 13 15 15 15 14 14 14 14 13 13 13
7 8 6 6 3 6 5 4 5 4 4 4 4 4 2 2 3 3 2 2 4 5 6 11 12 12 6 6 12 15 18 14 15 15 17 11 11 12 14 15 16 16 16 15 16 15 14 14 15 15 14 14 14 15
8 6 5 3 4 5 2 4 4 4 3 4 4 2 3 3 4 3 2 1 2 3 4 4 4 5 8 11 8 9 10 10 13 18 14 14 14 13 10 10 9 11 16 14 13 13 12 12 11 12 13 13 14 15
6 5 4 3 2 4 4 3 2 4 5 4 2 3 3 5 2 2 2 5 2 4 6 9 10 10 10 11 12 15 17 17 17 14 12 14 16 16 15 10 8 8 11 12 12 12 12 12 12 11 13 15 16 15
4 4 5 5 5 3 4 3 4 3 2 2 3 5 4 4 2 1 3 6 12 13 16 16 14 13 13 12 10 8 9 9 8 8 10 11 13 14 14 12 9 10 13 13 12 11 11 12 13 14 14 16 17 15
4 3 4 6 5 5 6 3 2 2 3 2 3 2 2 2 3 2 4 9 9 11 14 15 15 14 15 15 15 15 16 13 9 5 5 3 8 10 14 12 12 13 14 12 11 12 11 12 13 13 13 15 15 15
2 1 4 4 5 4 2 1 1 2 5 3 4 3 3 3 7 7 9 9 10 11 10 8 7 6 8 8 8 10 12 13 13 10 2 2 7 10 11 12 12 12 13 14 15 14 12 12 11 12 14 15 15 14
1 3 4 4 4 1 2 5 6 6 5 4 6 3 2 2 4 8 8 9 9 9 9 8 7 6 6 7 7 5 7 9 10 8 7 5 6 8 9 12 13 13 14 14 14 14 14 13 12 13 15 15 14 14
3 4 4 4 3 1 1 2 2 3 2 3 2 2 2 3 1 1 1 2 4 3 2 2 3 3 3 4 5 6 6 7 7 7 6 4 5 8 12 14 13 12 13 14 13 12 11 11 11 12 13 13 14 14
3 3 4 4 3 2 2 3 3 2 3 2 1 2 2 3 4 5 4 4 4 5 5 4 3 4 2 2 4 5 6 7 6 6 6 6 9 12 14 13 13 14 14 13 11 11 11 11 11 11 12 13 13 14

GFSWCAN_925_spd_033.txt.gz
Wind_Speed
32 22 23 22 22 15 12 11 22 42 40 49 46 49 45 36 61 40 28 28 17 6 10 6 16 16 18 17 16 16 14 9 10 11 8 6 6 9 11 16 10 7 8 6 10 12 14 7 9 14 14 12 6 7
16 20 20 17 12 6 4 5 22 38 47 46 45 48 42 47 55 27 26 24 10 2 3 5 2 5 10 28 17 12 14 17 9 9 6 5 4 2 12 10 17 9 9 6 8 6 8 14 16 16 16 10 7 10
18 12 12 11 13 15 20 21 27 36 41 43 44 43 40 59 40 26 24 29 11 3 2 4 6 7 8 11 12 8 13 12 17 11 5 4 4 7 6 11 8 8 8 7 9 9 13 9 15 13 11 12 10 8
13 4 10 11 14 18 25 26 33 36 39 38 38 36 51 59 28 23 25 22 17 4 2 5 5 4 5 14 14 14 13 21 6 8 6 4 4 8 7 9 8 7 7 10 17 19 17 11 11 16 12 9 9 8
11 10 10 14 17 20 26 30 34 38 37 37 41 48 55 45 27 22 19 17 20 7 5 6 6 10 6 11 15 16 15 11 9 8 5 5 7 5 3 4 11 10 14 9 9 12 10 13 11 14 14 15 12 12
24 14 15 17 20 22 26 31 34 36 40 44 46 51 47 40 36 24 4 8 5 7 0 3 4 7 17 18 17 15 14 9 10 9 7 7 11 9 5 10 17 15 15 15 12 4 5 12 9 14 11 11 12 13
26 28 19 19 22 24 26 27 34 38 46 51 47 47 43 38 28 6 2 10 13 6 1 2 3 4 14 12 12 11 14 11 6 9 9 6 8 4 7 11 10 11 15 16 13 2 7 9 7 6 7 6 6 10
26 30 37 39 40 41 41 42 42 49 48 51 44 37 29 29 18 8 9 17 16 5 2 2 3 3 10 4 7 10 10 11 7 5 5 8 6 4 6 9 14 19 16 8 5 6 8 4 3 3 3 4 7 9
25 31 35 38 40 38 43 51 53 52 49 44 39 34 21 7 3 6 16 8 3 1 4 3 3 3 4 3 3 4 8 8 5 8 9 6 6 6 3 9 8 13 6 8 2 4 5 6 4 4 6 9 10 10
23 26 32 34 35 37 37 37 43 44 42 39 23 5 4 5 19 24 5 4 3 2 2 3 3 4 3 2 1 3 1 3 6 6 7 8 9 11 16 13 11 11 9 7 7 6 5 7 7 7 8 7 8 9
23 24 26 31 33 36 37 38 39 38 21 3 3 3 20 21 4 1 2 4 4 4 3 4 8 6 3 3 3 3 3 4 5 4 6 6 4 11 18 15 14 13 10 8 9 7 6 5 6 7 7 8 11 13
25 25 25 28 30 32 34 36 27 8 5 4 11 12 7 3 4 4 5 2 4 3 2 2 3 3 2 3 3 4 3 1 4 2 4 3 4 13 13 13 13 13 12 11 11 7 9 9 6 9 10 12 16 22
22 25 25 28 29 31 27 10 8 12 2 6 4 4 2 1 2 2 3 1 2 1 2 2 1 1 0 4 3 1 2 3 1 3 3 4 12 12 10 8 9 11 11 14 15 18 20 19 21 20 14 21 24 22
25 26 27 28 33 23 11 9 4 13 6 3 3 3 4 4 6 6 5 4 2 3 3 2 2 3 2 3 2 4 3 2 3 3 4 8 13 12 9 8 9 12 13 14 14 13 14 16 15 22 22 21 23 22
29 27 27 25 19 13 11 5 11 10 7 6 5 6 7 5 6 6 4 3 4 4 3 1 2 3 4 4 4 1 3 5 6 4 6 9 11 10 11 11 11 12 12 14 14 15 17 21 22 24 27 28 28 26
29 22 17 20 14 6 3 7 11 6 3 4 8 5 9 3 7 8 6 4 6 4 2 2 2 3 5 3 5 7 4 6 4 4 8 9 11 11 12 13 13 14 15 17 22 23 25 25 24 25 30 30 28 27
11 5 14 16 13 11 5 5 7 6 5 4 4 8 7 6 6 6 7 6 4 3 2 3 5 6 3 4 4 5 4 5 6 7 7 11 12 12 13 13 17 20 21 23 24 25 25 24 26 26 22 24 25 25
10 19 16 18 19 15 9 7 4 5 6 5 3 6 6 6 8 7 6 7 2 2 3 4 4 6 6 4 4 4 5 7 7 8 9 11 13 18 19 16 21 23 23 24 24 24 23 22 21 18 20 18 20 19
20 21 13 10 6 4 3 4 4 4 5 3 8 6 4 5 9 8 6 7 8 7 4 4 7 5 5 5 6 6 6 7 7 8 10 19 20 18 20 22 23 25 26 24 24 22 23 25 21 19 17 17 17 15
21 15 14 7 6 4 4 3 3 5 4 3 2 8 10 9 9 10 10 9 8 4 7 6 5 6 5 6 6 5 6 6 7 8 9 10 17 20 21 19 18 19 20 22 22 20 20 21 21 20 18 17 16 15
20 15 14 11 7 11 4 3 4 3 4 3 3 6 7 9 14 14 13 11 11 6 6 7 8 8 14 14 14 14 15 14 9 8 8 8 15 17 18 18 19 20 19 18 17 18 19 18 16 15 15 16 15 13
8 9 3 5 4 4 4 8 3 2 3 4 4 4 5 8 9 9 10 10 7 9 7 8 8 8 10 13 17 19 18 20 19 18 17 16 8 13 15 16 17 17 18 17 16 15 16 15 13 14 14 13 12 13
5 3 4 4 4 4 3 4 4 4 3 3 3 4 4 4 5 5 5 6 5 9 13 13 15 17 17 18 19 20 18 17 16 16 16 16 16 16 16 17 16 15 14 15 14 13 13 13 14 13 12 12 11 11
6 5 5 4 5 4 2 4 3 3 4 4 4 4 4 4 4 5 5 4 5 9 9 9 7 8 13 14 11 14 14 14 15 16 14 13 13 14 14 14 14 14 12 11 11 11 12 12 12 12 12 12 12 12
5 7 5 8 4 4 4 3 4 4 4 4 3 4 3 2 3 3 3 3 4 5 5 8 9 9 7 7 12 14 14 13 12 12 14 11 9 8 9 11 13 14 13 12 12 12 11 11 11 11 11 11 11 10
7 9 5 4 3 4 3 3 4 4 3 3 4 3 1 3 3 4 3 3 4 5 6 6 5 5 7 11 8 10 11 9 9 12 13 13 12 10 8 8 7 10 13 11 10 10 10 10 10 10 10 10 10 10
5 6 4 3 3 5 5 5 5 5 4 3 3 2 2 3 3 3 4 5 4 7 6 8 9 10 9 10 10 10 10 12 12 10 8 10 11 11 10 9 8 7 8 8 8 8 9 9 9 9 9 9 9 9
5 5 5 4 6 6 4 4 4 4 4 3 1 4 3 3 3 3 4 8 9 9 9 9 9 9 8 8 7 6 6 5 5 5 5 7 9 9 8 6 6 7 6 6 6 7 7 7 8 8 8 8 8 8
5 3 4 6 6 6 7 5 4 4 4 3 2 3 3 3 3 9 10 9 8 8 8 8 8 8 8 8 8 7 7 6 4 2 2 2 1 5 6 5 6 6 6 6 6 6 7 7 7 6 6 7 7 8
4 2 4 6 5 6 5 5 6 6 8 6 5 6 7 8 5 5 7 6 5 6 6 6 5 3 3 2 3 4 6 6 6 4 3 2 3 3 4 5 6 6 6 6 7 7 6 6 6 5 6 7 7 7
2 3 5 6 5 6 7 9 11 9 7 6 9 8 7 4 5 4 5 5 6 7 6 6 4 3 2 2 2 0 1 3 4 4 3 1 2 3 5 6 6 6 6 7 7 7 7 7 7 7 7 8 8 8
4 5 4 5 4 4 1 2 3 3 3 4 3 3 3 3 3 4 3 4 4 4 3 2 2 3 3 3 3 3 3 2 2 2 2 2 3 5 6 7 7 7 7 8 8 8 8 8 8 9 9 9 10 10
7 8 8 5 3 3 2 2 2 3 2 2 3 2 2 2 2 3 3 2 1 3 4 3 3 4 3 3 1 0 2 2 3 2 3 4 7 9 9 7 7 8 8 9 8 9 9 9 10 10 11 11 12 12

GFSWCAN_925_spd_039.txt.gz
Wind_Speed
30 33 35 38 39 37 34 35 38 40 41 41 42 45 49 54 52 46 27 36 14 1 4 7 9 8 14 14 12 5 3 7 2 4 4 4 4 5 3 6 7 8 8 5 4 4 6 14 6 12 6 6 9 7
28 32 35 27 25 27 27 25 25 23 31 37 38 40 43 51 53 52 10 34 28 3 3 11 19 16 12 13 11 6 7 5 6 4 4 4 3 6 15 9 3 4 6 7 8 5 8 13 7 11 15 11 11 3
27 26 18 18 17 17 17 23 25 28 29 32 33 35 45 49 53 51 20 26 20 7 4 3 3 13 9 8 5 3 3 5 4 3 2 3 4 5 1 6 4 1 4 3 5 5 9 11 8 16 15 12 17 7
23 12 12 12 11 8 9 8 3 12 22 28 28 35 42 46 49 40 27 27 22 5 3 3 15 4 10 10 5 8 13 4 8 4 3 1 2 3 4 5 5 3 7 4 2 3 13 13 5 11 13 16 21 18
9 6 6 7 7 7 10 11 15 23 24 30 29 35 41 46 45 32 22 34 23 4 3 3 2 5 18 14 11 10 4 4 2 3 2 5 3 4 3 2 3 5 5 4 5 10 9 5 7 12 11 11 13 9
4 7 7 9 13 17 17 17 19 24 30 32 33 36 44 40 35 19 3 24 22 5 1 3 3 6 8 9 10 6 5 4 2 3 2 2 3 5 1 2 3 3 2 2 3 4 6 9 8 3 6 3 5 9
7 8 12 14 14 18 22 27 30 32 33 39 40 41 42 35 26 1 3 12 32 22 2 2 2 4 4 4 2 3 3 3 3 0 3 2 3 1 3 2 12 16 15 11 14 8 5 8 4 6 5 7 7 7
9 13 15 16 19 20 26 31 34 34 37 41 39 38 29 24 17 9 20 22 14 5 3 3 0 3 7 1 2 2 2 3 3 2 3 3 4 2 3 11 15 16 16 15 16 9 4 4 6 7 7 7 7 8
18 22 26 27 25 26 25 35 38 37 38 37 32 24 15 8 3 3 17 15 13 6 3 2 2 1 5 2 2 2 3 2 2 2 4 3 2 4 7 11 12 14 13 16 14 9 11 10 10 8 11 12 8 11
20 28 28 30 40 40 44 45 38 34 27 22 16 5 3 3 21 15 4 3 4 3 2 2 2 2 1 2 2 3 1 3 2 5 1 4 3 5 10 11 11 13 14 15 9 11 10 11 12 13 13 12 13 13
35 35 39 36 38 41 39 32 27 23 12 3 2 4 6 2 2 2 2 3 2 2 1 2 2 3 2 2 1 2 3 2 3 4 5 3 3 7 12 11 11 12 12 11 9 10 11 10 10 12 14 15 14 14
34 36 38 36 33 27 21 20 18 5 3 5 14 8 2 3 3 4 2 1 1 2 1 3 3 3 2 2 2 1 3 1 4 2 4 3 5 9 10 12 13 11 11 13 14 14 14 16 15 14 14 14 18 23
34 36 29 21 16 16 17 12 9 17 12 3 4 4 3 3 5 4 2 1 2 4 3 3 2 2 2 3 1 3 2 2 2 4 4 3 8 9 10 9 11 12 13 15 16 20 23 23 26 22 15 22 25 27
27 23 20 20 18 19 18 12 8 6 7 4 4 6 4 5 4 4 3 3 2 2 5 2 1 2 1 2 1 4 3 2 4 4 4 4 7 8 8 8 10 13 13 15 15 18 19 21 23 28 28 27 29 28
20 15 15 17 16 18 17 15 17 11 7 5 5 5 5 3 3 3 4 3 2 4 3 1 2 1 2 3 4 5 5 5 6 3 2 4 7 9 10 10 10 11 12 14 17 16 20 24 25 26 28 29 30 29
15 11 13 12 14 11 8 15 21 8 4 4 6 4 4 3 4 3 4 3 2 4 2 1 2 3 4 3 4 4 4 5 3 3 4 7 10 10 9 10 11 16 17 19 21 23 24 24 24 26 29 30 29 28
5 3 6 10 19 22 9 8 9 6 5 5 3 1 2 0 2 3 4 5 4 3 3 3 6 5 4 4 4 4 3 5 6 6 6 8 9 9 10 13 17 19 19 21 22 23 23 24 26 27 22 24 26 26
5 7 6 7 9 5 14 8 4 4 5 3 3 6 5 4 6 5 4 8 5 3 3 4 4 7 5 4 3 4 6 7 7 7 7 9 12 17 18 16 20 22 23 24 25 26 25 23 21 19 20 19 21 22
10 7 4 7 10 5 3 4 4 4 4 3 6 7 4 5 8 7 7 6 6 6 4 4 6 4 4 4 7 7 6 6 7 8 9 18 17 18 20 23 25 25 24 24 23 21 23 26 23 21 20 20 20 17
10 9 8 9 7 4 4 3 5 4 2 4 5 8 7 6 6 9 10 8 8 4 6 5 4 5 5 7 7 8 7 6 7 8 8 9 17 21 20 18 17 18 19 20 22 21 20 20 21 22 23 22 20 19
7 9 12 8 6 10 3 3 3 3 4 4 5 2 5 9 14 13 12 10 9 4 5 6 8 8 15 17 20 20 17 14 7 7 7 8 14 16 17 18 18 18 17 16 16 17 19 17 18 19 21 22 21 20
3 7 6 5 4 4 4 7 4 4 3 5 3 2 3 4 5 7 8 8 7 9 7 8 8 8 10 12 17 20 20 21 21 20 18 16 7 10 12 14 15 14 15 15 16 17 17 20 19 19 21 17 17 17
3 4 5 5 5 5 2 4 4 4 4 2 3 4 4 3 3 3 4 6 4 7 14 13 17 19 17 19 21 21 18 17 15 15 16 16 17 18 18 19 19 15 13 16 17 16 18 16 16 16 14 16 17 16
4 5 5 4 5 3 2 4 3 3 4 4 4 4 4 3 2 4 5 3 5 9 6 11 13 8 14 16 10 13 15 17 17 18 14 15 13 14 17 17 19 20 17 15 16 16 15 15 15 13 13 12 16 15
6 7 4 5 4 5 4 3 4 4 4 4 4 4 2 3 3 3 3 2 4 4 5 11 10 9 5 4 11 16 17 16 13 12 17 17 12 14 15 17 19 18 15 16 15 14 14 12 13 12 11 13 13 13
7 6 5 4 3 4 2 3 3 3 3 3 3 2 3 3 4 4 3 2 3 3 5 4 5 6 7 12 7 10 13 13 16 15 14 14 15 14 13 10 10 12 11 11 12 13 11 10 10 9 11 9 9 9
5 5 3 4 2 3 4 4 4 4 5 4 2 3 3 5 4 2 3 5 3 11 15 16 15 13 10 12 12 10 12 12 13 13 12 13 14 13 13 11 9 6 8 7 5 7 9 10 10 9 6 7 7 7
5 5 5 5 5 6 4 4 5 5 3 4 3 5 3 3 2 2 2 12 15 14 16 16 17 18 18 17 14 11 8 6 11 12 15 15 14 12 11 10 9 7 6 6 6 8 8 5 6 7 7 5 7 8
4 2 4 6 5 6 7 5 3 2 4 2 3 3 2 2 3 7 14 15 14 15 14 13 12 11 11 11 11 10 9 10 9 5 3 3 6 10 8 6 7 7 6 6 6 7 9 6 8 10 9 7 7 7
3 2 4 5 5 5 4 3 5 3 4 5 4 7 6 6 12 11 8 9 12 12 11 9 7 9 9 12 11 10 12 10 8 9 4 4 4 4 3 7 6 7 6 6 7 7 7 11 10 9 11 11 8 12
3 3 5 4 4 1 2 6 15 14 5 5 5 5 3 3 7 13 12 10 10 10 10 9 10 8 8 8 8 8 6 7 8 6 5 5 3 2 3 5 5 7 7 8 10 9 10 12 10 12 12 14 13 12
3 4 4 5 3 3 3 2 2 3 2 2 2 2 1 2 2 2 2 1 3 8 7 9 12 9 5 6 7 6 5 5 1 2 1 2 4 6 8 6 2 6 6 8 8 9 11 12 13 13 11 13 16 16
5 6 3 4 3 4 2 3 2 3 3 2 2 1 2 2 3 2 3 5 9 13 12 10 7 4 6 6 4 5 2 3 4 3 4 6 6 8 9 7 6 7 8 8 8 8 12 13 12 12 13 14 15 15

GFSWCAN_925_spd_042.txt.gz
Wind_Speed
24 25 28 31 34 36 40 42 42 40 38 37 39 41 44 47 45 40 29 36 20 3 5 5 11 6 11 15 12 4 3 3 2 7 4 4 4 6 4 7 7 8 8 5 5 4 10 2 11 5 6 4 13 15
27 27 28 32 35 31 30 30 32 35 37 37 40 42 45 46 50 46 12 36 26 4 2 6 15 19 13 20 13 7 6 6 6 4 4 2 2 1 6 3 4 4 7 5 9 7 4 1 1 6 5 5 4 10
26 28 29 24 22 23 24 24 26 30 34 35 33 41 45 46 48 50 25 29 22 4 1 4 8 19 20 20 29 6 3 5 5 4 4 4 4 5 3 6 6 4 5 4 3 8 11 4 3 8 6 5 6 8
26 22 14 14 16 14 15 17 19 23 27 32 30 35 43 45 47 46 25 31 23 3 3 5 16 9 18 22 17 16 8 5 4 3 3 3 3 5 5 5 5 5 7 6 5 6 3 10 7 7 8 3 3 8
10 8 7 7 8 7 9 5 2 3 11 25 26 30 35 40 44 32 27 35 28 7 5 2 3 9 20 22 14 11 7 4 3 2 3 5 3 3 2 3 2 4 3 4 6 8 4 7 9 7 4 3 1 5
3 4 3 5 7 8 4 7 8 15 17 21 22 28 37 40 40 30 4 26 37 13 3 4 3 5 10 20 13 7 5 2 3 3 3 3 4 5 3 3 7 7 9 12 6 15 7 8 5 6 6 7 4 5
5 9 7 8 10 13 15 17 17 18 22 24 33 35 41 44 37 5 5 10 34 11 3 3 2 2 2 4 2 2 3 2 3 2 2 2 2 5 3 3 10 12 13 10 14 13 5 9 5 8 7 6 6 6
11 10 11 12 17 21 23 22 24 25 30 38 39 43 41 31 20 2 1 28 41 6 2 3 1 2 6 1 2 4 3 2 2 2 1 2 1 3 4 9 12 11 13 9 16 12 7 6 11 12 11 10 12 13
18 15 15 19 24 24 26 29 32 34 37 38 33 27 21 4 2 7 31 30 33 6 3 3 3 2 3 1 1 2 3 2 2 3 2 1 4 4 6 9 12 13 10 12 13 10 11 12 11 13 13 15 13 13
20 20 21 26 27 28 32 34 30 28 25 14 6 3 3 4 15 12 5 2 1 3 3 2 2 2 2 1 1 2 1 3 3 4 4 3 3 6 9 9 9 11 10 11 7 8 12 11 13 14 14 11 12 11
31 32 34 35 32 27 26 22 19 14 5 3 3 3 3 3 2 2 2 2 1 2 2 1 2 4 1 3 2 2 2 1 2 2 3 3 2 7 10 11 10 10 9 9 8 8 9 10 10 10 12 13 13 15
34 29 25 22 18 17 15 11 6 7 5 6 12 6 4 4 3 5 2 2 3 2 3 2 1 2 2 2 2 2 2 1 2 2 4 3 3 8 9 9 11 11 11 13 14 13 13 14 14 13 13 13 17 21
26 21 19 18 15 12 6 6 12 12 5 4 5 4 3 4 9 4 2 2 2 3 4 3 2 1 2 1 1 2 3 2 3 4 3 3 6 7 8 8 11 11 14 15 16 19 22 22 23 21 16 20 24 25
22 20 21 19 17 13 6 4 3 4 8 4 4 6 4 5 4 3 2 2 2 2 4 2 1 1 1 2 0 4 3 4 4 3 3 3 7 8 8 8 10 12 14 15 14 17 18 20 22 25 24 24 26 25
16 23 25 21 13 15 11 14 11 10 7 5 5 5 4 2 2 3 3 2 2 3 2 1 2 2 3 3 5 4 4 5 4 2 2 4 7 7 9 9 10 12 12 12 16 15 19 21 22 23 25 26 27 26
12 8 19 24 13 8 6 16 21 7 4 4 6 4 3 3 4 3 4 3 3 4 1 1 3 3 4 3 5 5 3 4 3 3 4 6 10 10 10 10 10 15 18 18 19 20 22 22 22 24 28 28 28 27
7 3 6 12 22 13 7 8 8 6 4 5 3 2 2 1 3 5 4 5 4 2 3 3 5 5 3 4 4 4 3 5 6 7 7 10 10 10 11 14 18 21 21 21 20 21 21 21 23 24 21 23 26 27
4 3 6 9 4 12 22 9 4 5 6 4 3 6 3 3 4 3 6 7 4 3 2 4 3 7 4 3 3 3 6 8 8 8 9 10 13 17 17 16 19 19 19 19 20 21 21 20 19 16 17 19 21 22
7 5 5 7 6 6 3 5 6 5 5 2 3 5 3 3 8 6 5 6 6 5 3 3 6 4 3 5 9 8 7 7 8 8 9 16 17 16 17 18 19 20 20 19 19 19 20 21 18 17 17 18 18 17
10 10 7 3 1 4 5 3 6 5 3 2 2 8 7 6 7 8 10 8 6 4 6 5 4 3 6 8 8 8 7 7 8 8 7 8 14 17 16 15 14 15 17 18 19 18 17 20 22 22 22 20 19 16
3 9 7 5 5 9 4 3 4 3 5 4 4 5 6 9 14 14 11 8 8 4 5 5 7 9 16 17 18 17 14 12 6 6 7 7 12 14 15 16 16 16 15 14 14 15 17 15 14 20 21 22 22 21
5 6 3 6 4 4 5 7 4 4 4 4 2 2 2 4 6 10 7 9 5 6 4 6 7 8 10 12 16 19 19 21 19 18 17 15 6 9 11 14 13 12 14 15 17 18 17 17 18 18 18 18 17 17
3 4 5 6 5 5 1 1 4 2 4 2 3 4 4 4 4 5 4 5 4 6 12 12 17 20 18 20 21 20 17 17 14 14 15 15 17 17 17 16 15 13 11 12 16 17 15 15 15 15 17 17 16 16
5 5 4 3 5 2 2 4 3 3 4 3 3 4 2 3 2 3 4 2 4 7 6 9 12 9 14 16 9 12 13 17 16 15 13 14 12 12 15 16 19 16 14 14 14 15 15 13 13 14 14 16 16 16
6 8 5 6 4 5 5 4 4 4 4 3 4 3 1 3 3 3 2 1 3 3 3 11 12 10 5 3 9 13 12 16 13 11 13 12 15 14 14 16 17 16 12 14 14 13 13 12 11 11 12 11 11 11
7 5 5 3 3 4 2 4 4 3 3 4 3 2 3 4 5 3 2 1 1 2 1 4 6 4 5 8 5 8 10 11 15 15 12 11 8 11 10 8 7 10 11 8 8 10 10 9 9 9 8 8 7 6
5 5 4 4 2 3 4 4 3 5 4 3 1 3 4 5 2 1 1 2 2 8 14 14 15 13 9 11 14 13 11 11 14 16 15 16 14 11 8 10 9 6 8 6 5 5 5 4 5 4 3 3 3 5
3 4 5 5 6 5 5 4 4 3 2 3 3 5 4 4 2 1 2 14 18 18 18 17 16 16 16 13 10 10 13 13 15 16 17 15 12 11 9 8 7 4 4 2 4 6 6 5 4 5 6 4 2 5
4 2 4 6 5 5 5 3 2 2 3 1 4 2 2 2 1 6 15 18 14 16 19 18 16 15 15 13 11 9 7 17 14 3 2 1 2 5 4 3 3 4 2 1 2 4 3 5 6 5 5 5 7 7
3 2 4 4 5 5 4 3 2 3 3 4 4 7 5 6 10 15 17 16 14 13 11 12 13 10 12 11 12 12 10 7 3 7 5 4 4 6 1 2 3 4 3 4 5 6 3 4 5 6 5 6 6 6
3 3 5 4 4 1 2 4 15 13 4 5 5 4 3 2 8 14 13 14 14 14 14 14 12 10 10 9 7 7 5 6 5 5 5 5 4 2 2 5 5 5 3 4 6 5 5 6 7 8 8 7 8 10
3 4 4 5 2 1 2 2 2 3 2 3 3 2 3 3 2 3 5 4 5 8 9 8 9 6 4 4 4 3 4 5 3 1 0 1 3 5 6 5 4 4 5 7 7 5 5 5 6 6 7 8 10 11
4 5 4 4 3 1 3 3 3 3 4 3 2 2 1 3 3 2 3 4 5 10 10 9 6 5 5 4 4 5 4 4 4 3 3 4 4 7 4 3 4 4 4 5 3 4 7 9 10 10 10 11 12 14

GFSWCAN_925_spd_045.txt.gz
Wind_Speed
42 40 40 36 30 26 29 31 32 33 34 35 36 36 36 37 37 35 27 30 20 2 3 5 3 5 10 13 7 6 4 5 2 6 4 4 4 5 5 6 7 7 8 4 4 4 8 5 3 7 4 22 15 12
35 36 34 32 30 31 34 35 36 36 37 39 40 39 37 39 41 40 12 31 24 3 2 12 17 15 10 16 13 10 7 6 7 4 4 3 2 1 5 4 4 4 6 5 9 7 6 5 3 7 7 8 17 9
35 31 29 30 35 29 26 27 29 31 32 33 35 37 37 37 40 44 23 29 23 2 1 3 5 16 19 24 19 7 3 4 5 5 4 4 4 4 4 5 5 4 4 4 2 7 11 12 11 8 8 6 19 15
28 31 34 29 21 20 20 21 21 24 27 31 34 38 37 37 41 44 25 29 28 3 2 4 11 12 11 19 23 13 3 3 3 2 3 3 3 5 4 5 6 6 5 6 8 10 6 12 10 8 11 10 11 13
30 11 9 10 10 11 13 14 14 15 22 29 34 36 37 38 40 41 25 34 28 7 4 2 1 10 15 22 21 18 12 9 2 2 2 3 2 2 1 2 3 2 2 3 4 5 4 8 7 9 8 8 8 10
4 3 4 5 7 8 3 4 4 8 8 21 31 38 38 39 43 26 3 28 36 28 1 1 3 4 15 19 17 17 13 6 4 4 3 3 2 5 3 3 4 5 5 4 5 13 12 14 5 11 5 7 6 7
7 5 5 6 7 6 7 7 4 6 16 19 27 34 40 46 38 6 5 12 37 28 2 3 3 0 3 5 4 3 3 2 2 3 2 1 3 4 3 3 4 6 9 7 8 10 4 8 7 13 13 11 8 10
7 9 10 13 14 14 15 15 19 20 23 27 32 39 42 39 23 3 3 37 36 9 3 3 2 3 0 3 4 2 3 3 2 3 2 2 3 1 3 7 9 10 12 5 10 8 7 9 10 14 13 12 14 13
11 14 15 18 23 28 28 36 37 40 42 43 42 44 24 6 2 5 31 33 18 6 3 2 3 3 4 2 3 2 2 1 1 4 4 4 3 5 6 9 10 11 9 12 13 6 9 9 10 12 12 13 11 11
17 21 22 26 29 30 34 34 30 28 28 29 19 5 3 1 34 29 7 3 2 3 2 1 1 2 2 1 2 3 2 3 3 3 3 3 3 7 8 8 8 10 10 9 6 5 9 9 9 12 12 11 11 10
25 25 24 25 25 22 18 12 8 6 7 3 2 3 22 27 5 1 3 3 3 4 1 1 2 3 3 3 3 2 3 2 3 2 3 2 2 4 8 9 10 9 9 10 7 7 8 8 8 9 12 12 12 14
21 18 18 16 15 12 12 14 8 9 7 6 12 7 5 2 2 5 2 1 4 3 2 2 1 2 2 2 2 1 3 1 3 3 4 2 3 8 7 9 9 9 9 10 11 12 12 13 12 12 12 13 18 21
23 22 14 7 7 5 9 11 13 11 4 4 5 4 4 4 10 5 3 3 2 2 3 2 2 2 2 2 2 2 2 2 3 4 3 2 5 6 6 7 10 12 14 12 14 16 19 21 22 20 16 19 22 23
24 19 18 14 9 7 4 6 8 8 10 5 5 7 4 5 4 2 2 2 2 1 3 1 2 2 1 1 1 4 3 4 4 3 2 2 6 6 8 8 10 11 12 13 13 18 20 21 23 25 25 23 24 25
26 28 18 15 16 11 12 14 13 12 7 5 5 6 5 3 2 3 3 2 3 3 2 1 2 3 4 4 4 4 4 4 3 2 2 4 6 7 8 10 10 10 10 12 16 15 20 24 24 24 26 26 26 26
7 11 23 14 6 6 8 15 21 7 4 4 7 4 4 2 5 4 4 4 3 5 1 2 3 3 4 3 5 4 3 2 1 3 4 7 9 9 10 10 10 13 14 15 17 20 22 20 19 21 24 25 25 26
8 6 13 22 19 10 9 7 8 6 4 5 3 4 2 1 2 4 4 6 4 2 3 3 5 6 2 4 4 4 2 4 6 6 6 9 9 9 9 12 14 15 15 17 20 20 19 19 21 22 20 21 25 26
4 2 7 4 3 10 9 9 4 5 6 3 3 5 3 3 5 3 5 5 3 2 2 4 3 6 4 3 3 4 5 7 7 7 7 8 10 13 14 12 15 17 18 18 18 19 19 18 17 15 18 18 21 20
8 7 11 13 9 5 3 5 6 4 4 1 2 4 2 2 7 5 4 5 5 5 4 3 5 3 3 4 9 7 7 6 7 8 8 14 15 14 15 17 19 19 20 19 19 17 17 18 15 15 16 17 17 16
12 14 4 6 6 4 4 3 6 5 3 1 1 7 5 4 5 8 9 8 5 3 6 5 4 3 5 6 6 7 6 6 7 8 7 7 13 17 17 14 14 14 16 16 18 16 16 19 21 19 19 19 19 17
5 6 7 5 4 8 4 3 4 3 4 3 3 2 5 8 11 9 8 7 7 4 5 5 6 7 14 15 14 14 11 10 6 5 6 6 12 14 14 15 16 16 14 13 12 13 16 14 15 17 19 20 19 18
5 6 4 8 5 5 5 7 5 4 3 4 2 2 3 3 4 6 4 7 4 5 4 5 6 7 9 9 14 17 17 20 19 18 17 14 5 8 10 12 13 12 14 15 17 16 14 11 13 15 16 16 15 15
2 4 5 7 6 5 2 0 4 2 4 2 2 3 3 3 2 2 3 4 3 7 11 11 16 19 16 18 20 20 17 17 14 14 15 15 17 17 16 15 14 14 11 10 12 14 14 11 11 12 12 12 12 13
5 5 4 4 5 2 2 5 3 3 4 3 3 3 3 1 2 4 4 2 3 8 6 9 10 7 11 15 8 12 13 17 17 17 13 14 12 11 14 13 13 12 12 11 11 12 11 11 10 11 10 10 9 9
6 8 5 6 4 6 5 4 4 4 4 3 3 3 2 2 3 3 2 1 2 2 3 9 11 9 4 2 8 11 10 13 12 11 11 13 16 14 13 13 12 9 7 9 10 9 8 8 8 8 8 7 7 7
7 5 5 3 3 4 1 4 3 3 3 4 3 2 3 3 4 2 1 2 1 1 1 4 5 3 4 7 4 8 9 10 14 13 7 4 6 10 10 7 5 6 6 4 5 6 6 6 5 4 4 4 3 3
5 5 3 4 2 4 4 4 3 4 4 2 1 3 3 4 2 2 2 1 2 4 8 10 13 12 9 11 12 10 8 8 11 16 14 12 10 7 5 8 8 5 6 5 4 4 2 1 1 2 3 2 1 2
2 4 5 5 5 4 5 3 3 2 1 2 3 4 4 5 3 2 2 11 19 18 18 17 18 18 17 15 14 15 15 16 17 16 15 12 10 8 7 6 5 3 1 1 2 4 4 4 4 4 4 5 3 5
4 2 4 6 5 6 6 3 2 2 3 2 4 2 2 2 1 4 11 18 19 20 21 19 16 14 13 10 8 7 13 12 11 3 2 1 1 2 2 2 2 2 3 3 2 3 3 1 4 4 5 5 6 7
3 2 4 4 5 5 3 1 1 3 2 3 3 6 4 5 10 15 17 14 14 15 15 15 14 11 12 11 12 10 6 6 10 8 4 4 5 5 2 2 3 4 4 3 4 6 4 6 5 4 5 6 6 6
2 3 5 4 4 1 3 1 12 13 4 5 5 4 3 2 8 11 9 11 12 12 14 12 7 7 5 5 3 4 3 3 3 4 4 4 3 3 4 7 7 5 5 6 6 7 7 6 6 6 6 7 8 10
4 4 4 5 2 2 1 2 2 3 3 3 3 2 4 3 2 4 5 8 10 9 9 10 9 6 4 3 3 3 4 5 4 2 1 1 2 4 6 5 4 5 6 7 6 5 5 5 6 8 9 10 11 11
4 4 4 4 3 1 3 4 4 2 4 3 2 1 1 3 3 2 2 0 4 7 8 6 5 6 6 6 6 6 6 5 5 3 3 3 5 5 3 3 3 4 5 5 5 6 7 9 9 8 8 10 11 11

GFSWCAN_925_spd_048.txt.gz
Wind_Speed
46 45 43 41 43 40 38 36 32 25 32 36 36 34 31 28 30 33 23 35 23 2 4 6 11 8 6 7 4 4 5 3 2 6 3 4 3 4 3 4 6 6 6 4 4 4 8 6 2 6 7 4 4 7
41 40 40 38 36 39 35 30 28 27 28 29 30 31 32 32 32 31 8 22 25 2 0 14 16 25 14 19 12 10 7 6 7 3 3 2 2 1 6 3 1 3 6 6 8 7 4 5 5 5 3 7 5 5
28 30 33 35 34 31 31 34 37 35 35 34 34 34 33 33 36 39 22 26 20 3 1 3 6 20 19 17 12 5 3 5 4 4 4 4 4 4 4 5 4 3 5 4 2 5 12 9 7 4 6 12 11 8
26 29 31 33 34 36 36 28 25 25 27 29 30 33 36 37 35 37 27 26 23 2 1 4 10 5 25 30 27 17 5 1 2 2 2 3 3 4 4 4 5 5 5 4 10 7 8 11 5 12 13 10 12 8
31 27 22 19 15 17 18 19 20 22 24 26 30 32 33 36 35 34 24 31 30 6 2 2 3 15 17 21 25 21 12 5 2 1 1 3 1 2 2 2 2 0 2 3 4 4 2 7 8 14 10 14 17 10
6 5 8 8 8 12 13 12 12 16 19 23 28 32 34 34 34 25 3 24 32 22 2 1 4 3 16 23 14 10 10 3 4 3 3 3 2 2 2 2 5 5 3 5 5 10 9 13 12 12 11 13 14 13
8 8 7 6 3 1 3 6 10 13 16 24 32 32 33 33 36 6 3 14 33 24 2 1 3 3 8 6 4 5 6 3 4 3 4 2 1 4 2 2 6 6 8 9 8 11 4 10 6 11 13 13 12 12
7 10 11 6 7 8 4 2 8 9 7 21 32 34 35 37 20 5 3 35 36 8 2 2 3 2 5 4 4 4 4 4 3 2 3 3 2 1 2 5 7 9 11 5 9 10 9 5 6 10 10 10 11 11
13 15 19 30 29 34 33 27 27 16 30 34 38 40 26 7 3 8 32 30 13 4 3 2 2 3 2 2 3 2 2 2 0 2 3 2 2 2 4 6 7 9 8 10 13 11 6 5 7 9 10 14 11 11
19 20 21 28 28 29 31 34 37 44 39 36 25 4 3 8 45 27 6 2 2 1 0 2 1 3 2 1 3 4 2 3 3 3 4 3 2 6 6 6 7 8 8 9 7 5 9 8 8 10 13 9 10 10
19 20 21 18 17 18 17 17 20 22 12 6 2 4 30 24 6 2 3 3 3 3 2 2 4 2 2 2 3 1 3 2 3 2 3 3 2 2 4 6 7 7 6 8 7 7 8 8 8 10 12 11 12 15
18 14 12 12 17 19 23 23 14 10 6 12 17 12 7 5 4 3 2 2 1 2 1 1 2 1 2 2 3 0 3 2 3 2 3 2 2 5 5 7 8 8 9 10 12 10 10 11 11 12 11 10 16 19
14 12 10 8 12 14 17 19 11 21 22 10 7 5 3 4 8 3 2 2 2 3 3 2 2 1 2 3 3 2 3 3 3 3 2 2 4 6 6 7 8 9 12 12 12 16 19 21 21 22 17 19 20 22
18 19 16 14 15 15 12 7 7 8 8 4 4 6 4 4 3 3 2 1 2 2 3 2 2 2 2 3 3 4 2 3 4 3 2 2 5 6 6 6 8 9 10 12 12 16 18 20 21 24 23 21 23 22
16 21 16 15 13 18 18 14 15 12 7 5 5 5 4 2 2 3 3 1 3 4 2 1 3 3 4 4 3 3 4 4 2 2 2 3 6 6 7 6 7 8 9 10 14 14 17 19 21 22 23 22 23 24
9 8 24 20 15 9 6 12 19 7 4 4 7 4 3 2 5 4 3 2 3 4 1 2 3 4 5 3 5 3 3 2 2 2 3 6 8 8 8 8 8 13 15 16 18 19 20 20 20 21 25 25 25 25
9 5 11 12 14 24 14 8 9 6 4 5 3 3 1 1 2 3 3 4 3 2 3 2 5 4 3 3 3 3 2 1 5 5 5 7 8 8 8 11 13 15 16 17 19 18 18 16 18 20 19 19 21 22
5 6 10 10 7 9 9 10 4 5 7 3 3 5 3 2 4 2 5 5 3 2 2 3 2 5 3 3 2 3 4 6 6 6 6 8 10 13 14 13 15 15 16 16 16 16 15 14 15 14 16 15 18 18
4 7 10 12 7 6 4 6 6 5 3 1 2 2 2 2 6 5 4 4 6 5 4 3 5 3 2 2 7 7 6 5 6 6 7 14 15 14 15 16 17 17 17 15 14 13 13 15 13 14 14 15 14 14
14 7 6 6 6 4 4 3 6 5 3 1 2 4 4 4 5 6 8 6 4 3 6 5 4 3 4 5 5 6 6 6 7 7 6 6 12 15 14 13 12 11 12 12 14 13 14 16 18 17 17 17 19 16
3 7 7 13 6 11 4 3 4 3 3 3 1 1 3 5 10 8 7 7 7 4 4 5 6 7 14 15 16 15 13 11 5 4 4 5 10 13 13 13 13 14 11 11 11 13 16 13 14 16 18 18 16 15
4 4 3 5 5 4 4 7 5 4 3 3 1 3 3 3 4 5 3 6 4 5 4 4 6 7 9 9 13 16 16 19 17 17 15 11 4 7 9 11 13 12 14 14 14 13 11 10 11 12 14 14 13 13
2 3 5 6 6 5 3 1 3 2 4 2 2 3 3 3 2 2 3 4 3 7 8 8 12 17 16 16 18 17 14 16 13 13 14 14 16 16 15 13 12 14 11 10 10 10 10 8 7 9 9 9 9 10
5 5 5 4 4 2 2 4 3 3 3 3 3 3 3 1 2 4 3 3 2 5 5 8 9 7 11 14 7 11 12 17 17 16 13 13 11 10 12 12 11 10 8 8 8 8 8 7 6 6 5 5 5 5
6 7 4 5 3 6 5 4 4 4 4 3 3 3 1 2 3 3 2 1 2 2 3 7 10 8 4 2 6 11 9 12 12 9 8 11 14 12 11 10 9 7 5 5 6 5 6 5 4 4 4 3 2 1
7 5 5 3 3 4 1 4 3 3 3 3 2 1 2 3 4 2 2 3 1 2 2 3 5 4 4 7 3 6 7 8 11 10 6 3 4 5 8 6 3 5 4 3 2 2 3 2 1 0 1 1 0 1
5 5 4 4 2 4 4 3 3 4 4 3 1 2 3 4 2 1 1 1 2 4 7 7 10 12 9 10 10 8 6 5 9 13 12 10 8 6 4 5 6 4 4 3 3 2 0 1 1 2 4 4 4 4
3 4 5 5 5 4 5 3 4 3 1 2 3 4 4 4 2 0 1 7 18 16 15 15 15 15 15 14 15 16 16 15 16 15 13 12 10 9 8 7 5 3 2 1 1 3 3 2 4 6 7 8 6 6
4 3 4 6 6 6 6 3 1 2 3 2 3 2 2 2 2 3 7 16 17 19 19 16 14 13 12 9 6 6 11 10 4 4 3 2 2 1 2 2 2 3 4 3 3 4 6 3 6 6 7 7 7 7
3 2 4 4 5 5 3 1 1 2 2 2 3 4 3 4 9 13 14 13 13 15 15 14 14 10 11 9 10 7 4 6 8 6 3 3 3 4 1 2 4 6 6 5 6 7 6 6 8 8 8 9 9 9
2 3 4 4 4 1 2 2 10 11 4 5 4 4 3 1 6 9 7 10 13 14 15 12 8 5 4 4 2 4 2 2 4 5 5 5 4 1 3 6 6 5 4 5 8 9 9 7 7 8 8 9 10 12
4 4 4 5 2 2 2 3 2 3 3 3 3 2 3 3 3 4 4 7 8 8 5 6 3 4 2 2 3 4 5 6 5 4 3 3 3 4 5 4 4 5 5 6 6 5 6 7 9 10 10 10 11 12
3 4 4 4 3 1 2 4 4 2 4 3 2 1 1 3 3 2 1 1 5 3 7 6 6 7 7 7 7 7 7 6 5 4 3 4 6 5 5 5 6 6 7 7 7 7 9 9 8 8 9 10 10 11

GFSWCAN_925_spd_051.txt.gz
Wind_Speed
47 49 50 47 44 43 42 42 41 40 40 39 39 44 49 45 43 39 29 30 27 3 4 8 12 10 8 4 4 5 5 4 5 6 5 4 4 4 3 3 5 8 8 5 6 5 8 3 4 4 2 6 8 9
34 32 27 35 39 39 38 39 37 34 34 32 31 31 42 42 40 38 22 33 37 4 1 18 18 17 21 20 8 9 4 6 6 4 4 3 3 2 6 4 2 5 6 5 8 6 0 3 2 6 10 10 10 13
27 26 24 23 28 31 32 33 34 35 28 27 25 25 32 35 36 36 14 28 27 3 2 3 7 23 24 22 18 6 4 6 5 3 3 2 3 4 5 5 5 3 4 4 2 5 13 10 2 6 10 11 14 15
33 33 31 30 31 32 32 32 31 30 30 33 32 27 28 27 30 30 16 22 12 3 2 2 6 10 22 25 16 13 2 4 5 1 1 2 2 4 4 2 5 5 6 5 8 9 10 3 9 12 13 12 14 15
33 20 13 13 18 22 23 25 27 28 25 24 26 36 34 33 32 32 25 29 24 3 2 2 0 12 16 23 23 18 13 5 2 4 3 4 2 2 0 0 3 3 4 4 5 3 4 7 12 11 11 13 13 13
12 12 11 11 13 13 14 15 18 19 21 24 26 29 31 33 34 24 3 25 32 15 2 3 2 3 14 16 19 14 10 6 5 3 2 3 4 2 3 3 3 4 4 4 2 5 8 8 2 10 9 11 10 10
11 9 12 8 6 8 10 14 16 17 20 23 25 28 30 29 33 6 4 12 39 21 2 1 2 2 8 7 4 4 11 5 4 3 3 2 1 5 2 3 5 5 6 6 3 6 5 6 4 9 10 10 8 9
15 16 20 19 5 6 8 12 15 18 19 22 23 25 28 30 22 9 5 34 35 9 2 3 2 2 8 4 4 3 3 4 6 4 2 3 4 1 3 5 6 8 10 5 8 6 7 5 6 8 9 9 8 10
18 24 24 25 23 17 8 13 14 16 19 27 27 29 29 7 2 9 27 29 12 4 4 3 4 3 2 3 3 2 4 3 1 2 2 3 1 2 5 5 7 8 8 11 13 11 4 5 7 8 7 8 8 8
15 17 21 22 26 24 36 37 34 38 44 47 31 5 3 8 37 32 6 3 2 1 1 3 1 3 3 1 2 3 2 3 2 2 3 3 2 7 6 5 5 7 8 8 8 5 7 6 7 8 9 7 8 8
14 17 24 24 21 22 19 25 26 29 27 6 3 3 35 26 5 2 3 3 3 3 4 3 5 4 2 3 4 2 4 3 4 3 4 2 2 3 6 7 7 7 7 7 6 6 6 7 7 7 10 10 12 13
14 14 22 24 22 17 15 10 11 15 11 12 18 15 6 5 4 4 2 3 3 2 2 3 3 3 3 3 3 4 3 3 3 2 3 3 3 4 5 6 8 8 9 10 11 9 11 12 12 11 11 13 16 18
14 14 20 23 26 20 20 24 32 31 16 9 6 5 3 4 7 3 2 2 2 3 3 1 1 2 3 1 2 2 4 3 3 3 2 2 5 5 5 6 9 11 13 13 12 16 18 19 19 18 16 18 20 22
17 19 24 23 17 13 13 12 7 7 11 5 4 6 4 4 3 3 2 1 2 3 4 2 1 3 3 3 3 5 3 2 3 2 2 2 5 6 7 8 9 11 12 13 12 16 17 18 19 21 20 19 21 22
19 20 20 20 13 17 15 13 8 12 7 5 5 5 4 2 2 3 3 2 3 4 2 1 3 3 4 4 4 3 3 4 3 2 2 5 7 8 8 9 10 11 10 10 12 14 16 18 19 20 21 21 21 21
3 9 20 19 18 9 11 18 18 6 4 4 6 3 3 1 4 3 3 2 4 4 2 2 3 4 5 3 5 3 2 2 2 2 4 7 8 8 9 10 10 13 14 14 15 16 18 18 18 19 21 22 22 21
9 6 9 7 11 22 9 7 7 6 4 4 3 2 1 0 2 3 2 4 3 2 2 3 4 3 2 3 3 3 2 3 6 6 6 8 9 9 8 12 13 13 13 14 14 15 16 15 16 19 19 18 19 19
6 8 10 4 3 6 8 10 4 5 6 3 3 4 2 2 4 2 4 5 2 2 2 3 2 5 3 3 2 3 4 6 7 7 6 7 10 12 13 13 13 13 13 13 13 14 14 15 16 15 15 13 15 14
8 9 9 12 8 7 4 6 6 5 4 1 2 4 2 2 5 6 5 5 6 5 4 3 5 3 3 3 6 6 5 5 7 7 8 14 14 14 14 14 14 14 14 13 13 13 14 15 13 12 11 11 12 10
10 11 14 12 6 4 5 3 5 5 3 1 2 4 3 3 5 4 7 6 5 4 6 5 4 4 4 7 6 7 6 7 7 8 7 7 11 13 13 11 11 10 12 12 13 13 13 14 14 13 12 11 11 9
8 8 9 8 7 12 4 3 4 3 4 2 1 1 3 5 9 9 6 6 6 4 4 4 5 7 13 14 14 14 12 11 6 4 4 5 9 11 11 11 11 11 10 10 11 12 13 12 9 12 13 14 13 11
5 6 4 7 5 4 4 6 4 4 3 3 2 3 3 3 3 5 3 7 5 5 4 3 6 7 9 9 13 15 16 18 17 16 14 10 5 7 8 8 10 11 11 10 9 9 8 7 9 10 12 12 12 12
4 5 6 6 6 5 3 1 3 2 3 2 2 3 3 3 3 3 4 4 3 8 7 8 12 16 16 15 17 17 14 15 13 13 13 13 12 12 11 10 10 10 9 8 7 7 7 7 7 8 8 7 8 8
6 6 5 4 4 3 2 4 2 3 3 3 3 3 3 2 2 4 4 3 2 6 5 8 10 8 11 13 8 12 11 14 15 13 9 10 10 9 8 9 9 9 8 7 8 8 8 7 6 5 4 3 3 3
7 8 5 5 3 5 5 3 3 4 3 2 4 3 2 2 3 3 2 1 1 2 3 7 10 9 5 4 7 9 8 8 10 10 8 8 10 8 7 7 7 7 5 4 4 4 5 5 5 5 4 3 2 2
7 4 4 2 3 4 1 4 2 3 3 3 3 1 2 3 4 3 1 2 1 1 2 3 4 5 5 6 5 5 6 7 8 8 4 3 3 3 4 3 2 3 4 3 2 1 1 1 1 2 2 2 2 3
5 3 3 4 2 3 4 3 3 5 4 3 1 2 3 5 2 0 1 1 1 3 6 5 7 8 8 8 9 8 6 5 7 11 10 8 7 5 3 4 4 4 4 4 3 3 2 1 1 2 4 4 5 4
2 4 5 5 5 5 5 4 4 3 2 2 3 5 4 3 2 1 2 5 16 15 15 15 15 14 15 14 15 16 16 16 16 14 12 10 9 8 8 7 5 3 2 0 2 2 4 3 3 4 5 6 6 5
4 2 3 6 5 6 6 4 2 2 3 2 3 2 2 2 2 2 5 13 16 20 20 17 14 14 14 10 7 10 12 8 3 3 3 1 1 1 2 3 3 3 3 2 2 3 6 4 5 6 6 7 7 8
3 2 4 4 5 5 3 1 2 2 2 2 2 4 3 4 9 11 13 11 11 13 13 13 12 7 8 7 8 5 1 3 5 3 1 1 1 4 2 1 4 6 5 3 3 4 5 5 5 6 6 7 7 7
1 3 4 4 4 0 1 3 6 10 4 5 5 4 3 2 6 13 9 9 12 13 13 9 7 6 6 4 2 3 1 2 4 5 5 5 4 1 3 4 5 4 4 4 6 6 5 5 5 6 7 8 8 9
3 3 5 5 2 2 2 3 2 3 4 3 4 2 3 3 3 4 3 4 6 6 3 3 3 2 2 2 3 4 5 6 4 4 4 4 4 4 4 4 4 4 5 5 5 5 6 7 7 7 6 7 8 9
3 3 4 4 3 1 1 4 4 3 4 3 3 1 1 2 3 1 0 1 3 1 5 5 5 6 6 7 7 6 6 5 4 4 3 4 5 5 5 5 5 6 6 6 6 7 8 7 7 7 8 8 9 10

GFSWCAN_925_spd_054.txt.gz
Wind_Speed
42 43 45 46 45 44 47 45 41 38 37 36 35 36 37 37 37 35 31 28 27 5 10 11 21 15 11 9 8 4 5 4 3 6 5 4 4 5 5 3 9 10 9 8 11 6 7 5 3 4 7 8 13 15
43 45 44 32 32 30 30 42 41 40 38 38 38 37 38 39 40 39 26 31 29 6 4 25 28 25 21 22 8 5 3 6 7 7 6 4 4 2 8 6 11 7 7 6 7 7 3 2 3 9 9 9 12 13
41 38 32 32 29 25 22 31 36 37 37 37 37 35 33 38 41 46 34 27 24 10 3 7 12 24 23 23 21 4 4 5 5 5 2 4 5 6 6 9 9 8 8 7 5 8 10 6 4 6 8 8 10 11
38 36 34 30 28 28 26 25 30 32 33 31 32 32 31 33 39 49 39 29 29 2 4 5 16 19 26 23 24 23 9 8 2 3 5 4 4 5 6 8 8 9 7 10 12 13 11 10 3 8 9 9 10 11
34 21 19 19 15 14 25 30 30 29 29 29 26 24 27 25 32 38 31 29 35 7 3 4 5 24 19 24 24 21 14 9 3 3 2 3 5 4 4 3 8 10 11 8 8 5 0 5 7 7 9 9 10 11
16 17 14 14 14 15 15 18 25 28 29 29 28 32 27 24 35 22 3 20 31 13 3 5 3 6 21 18 19 14 10 7 4 3 2 4 8 2 4 8 4 4 3 6 4 6 7 10 7 6 9 9 8 8
12 15 10 10 11 13 16 17 17 20 22 24 21 22 36 32 32 5 3 14 35 10 1 1 3 3 11 12 6 4 11 6 5 2 3 2 3 5 3 6 5 3 5 6 7 7 6 10 4 8 9 8 5 5
13 14 14 6 4 10 11 14 20 21 22 21 26 29 34 37 25 7 2 28 33 6 3 2 2 3 10 5 5 5 4 4 2 1 2 4 4 2 2 4 3 6 8 3 7 6 7 9 3 5 6 6 4 5
15 13 15 15 14 7 13 21 20 21 24 26 28 29 33 11 5 8 12 38 15 3 4 4 5 4 6 5 5 5 4 3 3 4 3 5 3 2 5 3 4 7 7 9 11 8 4 4 4 5 6 6 3 7
20 15 15 24 32 21 15 26 26 26 28 34 25 5 4 8 40 32 4 2 2 2 2 3 2 4 3 5 7 5 4 4 3 1 3 1 3 7 5 4 4 5 6 8 8 3 6 4 5 7 8 7 8 8
21 16 19 18 25 30 29 23 30 41 35 7 2 2 32 27 6 2 3 2 2 3 4 3 7 5 4 3 4 4 4 4 4 2 3 4 3 3 5 5 5 5 5 5 4 4 5 6 5 6 9 9 11 13
18 20 23 26 22 23 25 33 34 20 6 9 16 18 8 3 2 3 4 3 4 4 4 4 4 3 3 2 3 4 4 4 3 4 4 5 4 4 4 6 7 7 8 7 8 8 11 12 12 11 11 12 15 16
15 15 15 22 26 32 26 34 40 44 33 12 5 4 0 3 3 2 6 3 4 2 1 2 3 3 2 3 2 4 4 2 5 2 2 3 4 4 4 5 7 8 9 12 12 15 17 17 17 16 15 16 17 18
18 17 16 15 19 21 17 19 20 8 8 5 4 5 4 3 4 3 2 2 3 1 2 2 2 1 1 2 1 3 2 3 4 4 3 4 5 5 6 6 7 10 10 11 12 16 18 18 18 18 18 17 19 20
19 23 18 15 13 13 11 11 10 10 6 5 5 5 5 3 3 3 3 1 3 3 3 2 3 1 2 4 3 3 3 3 3 3 3 5 7 7 8 8 9 9 9 9 13 15 17 17 18 19 19 19 19 18
3 7 18 12 11 13 14 13 16 7 5 4 6 3 3 2 5 4 5 3 4 4 2 1 2 3 5 3 3 3 2 3 3 4 6 7 8 9 9 9 10 13 14 15 15 17 17 17 18 18 18 19 18 18
7 5 5 4 16 9 6 7 7 6 4 4 4 4 3 3 3 4 4 5 5 3 2 2 4 5 1 3 3 4 3 6 8 7 6 9 10 9 9 12 13 14 14 15 16 16 16 15 14 15 16 16 16 16
5 4 4 5 4 8 6 8 5 5 7 6 4 5 4 4 5 4 4 5 3 2 2 4 2 4 4 2 3 5 6 7 8 8 8 9 12 13 13 13 13 13 14 14 14 14 12 12 12 12 11 11 12 12
6 7 5 8 5 6 4 5 6 5 6 3 4 4 3 3 6 6 6 6 8 7 4 3 5 4 3 3 8 8 7 7 8 8 9 14 13 13 13 13 13 14 13 12 11 12 12 12 10 8 7 6 8 7
12 15 14 8 5 4 5 4 4 5 4 3 3 7 4 3 5 5 7 7 7 4 6 5 4 5 5 7 7 8 8 8 8 8 7 7 10 11 11 10 11 11 11 12 11 9 9 10 10 9 8 7 7 8
6 8 7 5 6 11 4 3 4 4 4 3 2 3 4 7 8 7 7 5 7 4 4 4 6 7 13 13 13 13 11 8 5 5 7 6 8 9 10 10 9 9 9 8 8 9 9 9 8 8 8 9 9 8
4 5 3 7 5 4 4 7 5 5 3 5 3 3 4 6 6 6 6 7 4 5 4 5 6 7 9 11 13 14 14 16 16 16 14 11 5 7 8 7 7 8 8 8 7 7 7 6 6 7 7 8 7 7
3 4 5 5 5 5 4 1 3 2 3 3 2 3 3 3 3 2 4 4 4 7 8 9 13 15 16 15 16 16 13 13 13 12 12 11 11 9 9 8 8 7 7 7 5 5 5 5 5 5 5 4 4 5
6 6 5 4 4 4 2 3 3 3 3 3 3 3 3 3 2 4 4 3 3 5 6 8 10 8 12 13 9 12 12 12 13 12 9 7 8 8 7 7 7 7 6 5 5 5 5 4 3 3 2 2 2 1
5 7 4 6 3 4 4 3 2 3 3 3 3 3 3 1 3 3 3 2 2 3 3 6 8 8 7 6 9 9 7 7 8 9 8 7 7 6 5 5 5 4 3 2 3 3 4 3 3 3 3 2 2 2
7 6 5 3 3 3 2 4 3 3 3 3 4 2 1 3 4 4 3 4 4 3 4 4 5 5 5 7 6 7 7 6 5 7 6 5 4 2 2 1 1 3 3 3 1 1 1 0 1 1 2 2 3 3
4 5 4 4 2 3 5 4 4 5 4 3 2 2 2 4 3 2 4 3 3 4 5 5 5 7 8 9 8 7 6 6 8 8 6 6 5 4 3 2 2 2 2 3 3 2 1 0 1 1 3 3 3 4
4 5 4 5 5 6 4 4 4 3 3 2 2 4 3 3 3 2 3 5 9 8 9 10 10 10 10 10 10 10 10 10 10 8 7 7 6 6 6 5 4 2 1 1 1 1 2 3 3 3 3 4 4 4
5 3 3 6 5 6 7 4 3 3 3 1 3 3 3 3 3 4 7 8 8 10 10 10 10 10 9 7 7 7 6 3 2 2 2 1 1 1 1 2 1 2 2 1 2 2 4 3 3 4 5 5 5 5
4 3 4 5 5 6 5 4 3 3 3 3 4 7 6 5 8 8 9 8 7 8 8 8 7 4 5 5 5 3 1 2 2 2 2 2 2 2 1 1 3 4 3 2 2 4 4 4 4 5 5 5 5 5
2 3 5 6 5 6 6 8 12 11 7 8 9 10 7 4 5 9 7 7 8 9 8 6 5 5 4 3 2 2 2 3 4 4 4 3 2 1 3 4 4 3 3 3 3 3 3 3 3 4 5 5 5 5
3 4 5 5 5 4 1 1 3 3 3 3 3 2 2 3 3 2 2 3 4 4 4 4 3 3 2 4 4 5 5 5 4 3 3 3 3 3 3 3 3 4 4 4 3 3 4 4 4 4 4 5 6 6
7 9 7 6 4 6 4 3 3 4 3 2 2 2 2 2 3 3 2 3 3 3 4 5 7 7 7 7 7 6 5 4 3 2 2 3 4 4 5 5 5 5 5 4 4 5 5 5 5 5 6 7 8 8

GFSWCAN_925_spd_057.txt.gz
Wind_Speed
39 42 42 42 41 45 43 43 46 44 42 39 35 33 32 31 31 29 26 23 23 6 16 16 17 14 11 4 4 2 2 4 4 6 5 6 4 4 6 3 15 13 10 9 13 10 13 8 3 7 8 4 8 7
41 41 42 42 42 46 35 29 28 37 44 40 36 34 33 31 31 30 23 26 25 7 8 10 26 29 23 16 7 5 7 2 8 7 6 2 4 2 7 5 12 9 10 8 11 9 3 3 7 8 7 7 8 9
39 41 43 42 41 37 33 30 24 27 42 41 37 35 33 32 31 33 28 27 20 6 6 14 18 24 22 31 27 5 4 3 6 7 2 3 5 3 5 9 5 9 8 4 1 7 9 5 8 8 9 9 10 11
43 37 36 37 33 30 28 26 21 23 34 38 37 36 34 34 35 35 32 29 24 3 4 11 17 26 38 26 29 26 20 13 9 5 2 2 4 3 5 9 6 7 3 9 8 9 7 7 8 8 9 10 12 13
34 32 23 21 21 21 17 18 22 23 30 34 35 35 35 35 35 36 34 31 31 12 4 7 15 22 19 30 28 22 19 10 3 3 2 3 3 3 6 7 7 7 6 5 4 9 8 8 9 10 11 13 13 14
28 17 15 19 20 15 14 17 25 24 28 30 31 31 31 31 32 30 6 29 37 30 3 3 5 4 15 18 20 16 8 4 3 2 2 3 6 2 3 4 10 8 9 9 3 8 8 10 12 12 10 11 11 11
13 15 15 15 12 18 16 18 23 28 30 27 28 26 24 29 32 6 3 10 38 26 3 4 4 2 13 11 6 6 11 3 2 2 3 2 2 4 3 8 6 6 6 7 8 10 1 10 6 8 9 9 7 8
12 12 10 12 11 10 16 20 20 22 26 28 28 26 23 29 18 5 2 14 40 12 5 3 2 5 9 4 3 5 3 4 3 2 2 4 3 3 3 6 5 9 7 2 7 6 5 6 5 6 8 8 6 8
13 5 9 15 6 17 18 24 23 22 26 27 22 33 32 9 4 4 28 35 17 4 4 3 4 4 6 5 5 4 4 1 1 3 3 3 4 3 4 5 7 8 7 9 10 7 3 4 5 7 7 7 5 7
8 6 13 9 10 18 23 22 28 27 25 39 29 5 3 10 26 28 5 2 1 2 3 3 5 3 6 7 6 5 3 4 3 4 2 5 3 7 5 5 6 7 8 10 9 5 8 6 6 7 8 7 7 7
16 13 18 16 17 25 27 27 31 36 34 9 3 2 31 32 8 3 4 4 4 5 5 3 6 5 2 5 5 5 3 4 3 4 3 4 3 3 5 6 6 7 8 8 6 6 6 6 6 6 8 9 11 11
19 18 22 22 25 32 36 38 36 13 6 9 16 13 6 3 3 4 3 3 4 4 3 4 4 2 3 2 1 3 3 2 3 5 4 3 4 6 6 6 6 7 8 9 10 8 9 11 11 11 11 13 14 15
17 21 26 27 31 34 37 28 24 41 33 15 7 4 2 2 2 4 6 3 4 2 2 1 3 3 2 1 1 2 4 4 5 3 2 3 6 5 5 6 8 9 10 11 11 13 15 16 16 14 16 16 16 17
22 24 28 29 31 37 39 32 20 13 6 3 2 5 4 3 3 3 4 4 3 2 3 2 3 2 2 3 1 2 2 3 4 5 3 5 7 6 7 7 8 9 10 11 12 16 17 17 18 18 18 17 17 18
21 18 17 21 25 26 15 7 5 9 6 5 5 4 4 3 3 3 2 1 2 0 0 3 3 1 2 2 0 2 4 3 5 4 4 6 7 7 8 8 9 9 9 9 14 15 16 16 18 19 18 18 18 17
7 11 12 8 11 11 10 12 11 6 4 4 6 4 1 4 5 4 4 4 3 2 1 0 2 3 2 1 2 3 2 4 3 4 7 7 8 9 9 9 10 13 14 14 15 16 16 16 16 17 17 17 16 16
8 4 6 8 7 7 7 7 7 6 4 4 4 4 3 5 4 4 3 4 4 3 2 0 2 4 1 3 3 5 4 6 7 7 7 9 10 10 9 12 13 14 14 15 15 14 14 12 12 13 14 13 13 13
4 5 8 7 5 10 7 8 5 4 6 5 4 5 6 5 4 4 4 6 3 2 3 3 2 4 4 2 4 5 8 8 8 8 8 9 11 12 12 13 13 13 14 13 12 11 9 9 10 10 10 9 9 9
7 6 8 9 4 6 3 4 4 5 5 3 3 3 4 4 6 6 5 5 7 6 3 3 5 4 3 4 8 8 7 7 8 8 9 13 13 13 13 12 12 12 11 9 9 9 9 9 8 6 6 5 6 6
17 15 12 8 5 4 4 3 4 5 3 3 4 6 4 3 4 6 7 7 6 4 6 5 4 6 6 7 7 8 8 8 8 8 7 7 10 10 10 9 10 10 9 9 8 6 7 8 8 8 7 6 5 5
7 6 8 7 6 10 4 3 4 3 4 4 4 4 4 7 8 7 6 6 6 4 4 5 6 7 12 13 13 12 10 8 5 6 7 6 9 9 9 8 7 6 6 5 6 6 6 6 6 5 5 5 5 5
3 5 3 7 4 4 4 8 5 6 4 6 5 4 4 5 5 6 7 7 4 6 4 5 6 7 9 11 13 14 13 15 15 15 14 10 5 6 7 6 6 6 6 5 4 4 4 4 4 4 4 4 3 3
5 4 4 4 4 4 5 3 2 2 4 4 3 3 3 3 3 2 4 4 4 6 9 10 13 15 15 15 15 14 12 12 11 11 10 10 9 8 7 7 6 4 4 5 3 3 3 3 3 3 2 1 2 2
6 5 5 3 4 4 3 2 2 3 3 3 3 4 3 3 3 4 5 3 3 5 6 8 10 8 11 12 8 11 11 11 11 10 7 6 7 7 6 6 6 6 5 4 3 3 2 2 1 1 0 1 1 2
4 7 4 5 2 3 4 3 3 3 4 3 3 3 3 2 3 4 3 3 4 4 4 5 6 7 6 6 9 9 7 7 7 8 7 6 5 5 5 5 5 4 3 1 2 1 1 1 0 1 1 2 2 2
6 7 5 3 2 2 3 4 3 4 4 3 4 3 2 3 4 5 3 4 5 4 4 4 5 5 5 7 6 7 7 5 5 7 7 6 6 4 3 1 0 4 4 3 2 2 1 2 2 3 3 2 2 4
4 4 4 3 2 3 5 5 5 4 4 3 3 2 2 4 4 3 4 5 5 7 7 5 4 7 7 9 8 7 8 9 10 8 6 7 7 6 5 4 2 3 2 3 3 3 3 3 3 3 4 4 4 4
4 6 4 4 5 6 4 4 4 3 3 2 2 3 3 3 3 3 3 8 10 9 10 10 9 10 10 10 9 9 9 8 7 7 6 7 6 6 6 5 4 3 3 2 2 2 3 4 5 5 6 6 6 6
4 3 4 7 6 7 7 5 4 3 3 2 2 3 3 3 3 10 10 10 10 10 10 10 10 9 9 9 8 7 5 4 3 2 1 2 1 3 3 3 3 4 4 4 5 2 4 5 5 6 6 7 7 7
3 3 4 6 5 6 5 5 5 3 3 7 7 11 11 10 12 10 10 9 9 9 9 8 6 5 5 4 5 4 5 5 4 3 3 3 3 2 2 3 4 5 5 4 5 5 6 6 6 6 6 6 6 7
2 3 5 5 5 7 8 10 13 14 11 11 8 10 8 5 7 10 9 8 9 9 9 8 7 5 4 2 2 2 3 3 4 5 5 3 2 2 3 3 4 4 4 4 4 5 5 5 5 6 6 6 6 6
3 3 5 5 6 5 2 4 6 9 8 8 7 5 4 4 3 3 3 4 6 6 5 4 4 4 4 4 5 6 8 6 4 4 4 4 3 3 3 3 4 4 4 5 5 5 5 6 6 6 7 7 7 8
11 11 11 8 5 6 3 3 3 4 3 3 3 2 3 3 3 3 2 2 5 6 5 5 6 6 6 6 6 6 5 4 4 3 3 4 4 3 3 4 4 5 5 5 5 6 7 7 8 8 9 9 9 10

GFSWCAN_925_spd_060.txt.gz
Wind_Speed
32 33 36 39 39 39 39 39 39 39 39 42 38 35 33 31 28 26 23 21 15 4 12 14 14 12 9 6 4 3 3 1 3 4 4 6 5 6 7 7 6 13 10 8 10 9 12 3 4 5 10 13 10 9
35 37 37 38 39 40 41 41 41 39 38 41 43 38 35 33 31 27 19 22 22 5 7 14 18 25 22 23 3 3 4 2 3 4 6 3 5 3 5 3 4 3 9 7 9 8 5 6 14 12 12 12 7 9
37 36 37 41 42 40 41 40 39 39 31 27 41 41 36 34 31 30 24 20 19 6 8 12 15 25 20 20 19 4 3 3 4 2 4 4 5 2 2 4 1 4 14 10 2 8 8 12 9 14 11 12 10 11
36 37 38 39 37 35 34 31 30 29 25 23 38 40 37 34 30 29 26 21 15 3 4 9 17 20 26 24 16 19 15 16 8 4 3 3 2 5 3 5 6 3 4 4 7 3 9 15 6 14 15 13 12 12
36 36 38 40 28 23 22 21 19 15 19 23 39 38 36 33 30 28 23 23 23 10 2 4 17 21 17 15 22 24 14 10 5 2 3 3 2 1 3 3 5 3 3 2 4 7 12 9 13 14 13 12 10 12
33 38 33 23 24 24 21 17 14 18 19 27 36 36 34 32 29 19 4 24 27 22 3 3 3 7 12 23 20 14 10 5 2 1 3 4 4 2 2 1 9 8 12 15 5 9 11 13 15 15 13 13 11 14
31 31 19 21 20 16 14 13 16 21 24 30 34 34 32 31 30 8 4 3 34 21 2 3 4 3 13 11 7 5 7 2 2 2 3 3 3 2 2 1 5 9 11 11 12 14 7 17 9 13 12 12 15 17
22 15 22 17 15 15 12 17 21 26 26 30 30 31 30 29 25 14 19 4 33 10 2 3 3 3 6 4 3 4 3 3 4 3 3 3 2 2 2 5 9 12 10 13 13 10 9 8 10 12 13 11 11 11
14 20 16 15 17 14 15 22 24 30 28 28 26 23 16 10 6 9 17 27 18 5 5 4 3 2 7 4 4 5 4 2 2 3 4 2 2 2 4 7 9 10 9 11 11 10 10 11 11 12 12 12 10 10
10 9 13 14 9 19 20 25 26 27 33 31 23 4 3 7 33 32 7 2 2 2 3 4 3 3 4 4 5 4 3 3 4 4 2 3 3 5 6 7 7 8 10 11 10 10 10 10 8 11 11 10 9 10
5 6 6 10 18 23 26 27 31 33 35 8 3 2 25 32 6 2 4 4 4 4 5 5 7 4 3 4 3 3 2 2 3 4 5 6 3 3 6 8 9 9 9 9 9 9 9 9 9 10 11 12 14 15
9 10 11 21 25 24 33 37 44 19 8 10 17 16 7 2 1 3 5 4 6 5 3 5 4 3 2 1 1 2 3 2 2 6 3 4 3 6 6 8 8 8 9 10 13 10 13 15 14 13 13 14 16 17
19 22 24 27 32 41 43 36 21 27 36 15 5 3 3 3 5 4 5 4 4 2 1 1 3 2 2 2 1 2 1 2 1 3 3 3 7 7 7 8 9 11 12 13 12 15 17 19 18 17 16 16 17 17
26 35 33 31 26 30 37 39 25 14 1 3 2 4 3 3 4 4 4 4 3 3 3 4 3 2 0 2 1 2 2 2 2 3 4 6 9 9 9 8 9 10 11 11 13 16 17 17 17 17 18 17 17 16
23 29 31 30 30 25 22 16 11 8 6 4 5 4 4 3 4 2 1 2 3 1 1 3 3 1 2 2 1 1 2 1 5 4 4 6 8 8 9 9 8 8 7 8 13 13 14 15 15 17 16 16 16 16
18 21 17 13 15 13 11 7 10 7 4 4 6 3 2 5 5 5 5 6 4 2 1 1 2 2 2 1 1 4 5 4 3 5 7 8 9 8 9 9 9 12 12 12 13 14 14 14 14 15 16 16 15 14
11 4 9 9 12 12 8 6 7 6 4 4 3 5 4 6 6 4 5 3 3 3 2 2 3 4 1 2 3 5 4 6 7 7 7 9 9 9 8 11 11 12 12 12 13 13 12 11 11 12 13 12 12 11
7 15 17 12 7 7 5 6 4 4 6 5 4 6 6 6 6 5 4 6 4 2 2 3 0 4 4 3 4 5 7 8 8 8 7 8 10 12 12 12 12 12 12 11 10 9 9 9 10 9 8 7 8 7
12 10 10 8 6 5 3 5 6 4 5 4 4 4 4 4 6 6 5 5 8 6 3 3 5 3 3 4 8 7 7 7 7 7 8 13 13 12 13 12 12 11 10 9 9 9 9 11 9 6 4 3 6 7
19 18 14 7 4 4 4 3 4 4 3 3 3 5 4 4 4 6 7 7 7 4 5 4 4 6 7 7 7 7 7 7 7 7 7 6 8 8 9 9 9 9 9 8 7 5 6 7 7 7 8 9 7 7
11 7 7 6 6 9 4 3 4 4 4 4 4 4 4 7 8 7 6 6 6 4 4 5 7 7 11 11 11 10 9 9 5 6 7 6 9 9 8 7 5 6 6 6 5 5 7 6 5 5 6 6 5 6
4 4 5 7 4 4 4 7 5 5 3 5 3 3 4 4 4 5 5 6 4 4 3 5 6 7 8 9 12 13 14 16 15 15 13 9 5 6 7 6 6 6 6 6 6 6 6 7 7 4 4 4 5 6
5 3 4 3 4 4 5 9 1 4 4 4 4 3 3 3 2 3 4 3 3 5 9 10 12 14 14 14 14 13 12 12 11 10 10 10 9 7 7 7 6 4 5 6 5 5 6 2 3 3 1 2 1 3
5 5 4 3 4 4 3 1 3 3 4 3 3 4 3 3 4 4 4 3 3 7 6 9 11 8 10 11 7 10 10 10 11 9 7 7 7 7 7 7 7 6 6 4 4 4 4 3 2 3 3 4 2 5
3 6 3 5 2 3 4 3 2 3 4 5 3 4 3 2 3 3 3 3 4 5 4 5 6 8 6 6 9 8 9 7 8 8 8 6 5 6 5 5 6 5 5 3 3 3 3 3 2 4 4 4 6 7
6 7 5 3 2 2 3 4 3 5 4 3 3 4 2 2 3 5 3 6 6 5 4 5 5 6 6 8 6 8 7 5 7 8 7 7 7 6 4 2 4 7 6 5 6 5 1 0 3 3 6 2 1 2
4 4 4 3 3 2 4 5 6 4 4 3 3 3 3 3 4 3 5 9 6 9 9 8 7 10 9 10 10 8 8 9 12 9 7 7 8 8 9 9 7 6 4 4 4 5 6 4 4 3 5 5 5 3
4 5 4 4 5 6 4 4 3 3 3 1 3 3 2 3 3 3 4 13 14 12 11 12 13 12 11 10 9 8 7 7 8 8 8 9 9 8 8 6 8 4 3 4 3 2 3 4 6 6 6 6 6 6
4 4 4 6 6 6 7 5 3 3 4 2 3 3 3 3 7 12 14 13 12 12 12 11 11 10 10 10 9 9 7 6 4 3 2 3 6 6 5 4 4 4 4 5 4 2 2 4 5 6 6 7 8 8
3 3 4 6 5 5 5 4 4 3 6 8 7 10 10 12 13 11 10 10 11 11 10 9 8 8 7 7 7 8 8 7 7 7 5 5 6 3 3 4 4 5 5 5 5 5 6 5 6 7 8 7 8 8
3 3 4 5 5 5 8 10 14 12 9 9 8 9 8 4 9 15 13 11 11 10 9 9 9 7 6 5 5 3 6 5 6 6 6 4 3 3 3 3 4 4 5 5 5 6 6 7 7 8 8 8 8 9
2 3 5 5 5 5 3 5 6 8 7 8 7 7 5 4 3 3 3 4 6 7 6 7 8 8 7 7 8 8 9 7 5 4 4 3 3 3 3 4 5 5 5 5 6 6 7 8 8 9 10 10 10 10
11 11 11 7 5 6 3 3 3 4 4 3 3 3 4 3 4 3 3 6 10 9 9 9 8 8 8 8 7 6 5 4 3 4 4 3 4 3 3 3 4 4 6 6 6 7 8 8 9 10 11 11 12 12

GFSWCAN_925_spd_063.txt.gz
Wind_Speed
26 27 27 28 30 32 32 33 33 32 32 31 31 32 31 29 27 24 18 19 16 2 5 6 6 11 4 1 4 6 4 2 2 2 2 4 3 4 4 6 3 5 7 5 4 4 8 5 5 2 7 5 10 11
25 28 29 32 32 33 32 32 33 34 35 35 35 36 34 33 30 26 13 22 23 2 3 16 15 15 13 7 3 0 3 6 2 3 1 3 2 2 1 2 4 2 4 2 8 6 4 8 10 9 8 11 10 11
28 30 32 32 32 33 34 36 37 36 36 36 35 33 36 35 32 29 19 16 16 3 4 8 10 24 22 18 13 3 3 2 4 4 3 3 4 3 1 2 3 2 4 3 4 9 8 16 16 14 13 14 14 14
30 31 32 33 32 34 34 36 32 29 28 31 32 27 31 36 33 29 22 20 17 1 3 5 15 15 13 23 21 17 10 5 4 2 2 3 3 2 2 3 2 1 3 3 3 8 15 16 12 15 16 15 16 15
31 32 31 33 31 35 33 25 20 20 17 18 22 20 35 34 29 26 22 19 22 4 2 4 15 22 11 16 25 22 9 3 2 0 3 2 3 3 2 0 3 3 3 2 3 7 11 11 11 15 12 8 12 13
32 31 33 34 29 28 22 22 20 16 11 14 19 28 34 34 30 20 2 20 20 17 2 3 4 4 6 12 14 7 6 3 3 2 2 3 5 2 1 2 6 11 14 16 6 6 15 15 14 12 10 14 15 14
31 35 33 29 22 17 15 13 10 12 15 17 26 34 34 34 35 8 5 5 24 17 2 3 4 4 10 7 3 2 5 2 2 1 3 3 3 3 1 2 6 9 10 11 10 7 12 13 7 7 11 16 20 18
35 31 27 19 17 17 11 8 12 17 19 26 34 33 31 29 19 13 8 9 27 8 2 3 3 1 3 3 2 2 3 2 4 2 2 2 3 2 3 6 8 10 8 15 12 12 11 12 11 11 11 14 12 11
20 18 16 17 17 14 9 14 22 23 29 33 33 30 24 12 5 6 7 7 15 4 4 3 1 4 0 2 2 2 2 2 3 3 3 3 1 3 3 6 9 11 9 9 8 12 10 12 12 12 11 11 11 11
13 15 15 15 15 14 14 24 30 31 35 36 27 5 3 10 11 17 4 3 2 2 3 3 2 2 2 3 2 3 2 2 2 4 1 3 3 6 8 9 9 10 11 10 7 7 9 11 12 13 13 12 12 12
12 11 14 16 17 18 28 35 37 39 37 11 4 3 13 33 8 3 3 3 3 3 3 4 4 2 2 2 2 2 2 2 2 3 4 2 3 3 9 10 9 9 11 10 12 11 11 11 11 11 12 15 16 16
8 4 9 18 28 32 36 43 45 21 13 11 12 15 6 3 3 4 4 3 5 4 1 3 2 3 1 2 2 2 1 1 2 3 2 2 3 8 8 10 10 8 11 12 15 13 15 17 15 14 14 16 17 18
16 22 21 27 32 36 42 47 31 26 36 18 4 3 3 2 3 5 7 3 2 1 1 1 3 2 1 3 2 1 0 2 3 2 2 3 7 8 8 8 10 12 13 14 13 16 18 19 19 17 16 18 20 20
35 30 32 36 40 46 38 34 40 19 5 3 3 4 3 3 3 3 3 2 2 2 3 3 3 2 0 2 2 1 1 2 2 3 2 3 8 8 7 7 9 8 9 10 12 14 15 16 17 19 20 20 21 19
35 39 40 37 35 34 33 28 10 6 6 3 4 3 3 0 1 0 1 2 3 2 2 2 2 3 2 2 1 2 1 1 3 2 2 4 6 6 5 6 6 6 6 7 11 13 14 15 15 16 19 20 20 20
32 29 22 28 27 21 16 12 10 6 4 3 6 3 1 2 4 4 4 3 4 3 2 1 2 2 1 1 2 4 3 3 2 3 4 6 7 6 6 6 8 10 11 11 13 13 14 15 15 16 17 16 15 16
13 5 15 21 19 16 11 7 6 5 4 4 3 3 2 3 3 2 3 2 2 2 1 2 4 1 1 3 3 3 2 4 5 5 5 7 7 6 6 10 10 11 11 12 12 11 13 16 14 11 11 12 13 15
6 18 10 8 10 11 7 7 4 4 6 4 3 2 3 4 3 2 2 3 1 2 2 2 2 5 3 2 2 2 4 6 6 6 6 6 8 10 10 10 12 12 11 11 11 10 11 12 9 9 10 11 12 13
24 17 12 9 6 6 3 5 5 4 4 2 2 2 3 2 4 4 2 3 5 6 3 3 4 3 2 3 6 6 5 5 6 5 6 12 13 12 13 13 13 12 10 10 10 11 13 15 13 14 12 9 12 11
18 13 11 12 10 5 4 3 4 4 3 2 2 3 2 2 1 3 5 6 5 3 5 4 3 3 3 5 4 6 6 6 6 6 5 4 8 9 9 9 9 12 12 11 11 7 10 12 12 12 13 14 14 12
18 13 10 10 6 11 4 3 3 2 3 3 3 2 3 3 3 3 3 4 4 3 3 3 3 5 10 12 12 10 9 8 4 4 5 4 10 11 8 6 10 11 11 10 11 14 15 15 11 9 9 10 8 7
6 5 5 7 4 4 3 5 4 3 3 3 3 2 2 2 2 3 2 5 3 3 2 3 5 6 7 8 11 14 15 19 17 15 13 10 3 7 11 14 14 14 15 13 13 15 12 7 10 8 8 6 3 2
7 4 3 3 4 4 2 3 2 2 3 3 2 3 2 2 1 2 3 3 2 4 7 8 11 15 14 16 17 17 16 16 12 15 16 16 15 15 17 17 15 11 13 11 11 9 8 6 4 5 4 5 3 2
4 4 3 3 4 3 3 1 2 3 3 3 3 3 2 2 2 3 3 2 1 6 5 8 9 6 9 11 5 10 15 15 15 14 12 15 13 13 13 12 11 11 9 5 6 8 6 5 5 3 4 7 4 8
5 6 3 4 2 4 3 2 2 3 3 3 3 2 2 1 3 3 2 2 2 3 3 9 6 8 5 2 10 15 15 15 15 10 14 8 9 12 12 10 9 8 7 11 6 4 1 3 2 2 4 5 6 7
6 4 5 4 2 3 3 4 3 3 3 3 2 2 1 2 4 3 2 4 3 2 1 4 5 5 5 10 5 9 9 9 15 15 11 11 12 11 6 10 9 7 6 5 6 10 4 3 3 4 5 6 4 4
4 3 3 2 2 2 3 3 4 4 3 3 3 2 3 4 3 1 3 5 4 12 18 14 17 15 11 14 15 10 10 13 13 13 9 7 8 8 8 12 9 5 3 2 3 4 6 6 7 6 7 5 5 3
3 5 4 4 4 5 4 4 4 3 2 4 3 4 3 3 2 2 3 14 22 23 25 24 22 21 19 14 12 11 12 12 12 12 13 14 12 12 10 10 8 5 5 7 6 2 3 4 6 7 7 6 7 6
3 2 3 6 5 5 5 4 3 2 3 2 3 2 2 2 4 9 16 20 19 20 19 19 18 18 18 16 13 10 8 8 9 2 2 4 6 6 5 5 5 6 3 6 5 3 3 6 7 7 6 8 7 6
2 2 4 4 4 4 2 3 2 2 3 4 5 9 7 7 12 16 16 15 14 14 15 15 15 13 14 14 12 10 9 8 9 10 5 4 5 4 1 2 1 3 5 5 4 4 5 7 5 7 8 8 6 7
3 3 4 4 3 4 7 8 12 11 9 9 6 7 4 3 11 21 19 15 16 15 16 16 15 11 13 11 10 11 7 7 8 8 8 5 2 2 4 3 6 3 4 5 4 6 8 8 8 9 10 10 10 10
3 3 4 4 3 4 1 2 3 6 5 5 3 2 1 3 3 3 8 10 11 11 12 15 14 11 8 10 9 9 10 9 5 4 4 4 2 1 2 3 3 4 7 5 5 6 7 9 9 10 11 12 13 14
6 7 6 4 2 3 2 3 3 3 2 2 2 2 3 3 3 2 4 12 13 16 15 14 13 12 9 7 8 7 6 6 6 5 4 3 3 2 2 2 4 4 4 4 4 6 9 10 11 12 13 14 15 15

GFSWCAN_925_spd_066.txt.gz
Wind_Speed
23 20 21 23 22 21 21 22 25 25 26 26 26 26 26 25 22 21 16 20 14 2 4 3 2 3 0 4 1 4 5 4 2 1 2 2 3 4 2 4 3 5 4 3 3 3 8 11 7 5 4 3 9 12
20 22 24 21 23 23 23 26 27 25 25 26 28 29 28 27 26 25 12 20 23 4 4 7 14 17 21 18 2 1 3 2 2 1 1 2 2 2 2 2 4 3 4 2 6 4 6 13 11 12 10 11 8 9
21 21 22 23 24 24 26 27 27 28 29 30 32 32 33 34 31 30 20 20 16 2 4 6 8 28 28 29 19 3 2 3 1 1 2 2 3 1 1 2 3 4 1 3 3 6 9 12 15 17 14 14 14 12
22 23 24 24 25 26 27 28 27 29 32 33 31 33 34 33 35 32 22 22 16 2 2 5 9 8 12 18 22 22 8 4 3 2 2 2 3 2 2 2 1 2 1 3 2 10 11 12 12 14 13 14 16 17
22 24 25 25 26 25 25 28 28 27 24 20 24 20 25 29 29 28 23 22 23 5 2 3 12 18 20 19 18 18 7 3 2 1 2 2 2 3 2 1 4 4 3 2 2 5 9 8 9 9 12 13 14 14
23 25 27 27 26 26 26 24 23 24 19 15 13 15 15 30 35 25 2 20 18 21 2 3 4 3 3 5 15 8 6 3 2 1 2 2 3 3 2 2 5 3 5 5 4 10 11 9 11 11 13 12 12 17
25 27 28 26 26 25 24 19 17 13 12 11 14 19 35 39 35 6 5 5 33 14 2 3 4 3 3 2 2 3 4 2 3 2 3 2 2 2 2 2 4 8 10 6 9 5 8 7 6 13 13 14 18 20
28 27 28 28 25 23 14 10 11 13 18 19 26 33 37 31 23 2 3 6 33 7 2 2 3 3 2 2 3 3 3 2 3 2 2 2 2 2 3 6 7 6 7 12 11 12 11 11 12 11 13 11 12 10
30 29 30 25 22 20 14 14 19 20 26 34 36 37 27 7 2 4 5 23 15 4 3 2 2 3 3 3 2 2 2 2 3 4 3 3 2 3 4 8 8 9 5 4 9 9 11 12 10 9 8 8 10 10
31 20 13 16 15 13 14 28 29 36 41 42 35 7 2 8 12 13 5 4 2 2 2 3 3 3 3 1 2 3 3 3 3 5 2 2 3 9 10 9 7 8 7 6 5 6 7 8 8 8 9 9 9 9
15 16 14 17 19 20 33 38 44 48 42 16 3 2 9 23 7 2 3 3 2 4 3 3 5 3 3 1 2 2 3 2 2 3 2 2 3 4 8 9 8 7 9 9 9 9 8 8 7 8 9 11 12 13
19 20 20 20 23 24 46 47 52 24 17 12 11 19 13 3 2 4 3 2 4 4 3 3 3 3 0 2 1 2 2 1 2 1 2 1 3 7 8 9 9 9 11 10 12 12 13 13 13 13 12 13 13 14
11 16 23 30 27 51 50 52 31 25 28 12 4 3 3 3 5 5 7 3 2 2 1 1 2 2 1 1 1 1 1 1 4 3 2 2 7 6 7 7 9 11 13 13 13 14 15 16 15 14 14 14 17 17
21 27 33 41 53 53 53 36 32 25 5 3 3 4 2 2 1 1 1 1 1 1 3 3 2 2 0 2 1 2 1 2 1 2 3 1 5 6 6 6 8 6 8 10 11 13 15 15 15 18 18 17 19 17
32 35 39 47 51 53 39 36 19 6 4 3 3 2 1 2 0 2 0 2 3 2 2 2 3 3 2 2 1 3 2 2 2 3 2 2 4 6 6 6 6 7 6 8 12 13 14 15 14 17 17 17 16 15
43 39 32 42 41 39 29 16 6 4 4 3 6 3 2 3 3 3 3 2 4 3 2 2 2 3 2 2 3 2 1 2 2 2 2 5 4 4 5 5 8 10 11 11 12 13 15 14 14 16 15 14 14 15
23 9 28 36 33 23 10 6 5 5 3 4 2 2 2 3 2 2 3 3 3 1 2 3 4 1 1 3 2 2 2 3 4 3 2 3 5 5 6 9 10 11 10 11 11 11 13 15 16 12 11 11 12 14
23 25 22 22 23 14 6 6 4 4 5 3 3 3 2 2 1 3 3 4 2 2 2 2 3 4 2 3 2 1 2 4 3 3 4 4 8 10 10 9 11 10 9 9 9 10 10 7 5 6 9 10 10 10
23 18 15 13 6 6 3 4 5 4 2 1 1 1 2 1 1 1 2 3 3 4 3 3 4 2 1 1 4 3 2 2 5 3 4 11 12 12 12 12 11 10 11 10 10 11 13 12 10 7 8 8 9 11
21 20 16 10 5 5 4 3 5 4 3 2 2 3 2 2 1 3 6 5 3 3 5 4 1 1 2 0 2 3 4 5 7 6 4 5 10 11 10 10 10 13 12 10 10 13 13 13 11 10 11 10 10 7
15 11 9 9 7 10 4 2 3 2 3 3 2 2 1 2 3 3 3 4 4 3 2 2 1 4 10 12 13 13 10 9 3 3 5 4 11 11 9 8 9 7 11 13 13 13 12 10 9 7 6 6 5 6
10 6 4 7 4 4 3 3 4 3 3 2 2 2 2 2 2 2 2 5 2 2 2 2 2 5 6 6 9 12 15 18 16 15 14 12 3 6 8 12 15 13 12 12 13 12 10 9 7 6 5 3 2 2
7 4 4 4 5 4 1 2 3 2 3 3 2 3 2 2 1 1 3 2 1 4 6 7 9 15 14 17 19 17 17 18 12 13 15 17 19 18 18 13 14 16 14 11 8 6 6 4 3 4 5 3 1 1
4 4 3 3 4 3 3 2 2 3 2 2 2 3 2 2 2 3 3 2 0 2 4 8 12 8 11 11 4 10 14 19 17 17 18 18 13 14 14 15 12 10 7 8 7 5 4 4 4 4 4 5 5 4
5 6 3 3 2 4 3 2 2 3 2 2 3 1 1 2 3 2 2 2 3 2 2 8 9 8 5 2 8 13 13 19 16 10 10 11 17 16 14 13 11 10 5 6 4 4 2 3 1 1 1 2 3 4
5 3 3 1 2 4 3 4 3 4 3 3 1 1 2 3 3 2 2 3 3 3 4 5 7 4 3 8 5 9 10 13 14 13 8 7 7 15 14 11 6 5 5 4 2 5 5 3 2 2 3 3 3 3
4 2 2 3 2 2 3 3 3 4 3 3 2 2 3 4 2 1 2 2 2 5 17 21 18 13 10 12 12 9 9 10 8 12 10 9 8 6 6 12 8 4 2 2 2 2 1 1 2 2 3 3 3 2
3 3 4 4 4 4 4 4 3 2 0 3 3 4 4 6 3 1 2 10 23 25 24 21 20 20 19 18 16 16 16 15 16 16 15 14 12 11 9 8 7 3 1 2 3 4 3 5 5 5 5 5 6 5
3 1 4 5 5 5 4 2 1 1 2 1 4 2 2 1 1 5 11 20 25 28 22 21 22 22 21 17 14 12 12 13 13 3 2 1 2 5 3 2 2 2 1 2 2 1 5 4 4 6 7 7 8 9
1 2 4 3 4 4 2 1 0 3 1 3 3 5 4 5 12 19 19 18 19 20 20 23 22 19 17 14 13 10 8 6 5 5 6 5 6 7 3 2 3 2 1 2 3 2 4 6 4 3 4 4 5 8
3 3 4 3 3 1 5 8 14 10 4 5 4 6 3 3 11 18 16 16 19 19 18 16 13 12 12 12 12 11 8 5 5 5 6 7 5 2 1 2 2 0 3 5 2 2 4 7 7 7 8 8 9 10
3 3 4 4 2 4 1 3 3 3 2 3 3 3 3 3 3 4 8 8 15 17 17 16 16 12 9 8 6 4 3 10 7 5 4 3 2 1 1 1 2 4 4 2 2 3 4 6 7 8 10 11 11 12
4 4 4 4 3 1 3 3 3 4 2 2 1 2 2 3 3 2 4 7 14 17 15 12 12 12 10 8 8 9 8 7 6 4 3 2 1 1 3 4 4 4 4 4 3 5 6 8 9 10 12 12 13 15

GFSWCAN_925_spd_069.txt.gz
Wind_Speed
21 22 22 22 19 18 17 18 17 18 19 20 21 21 21 20 19 19 16 21 12 3 4 4 3 4 2 2 1 3 3 3 3 3 1 0 1 3 1 3 2 5 4 3 3 4 7 11 9 3 4 11 10 15
22 24 23 20 20 19 19 18 20 22 24 23 23 23 23 23 23 22 11 20 24 2 4 6 14 18 19 10 0 3 1 2 2 3 2 2 2 3 0 2 1 1 1 2 5 2 5 6 6 10 6 11 6 13
26 24 21 20 19 18 20 21 22 24 24 24 24 24 25 25 27 28 16 23 17 2 6 6 8 28 26 26 16 2 2 4 2 3 2 1 3 1 2 3 2 2 2 1 1 8 8 8 11 15 15 16 13 12
28 23 20 19 20 21 22 23 24 24 24 25 26 28 29 30 30 30 17 28 19 3 2 6 5 10 12 14 24 23 12 2 4 1 2 2 2 0 2 4 1 3 2 3 1 8 11 9 10 14 14 16 16 15
21 21 22 21 22 22 23 23 23 22 25 27 26 29 30 29 33 30 25 28 27 6 2 3 13 20 15 14 17 19 17 6 4 1 2 2 2 2 2 1 3 4 3 2 2 5 5 5 10 10 15 13 12 12
21 21 20 20 21 23 23 24 23 23 25 24 25 20 19 21 21 24 2 17 31 13 2 3 4 5 1 10 12 9 8 3 1 1 2 2 2 2 3 2 5 6 7 1 2 6 8 9 11 11 14 12 12 13
20 19 20 22 23 23 24 22 23 24 21 16 16 9 10 36 32 5 5 10 31 19 2 2 3 3 3 3 2 2 4 3 3 3 3 3 2 3 1 1 4 8 10 7 5 2 4 9 7 10 13 14 17 17
23 23 24 24 26 23 23 22 23 15 15 14 17 33 35 29 17 7 8 19 32 8 2 2 4 2 2 2 2 3 3 2 2 2 1 2 2 0 2 4 6 7 5 11 11 12 10 9 10 10 12 10 11 11
26 27 28 26 27 25 22 21 15 17 22 27 39 36 22 5 4 3 12 29 12 3 3 3 2 3 1 2 2 2 3 2 3 3 3 2 1 2 3 5 5 7 5 5 6 7 9 10 9 9 9 10 11 9
27 28 29 30 26 24 23 18 22 31 41 45 29 7 2 6 22 24 6 3 1 2 2 3 2 2 3 3 3 4 3 4 4 4 3 2 2 5 6 6 5 6 7 6 0 4 5 6 8 8 9 8 8 9
28 28 28 24 18 22 17 30 39 49 41 14 3 2 10 25 5 1 3 3 3 3 3 3 6 3 3 2 2 2 3 2 3 3 3 2 2 2 3 6 6 7 8 8 8 8 10 7 7 8 9 11 12 11
26 21 23 22 23 20 40 48 54 27 13 11 15 18 10 3 2 3 4 3 4 4 2 3 3 3 2 2 2 2 2 1 2 4 2 2 2 6 5 5 6 6 8 9 11 11 12 13 12 12 10 11 12 14
23 22 20 22 27 47 54 52 34 24 37 14 5 4 4 3 4 4 5 3 3 3 3 2 2 1 2 0 1 1 3 2 2 3 2 1 7 6 6 5 5 7 8 9 11 12 13 13 14 13 13 15 16 17
25 29 28 31 51 55 52 39 32 27 5 2 3 6 3 3 3 4 3 2 1 1 2 3 2 2 1 3 1 1 2 2 2 2 4 2 6 6 5 5 6 4 6 8 9 11 12 13 14 15 16 15 16 15
28 35 35 51 55 51 39 34 28 8 3 3 3 2 1 2 1 2 1 1 2 1 1 2 2 2 2 1 0 2 2 1 2 3 2 2 5 5 4 4 5 5 5 7 10 11 12 13 13 14 13 14 14 14
39 40 46 55 54 39 36 23 12 3 3 3 5 2 1 2 3 2 2 2 3 2 0 1 2 3 2 2 3 1 1 3 3 2 2 4 3 3 4 4 7 11 11 10 11 12 13 12 12 13 12 11 10 11
24 30 51 47 34 31 24 8 4 5 3 3 2 2 1 3 2 2 2 3 4 2 2 2 4 2 1 3 1 1 3 3 2 2 2 3 5 6 6 10 10 11 11 11 11 11 11 12 12 10 9 8 9 9
38 46 45 37 32 25 9 7 4 3 5 2 3 2 2 2 1 2 3 3 2 1 2 2 3 4 3 4 2 2 2 2 2 3 3 5 7 11 12 11 12 12 11 11 11 11 11 8 6 6 9 10 10 8
35 37 36 22 10 7 3 4 4 3 1 1 1 2 2 1 0 1 2 4 2 3 3 3 4 1 2 2 2 1 2 2 5 2 4 10 13 12 12 12 12 10 11 9 8 7 7 6 4 7 11 12 11 11
29 26 15 11 3 4 4 2 4 3 2 2 2 2 2 2 1 2 5 5 3 2 4 3 1 2 2 2 2 3 3 5 7 6 4 5 11 14 11 11 10 12 12 12 12 12 11 9 7 6 7 6 8 10
22 14 10 5 5 7 3 2 3 2 2 3 2 2 1 2 2 3 3 4 4 3 2 0 1 2 7 9 12 13 10 11 3 2 4 4 9 12 11 11 11 10 11 12 12 8 7 7 6 4 4 4 3 2
8 10 5 8 4 4 3 4 4 3 3 2 2 2 2 2 1 2 1 4 2 1 1 2 1 4 6 5 8 15 15 16 18 16 16 14 3 5 7 10 11 10 11 11 10 9 7 6 4 5 5 4 3 4
10 5 4 3 5 4 1 1 3 1 4 2 2 2 2 1 1 1 3 2 0 3 4 5 8 13 13 15 17 14 15 18 12 13 15 15 14 13 12 10 11 13 11 9 6 5 5 4 3 4 2 2 3 2
4 4 3 3 4 3 1 1 1 3 2 2 2 2 1 2 1 3 2 1 1 2 5 8 11 7 10 10 4 8 11 19 18 16 15 17 12 12 13 12 9 7 6 7 6 5 4 3 2 3 2 2 3 2
5 5 3 3 2 4 3 2 2 3 2 2 3 1 1 2 2 2 3 2 1 2 3 8 9 6 4 1 6 11 13 18 15 9 6 12 17 14 12 10 9 7 3 6 5 5 4 4 3 2 2 2 2 1
5 3 3 0 1 4 3 4 3 4 3 2 2 1 2 3 3 3 3 3 3 3 3 6 6 4 3 6 4 8 10 14 14 11 6 8 12 14 13 9 5 3 3 3 2 3 5 5 4 2 2 2 3 5
3 2 2 3 2 2 3 3 2 4 3 4 3 2 3 3 2 2 1 1 2 6 14 20 18 13 10 12 12 12 12 8 6 11 10 7 5 3 10 9 6 3 1 1 1 0 2 2 2 3 3 2 3 4
2 3 3 4 4 3 4 3 3 2 1 2 3 3 4 6 3 1 1 7 18 19 19 16 15 18 18 14 15 17 17 16 16 16 14 13 11 11 9 6 5 3 0 1 1 2 2 3 3 3 3 3 3 4
3 1 3 5 4 4 4 2 1 1 2 2 4 2 2 2 2 2 7 16 21 26 24 22 20 20 19 17 14 15 15 16 14 4 3 1 1 3 4 2 1 2 1 1 1 2 4 4 5 6 7 7 7 8
1 1 4 3 4 3 2 1 1 2 1 2 3 3 3 4 10 13 17 18 19 18 20 23 23 21 20 18 15 11 7 7 10 7 4 5 7 7 3 2 3 2 2 2 2 3 3 3 4 4 5 6 6 8
2 3 4 3 3 1 2 0 8 5 3 4 4 4 3 2 8 15 11 14 18 21 23 19 15 13 13 14 12 11 6 4 4 4 5 6 6 4 2 0 0 1 3 4 3 3 3 4 5 6 7 8 9 10
3 2 4 4 1 2 2 3 2 3 3 3 3 3 4 3 3 5 5 12 16 16 16 15 15 11 8 6 5 2 1 9 7 5 4 3 2 1 1 1 3 4 5 5 5 5 6 7 7 8 10 11 12 12
3 3 3 4 3 2 3 3 3 2 3 1 1 2 1 3 3 3 1 7 11 14 14 12 11 11 10 8 9 10 8 7 6 4 3 2 2 1 1 3 4 3 4 4 4 6 8 9 9 10 10 11 12 13

GFSWCAN_925_spd_075.txt.gz
Wind_Speed
22 20 19 18 16 17 17 16 15 15 14 12 12 11 10 11 12 19 10 20 11 3 4 6 4 5 1 1 1 4 6 2 2 4 4 4 5 4 2 2 0 2 5 3 5 5 6 10 3 2 5 5 7 11
25 22 20 17 16 18 18 17 15 15 13 12 12 12 12 12 14 19 5 17 22 2 4 5 13 21 17 12 4 1 3 5 3 3 3 4 3 4 4 1 3 1 2 1 4 1 5 7 7 7 9 7 7 9
20 22 22 17 16 17 18 15 17 15 14 14 13 14 13 14 16 20 11 17 12 2 5 6 10 18 21 28 21 3 2 2 2 2 2 3 3 2 2 2 3 2 6 2 4 5 10 9 10 11 11 11 11 11
21 21 25 17 17 18 17 15 17 15 15 14 14 15 15 15 16 21 21 21 17 2 2 6 6 9 7 14 23 25 14 1 1 2 3 3 2 2 2 3 2 3 6 5 0 8 9 12 10 9 11 12 13 13
22 23 22 20 17 18 17 18 17 15 15 15 15 16 16 17 17 17 22 27 29 8 3 3 7 9 12 15 17 19 15 7 4 2 2 2 2 3 2 2 3 4 4 2 2 5 7 7 9 10 12 12 11 12
20 21 22 22 21 20 19 18 16 14 15 16 16 17 17 18 17 15 2 20 31 19 2 2 4 2 1 6 10 9 8 3 2 2 3 3 3 1 3 0 4 6 9 9 3 11 14 11 11 11 12 12 12 13
22 20 19 19 21 20 19 17 15 15 16 16 16 17 17 19 21 6 4 3 32 25 2 1 3 1 1 4 2 2 6 2 3 2 3 2 2 2 2 0 5 6 9 9 5 9 8 6 6 9 12 14 16 17
21 20 19 20 20 18 17 16 15 15 15 16 17 19 21 10 12 4 0 18 25 8 3 2 3 2 3 2 2 2 3 2 3 2 1 2 2 2 1 4 5 6 7 10 12 13 13 11 10 10 11 10 11 11
20 19 19 20 18 18 16 15 14 15 14 14 19 26 14 4 3 5 22 23 7 2 4 3 2 2 1 1 2 2 3 3 1 3 3 2 1 2 3 4 6 7 4 2 8 10 11 11 9 9 10 9 11 10
21 20 20 19 18 18 16 15 15 14 14 32 9 4 2 6 31 27 3 1 3 1 1 3 2 2 3 2 4 3 1 2 3 4 2 3 1 5 6 7 6 7 8 6 4 6 6 7 8 9 10 9 10 10
20 21 20 18 18 17 16 14 13 20 33 5 3 2 26 22 3 1 3 2 1 2 3 4 6 3 3 3 2 3 3 3 3 3 5 3 2 3 7 8 8 8 10 10 10 9 9 8 8 9 9 12 12 12
20 21 20 19 19 17 15 12 28 13 8 10 18 13 6 2 1 3 4 3 4 4 3 4 4 3 2 3 3 4 4 5 3 5 3 2 2 7 7 7 8 8 9 9 10 10 12 12 11 13 12 13 13 14
22 22 21 21 20 19 17 15 28 15 38 24 5 4 3 1 3 5 6 4 3 3 3 4 4 3 3 4 3 4 2 2 2 1 1 1 5 5 6 6 7 7 8 10 11 11 12 13 13 14 15 13 14 15
22 21 21 21 22 21 22 20 29 30 3 3 4 5 4 3 4 4 3 3 2 2 2 1 2 2 1 1 1 1 0 1 2 2 2 3 7 6 6 4 6 5 7 10 11 12 13 14 14 16 18 17 17 15
23 22 21 22 23 22 32 44 36 8 3 2 3 4 4 1 0 2 2 1 1 1 1 2 3 0 1 2 1 1 1 1 1 1 2 4 6 6 6 6 7 6 5 7 9 11 12 12 13 13 12 13 14 15
22 17 17 18 39 49 46 32 11 2 4 3 4 2 1 2 0 0 1 1 3 2 2 1 2 2 1 1 1 1 2 2 1 2 3 5 4 4 5 5 8 11 12 11 12 12 13 13 12 12 13 12 12 12
27 5 37 52 49 46 27 10 4 4 3 3 2 2 2 2 2 1 2 2 5 1 1 2 3 1 1 2 1 1 2 1 2 2 2 3 6 6 7 10 11 12 12 11 11 10 11 11 11 9 10 7 8 8
24 50 55 50 37 25 8 8 4 3 4 2 2 1 2 2 1 1 2 2 2 1 1 2 2 2 2 3 2 2 2 2 2 3 4 4 7 10 10 11 11 11 10 9 9 9 8 5 5 5 6 7 7 6
50 51 44 37 22 10 3 3 2 3 2 2 2 2 2 1 1 1 2 2 2 3 3 2 3 1 2 2 2 2 3 2 4 3 3 8 11 11 11 10 9 8 7 7 5 4 3 3 3 1 3 4 3 3
41 39 36 25 13 5 4 2 3 3 2 2 2 2 2 1 1 2 3 4 2 2 4 3 1 1 2 1 2 4 3 6 7 7 6 5 9 12 10 10 8 7 6 6 5 5 4 5 6 6 3 1 3 4
30 22 22 12 6 8 3 2 3 2 3 2 2 1 1 1 2 3 3 3 3 2 1 1 1 1 1 2 7 11 9 10 4 3 6 6 8 9 8 8 8 6 6 6 6 4 4 4 3 3 4 5 4 2
11 15 7 7 4 4 3 4 3 3 2 2 2 2 2 2 1 1 1 3 2 0 1 2 2 4 6 5 7 11 14 12 13 13 13 13 4 5 6 7 7 5 5 5 4 4 3 2 1 2 2 2 2 3
12 8 6 5 4 4 1 2 3 1 3 2 1 2 2 1 0 0 2 1 1 1 2 5 7 10 13 13 15 12 11 14 10 10 11 10 9 9 8 6 6 8 6 4 4 4 3 1 1 1 1 2 2 3
7 5 3 2 3 1 1 2 2 3 2 2 2 2 1 2 1 2 1 0 1 0 4 8 11 7 10 9 4 6 9 15 14 13 11 12 10 6 8 8 7 5 4 6 4 3 2 1 1 1 1 2 3 4
4 4 2 3 1 4 3 1 2 2 2 2 3 0 2 1 2 1 2 2 1 2 3 7 6 5 4 3 6 7 12 14 13 10 6 9 12 10 7 6 5 3 3 3 2 3 4 3 3 3 3 4 5 6
4 2 2 3 2 3 4 4 3 4 3 2 2 1 2 2 2 3 2 3 2 3 4 6 5 5 3 5 5 7 9 11 13 9 6 8 7 7 6 4 3 1 1 1 2 3 4 5 4 4 5 6 7 7
4 1 2 2 1 3 3 2 2 3 3 4 3 2 2 2 4 2 1 2 2 5 13 17 16 11 10 11 13 13 13 10 5 7 8 7 5 5 4 4 5 3 3 1 1 1 1 1 2 3 5 6 6 7
2 2 4 0 3 3 4 2 2 2 2 1 3 2 5 4 3 0 1 1 12 18 16 12 11 17 20 18 17 18 16 14 15 14 13 11 9 8 6 5 5 3 1 0 0 1 1 1 2 3 5 6 6 7
2 1 3 4 3 3 3 2 2 0 1 1 3 2 2 1 2 2 1 10 18 22 20 19 17 19 20 18 14 11 17 17 13 4 3 2 2 3 5 4 3 2 2 1 1 1 2 3 3 6 6 6 7 8
1 1 4 3 3 1 2 2 1 1 1 2 2 2 2 2 6 4 7 12 15 15 17 20 22 20 20 18 16 13 12 6 3 3 3 2 3 8 7 2 0 1 1 0 1 2 3 4 5 6 6 7 7 8
1 3 3 3 2 2 2 1 1 1 2 2 2 3 2 2 4 10 6 7 13 18 21 18 14 14 16 17 15 11 5 4 2 3 4 6 9 8 5 4 3 2 3 3 2 1 3 4 5 7 8 9 9 11
3 2 4 3 1 1 2 2 1 2 2 2 2 2 2 2 2 3 3 8 15 15 15 16 17 13 11 10 8 6 5 11 10 9 8 7 7 6 5 3 2 2 2 3 3 3 4 6 7 8 9 9 10 12
2 2 2 3 2 1 2 3 3 2 3 2 2 1 1 2 3 2 3 6 9 13 16 14 14 14 12 9 9 13 12 10 9 8 7 6 5 4 3 3 3 3 3 4 5 6 7 7 8 9 10 11 12 13

GFSWCAN_925_spd_078.txt.gz
Wind_Speed
24 24 22 21 18 17 16 15 14 16 15 14 13 14 13 13 16 13 6 13 6 3 4 6 5 6 7 5 5 6 6 1 4 4 3 4 3 4 2 2 5 6 6 4 3 3 3 14 2 4 6 5 7 8
26 26 25 22 21 18 18 20 18 17 15 16 14 12 12 11 15 15 5 11 10 3 4 5 10 14 17 12 7 2 5 5 3 4 4 4 4 6 6 3 3 2 5 3 5 4 5 8 8 6 8 7 5 7
20 30 27 23 21 17 18 20 17 17 16 16 14 12 12 14 15 17 9 10 8 2 7 11 8 11 17 23 15 4 3 0 2 0 3 3 4 5 5 4 5 4 8 3 5 9 9 8 9 10 11 11 11 12
14 21 27 25 20 18 18 16 15 18 17 15 14 12 13 13 14 20 13 15 8 1 3 2 4 8 6 13 18 23 16 11 6 5 5 3 4 4 3 4 3 4 8 6 3 6 6 9 8 9 11 11 12 12
20 20 24 27 22 18 18 17 15 19 16 15 14 12 13 13 12 13 19 18 19 7 2 3 8 7 8 9 12 14 15 9 5 3 3 3 4 4 2 3 3 4 4 3 2 5 6 6 9 9 11 11 9 10
22 21 23 26 22 18 19 18 16 17 17 15 13 13 13 14 12 7 2 17 28 21 3 3 1 4 4 5 9 10 8 5 3 3 3 3 3 3 4 1 5 5 5 6 3 10 13 10 10 10 11 10 10 11
22 23 24 23 23 18 20 19 17 18 16 14 14 14 13 14 15 6 3 2 23 24 3 3 3 3 3 4 3 4 7 3 4 3 3 5 5 3 3 1 4 6 7 7 5 8 7 4 6 8 9 10 11 12
22 23 24 22 23 22 22 19 18 16 14 13 13 12 13 13 7 7 18 7 24 7 3 2 3 2 7 4 4 3 4 4 4 3 2 4 3 3 1 5 5 5 6 10 10 10 11 9 8 6 6 6 6 8
24 24 23 22 20 22 22 20 17 14 13 12 9 12 10 5 5 5 18 19 9 3 3 3 3 3 4 3 3 3 3 4 2 3 3 3 3 2 4 6 5 7 5 4 6 7 7 7 6 6 5 5 6 7
22 23 22 20 21 23 21 18 13 12 10 12 19 3 3 4 27 26 4 2 3 3 3 3 2 3 5 4 4 3 3 3 3 4 3 4 1 6 6 6 5 5 6 2 5 5 4 5 5 6 7 6 7 7
20 20 20 22 21 21 20 15 12 10 22 5 3 2 17 25 3 2 3 4 3 3 5 4 7 4 4 4 4 4 2 2 3 3 4 4 3 4 6 6 5 5 6 7 7 5 4 6 6 7 7 9 9 9
21 21 22 23 19 17 16 15 15 15 8 7 11 11 6 2 2 3 4 3 5 4 5 5 5 6 4 3 3 4 3 4 4 6 3 2 4 7 6 6 5 6 6 7 6 7 8 8 8 9 9 10 11 11
24 24 23 20 17 16 14 14 13 23 28 20 4 4 4 3 4 5 7 4 4 3 4 5 4 4 3 3 3 3 5 4 5 4 0 3 7 6 6 5 5 6 7 8 9 9 10 11 11 11 12 11 11 11
24 23 21 20 19 17 16 15 19 31 6 4 5 6 5 4 5 4 3 2 2 2 3 3 3 3 3 4 2 3 1 2 3 3 1 4 7 6 4 4 5 6 7 9 11 12 12 13 13 13 12 11 12 11
21 22 21 21 20 20 17 19 31 6 2 2 2 4 6 1 2 2 2 2 1 1 2 3 2 2 2 2 2 1 2 2 2 2 3 6 7 6 6 6 7 8 8 10 11 12 12 12 12 12 10 9 10 10
21 20 21 23 22 22 20 22 14 2 2 2 2 2 1 3 3 3 2 2 1 1 1 1 2 3 2 1 3 2 1 1 3 3 5 6 6 6 7 7 9 10 10 11 11 11 12 11 11 11 9 9 8 8
23 9 20 28 27 16 35 13 4 3 2 2 2 1 2 2 2 2 1 1 3 2 1 2 3 2 2 2 2 1 1 3 5 6 5 6 8 8 10 11 11 12 12 11 11 10 10 10 10 9 8 7 7 6
12 18 24 33 48 31 7 4 3 3 3 2 1 2 2 1 3 2 1 2 2 0 1 1 3 3 2 2 2 3 3 5 5 6 6 7 11 12 12 13 12 12 11 10 10 9 8 7 6 5 6 7 7 6
40 55 55 49 26 11 3 3 3 3 2 2 3 2 2 3 3 2 1 1 1 1 2 1 2 1 2 1 3 5 7 5 7 7 7 10 12 12 12 12 12 11 10 9 8 5 4 3 3 2 3 4 3 3
51 44 34 20 9 5 4 3 2 3 3 2 2 3 2 2 1 2 2 2 1 0 1 1 2 2 2 3 3 7 7 7 9 8 8 7 11 12 12 11 9 9 8 6 5 5 4 4 4 3 2 1 4 4
29 25 22 10 6 8 4 3 3 2 4 2 3 1 2 1 1 1 1 2 1 1 2 2 3 3 3 5 9 11 12 11 6 6 9 8 11 10 10 8 7 5 4 4 3 3 1 2 2 2 1 2 2 1
11 16 6 6 4 4 4 3 4 4 2 3 4 2 2 2 2 1 1 1 1 2 1 3 4 6 7 8 10 11 13 12 12 14 13 14 7 7 7 6 5 4 4 3 2 2 1 1 0 0 0 0 0 1
15 6 6 4 4 3 3 1 2 2 3 5 3 3 2 2 1 1 1 1 1 1 4 7 8 9 13 13 14 12 10 12 12 12 11 9 9 8 8 6 4 4 4 3 3 2 2 2 1 1 1 1 2 3
8 5 4 3 3 3 2 2 2 3 3 3 3 3 3 2 2 2 2 2 3 6 6 10 12 9 11 11 6 9 8 11 12 10 9 10 9 7 6 5 4 3 2 4 3 2 2 1 1 2 2 2 2 3
4 3 1 3 1 3 3 4 3 2 2 3 3 2 3 3 3 3 2 4 6 6 7 10 10 8 7 6 8 9 7 9 10 9 6 6 8 8 6 4 4 2 2 3 3 3 3 3 3 3 4 4 4 5
3 2 1 2 3 2 4 3 5 4 3 3 3 3 3 3 3 3 2 5 6 6 7 8 7 7 6 9 8 9 8 7 9 8 6 5 4 4 5 5 4 2 2 1 1 3 3 3 4 4 4 5 5 5
4 3 2 2 1 3 3 2 2 2 4 4 4 5 4 3 4 2 3 2 4 8 10 10 10 9 10 12 11 10 9 7 6 7 8 6 4 3 2 1 2 1 2 1 1 1 2 1 2 2 3 3 4 4
2 1 5 3 3 2 3 2 3 3 2 1 4 4 3 1 2 2 2 2 6 11 12 11 10 12 14 13 13 13 11 11 12 12 11 8 6 5 5 5 4 3 1 0 0 0 1 0 1 2 4 5 5 5
2 2 2 3 2 3 2 1 2 2 1 1 3 2 2 2 2 1 2 5 9 12 14 13 11 14 16 15 12 9 11 9 8 6 4 3 3 2 3 3 2 1 1 1 0 1 2 1 2 3 4 4 5 6
2 1 3 2 2 1 1 1 2 2 2 2 2 3 2 2 3 2 4 7 9 9 10 12 14 13 13 12 11 8 9 6 4 2 2 2 2 6 6 3 1 1 1 0 1 2 2 3 4 5 5 5 6 7
1 2 3 2 2 2 3 3 3 2 2 2 2 2 3 3 3 5 4 4 8 11 13 13 10 9 11 11 11 9 6 4 2 3 4 5 8 7 5 4 3 2 1 1 1 1 2 3 4 5 6 6 7 7
1 2 3 3 3 3 2 2 2 2 2 2 2 2 2 2 2 2 2 4 8 9 8 10 11 9 9 10 9 6 5 10 10 10 9 8 8 7 6 4 2 1 1 1 2 3 4 4 5 5 6 7 8 8
3 2 2 3 4 5 3 3 2 3 2 2 2 1 1 1 3 2 3 7 4 9 12 11 13 15 13 11 10 13 13 12 11 9 9 8 7 6 4 3 2 2 1 2 3 4 4 5 5 6 6 8 9 10

GFSWCAN_925_spd_081.txt.gz
Wind_Speed
20 23 25 24 21 20 19 19 18 17 16 16 15 13 11 10 10 8 2 6 2 2 3 4 4 5 4 4 4 7 6 3 4 4 4 4 4 3 4 3 7 6 4 4 5 3 3 19 5 6 6 5 9 10
20 26 26 22 20 18 20 19 16 16 16 16 14 12 12 11 12 11 2 6 5 4 4 5 8 11 11 12 8 4 5 4 3 4 5 4 5 5 8 2 4 2 4 3 6 4 10 12 10 9 9 8 9 9
18 23 27 25 23 20 20 19 17 17 15 14 14 13 11 10 13 14 4 7 4 3 7 9 6 6 10 12 12 5 4 3 3 2 4 3 5 7 6 4 4 3 12 4 3 7 10 10 9 10 10 10 10 10
14 23 25 27 23 23 21 19 18 17 16 16 14 12 11 11 12 13 10 8 8 4 3 0 1 5 5 9 11 17 14 13 10 6 5 4 5 6 5 7 4 5 7 8 4 5 5 10 9 8 10 10 11 11
15 16 23 29 24 20 18 18 19 17 18 16 15 13 11 11 11 12 14 10 11 8 3 4 6 12 6 7 8 11 12 9 7 3 3 4 4 5 4 4 5 6 4 4 3 7 5 7 8 10 9 10 9 11
16 15 20 30 26 21 21 19 18 17 19 15 15 13 11 11 11 7 2 13 22 11 3 3 4 5 9 8 10 11 8 4 2 2 3 4 7 4 4 2 5 7 7 6 2 8 11 8 9 8 9 10 11 11
19 20 18 29 26 22 20 21 19 17 18 16 14 11 11 11 12 6 1 4 10 16 2 3 4 4 8 8 6 4 4 3 4 3 5 6 7 3 3 2 5 8 7 4 1 3 7 7 5 6 9 10 12 13
22 26 25 27 28 22 21 20 18 16 16 14 11 11 10 8 9 10 17 10 17 5 3 3 3 3 9 5 4 3 4 4 4 4 3 4 5 3 1 4 4 5 4 7 8 7 9 6 5 5 6 6 7 8
22 26 25 27 26 24 19 20 18 18 14 12 11 9 4 6 5 4 7 13 18 5 3 3 3 2 3 4 2 4 4 4 3 4 3 3 2 2 4 5 5 5 3 3 4 4 5 6 5 5 5 6 7 8
23 26 27 25 22 22 22 22 21 18 14 13 9 5 3 6 17 19 5 3 3 4 3 4 5 2 4 4 3 2 4 3 3 5 2 3 0 7 5 5 4 4 3 4 2 1 2 3 4 6 7 6 7 8
25 25 25 23 21 22 25 24 21 17 13 8 5 1 15 24 9 4 3 5 5 3 5 5 7 5 5 4 4 4 2 2 3 4 4 4 3 4 5 5 4 4 5 6 6 6 7 5 4 5 7 9 10 12
25 25 24 22 21 24 24 23 20 16 9 9 8 10 7 4 3 3 4 3 5 4 5 6 6 6 3 3 3 3 3 3 5 4 3 2 4 8 7 5 4 5 6 7 8 7 8 8 8 8 9 10 11 11
23 22 23 25 24 24 24 21 20 14 13 11 3 4 3 3 5 5 7 4 4 4 4 4 4 3 2 3 3 2 3 5 4 3 1 3 7 6 6 6 6 6 6 7 8 8 10 11 12 11 11 10 10 11
24 24 25 27 25 21 20 19 19 20 6 3 4 6 5 5 5 4 3 3 3 3 6 7 4 3 2 4 2 4 2 3 3 3 3 4 7 7 6 4 6 6 7 9 10 11 11 11 12 12 11 10 10 9
26 26 26 24 21 21 19 26 20 18 5 4 4 4 6 2 2 3 2 3 2 2 2 2 3 3 3 3 3 3 3 3 1 3 3 7 9 7 5 6 7 7 8 10 11 11 12 11 11 11 9 9 9 8
28 23 21 22 23 20 21 17 6 3 1 1 1 2 1 3 3 3 2 2 1 1 1 1 2 3 4 2 3 3 3 1 3 4 6 8 8 7 7 7 9 10 11 11 11 11 10 9 9 9 8 7 7 6
27 12 23 24 23 21 19 7 3 2 2 2 2 0 3 2 2 3 0 2 1 1 2 2 3 1 2 2 2 1 2 3 5 6 5 8 9 9 10 12 12 11 11 11 10 9 8 8 7 6 5 5 4 4
17 15 26 27 28 18 4 1 2 2 2 2 2 3 1 1 2 3 1 1 1 1 2 1 0 3 3 2 2 3 4 5 6 6 6 8 11 13 12 13 11 11 10 9 9 8 7 5 4 3 3 3 3 2
19 21 30 28 24 7 3 2 2 2 2 2 3 3 1 2 1 1 2 3 2 3 2 2 2 2 2 2 4 6 7 7 7 7 7 12 12 12 13 12 10 9 10 9 8 5 4 2 3 1 1 4 6 3
20 18 30 34 13 3 4 2 1 2 2 3 3 3 2 2 2 1 1 1 2 2 2 2 2 2 2 3 3 7 7 8 8 8 8 8 12 12 13 12 10 10 8 6 4 3 4 3 1 2 3 4 6 5
37 35 29 16 2 4 3 3 3 2 4 3 3 4 2 3 2 2 2 1 2 1 2 1 3 4 4 6 10 11 11 11 7 7 9 8 14 12 11 9 9 7 6 6 5 3 2 2 1 1 2 1 2 3
16 21 8 4 3 3 3 3 3 5 2 3 4 3 2 2 3 2 0 2 1 2 1 3 5 7 7 8 10 12 11 11 12 15 16 16 6 9 9 8 7 5 4 2 1 1 1 0 1 1 2 2 3 3
13 6 4 3 4 3 3 1 2 2 3 5 4 3 2 3 1 2 2 1 2 1 4 7 9 10 13 13 14 13 12 13 13 13 13 11 9 9 8 6 4 4 3 2 0 1 1 1 1 2 2 3 4 5
5 4 3 3 3 4 3 2 2 3 3 3 4 3 3 3 3 3 3 3 3 6 6 10 12 9 12 13 8 11 10 11 13 11 10 11 9 7 6 5 3 2 1 2 2 1 1 2 2 4 4 5 6 6
2 3 1 3 2 4 4 5 4 3 3 4 4 3 3 3 3 3 3 4 6 6 7 11 10 8 8 7 10 10 8 11 11 10 7 7 8 7 6 5 4 3 2 2 2 3 3 3 5 6 6 6 7 8
2 2 1 2 3 3 4 4 6 4 3 4 4 3 3 3 3 3 2 4 5 7 7 7 7 6 7 12 9 11 10 8 11 10 8 6 5 4 5 5 4 4 1 0 2 4 5 5 5 5 6 6 5 5
4 3 2 1 1 3 3 1 3 3 5 4 4 5 4 4 4 3 2 3 4 10 11 10 11 11 11 14 14 13 10 8 8 10 10 8 6 5 3 1 1 4 2 1 1 2 3 3 3 3 4 4 5 5
2 2 4 4 2 0 3 3 4 5 3 1 4 5 3 2 2 2 3 2 6 12 12 10 10 14 15 14 14 14 12 12 13 13 11 10 7 6 6 5 5 5 3 2 1 1 1 1 2 3 4 5 6 6
2 2 4 3 2 2 1 2 2 2 2 2 2 2 2 2 2 2 4 7 9 13 13 13 13 15 16 15 12 11 12 10 9 8 5 4 5 4 4 4 3 3 2 1 2 2 1 1 2 2 4 5 6 7
3 2 2 2 3 3 2 2 2 2 1 3 2 3 3 3 2 1 5 7 9 11 12 13 15 14 15 14 13 10 7 6 4 4 3 3 4 7 6 4 3 2 2 2 1 1 3 3 4 5 5 7 7 8
3 3 3 2 2 2 3 3 4 4 2 2 0 0 4 3 4 3 4 5 9 12 14 14 12 12 12 12 11 11 8 4 6 7 8 9 9 7 6 5 4 3 3 2 2 2 3 4 5 6 7 7 8 8
2 2 3 3 3 4 4 4 3 3 3 4 3 3 4 4 3 3 2 4 9 11 11 13 13 12 10 10 9 9 11 12 10 10 9 9 8 7 6 5 4 3 2 2 2 3 4 4 5 6 8 8 9 10
3 3 3 4 4 5 4 3 3 3 3 4 4 5 2 1 3 3 3 2 1 11 13 13 13 13 13 12 12 13 13 12 12 11 11 10 10 8 6 5 3 3 2 2 3 4 5 6 6 7 8 9 11 12

GFSWCAN_925_spd_084.txt.gz
Wind_Speed
20 18 22 25 23 22 18 17 17 17 15 14 12 10 7 6 6 2 1 0 5 1 3 1 2 3 1 4 4 6 5 5 4 4 4 5 3 4 7 1 9 7 6 5 7 6 5 23 12 7 5 11 10 11
17 19 23 30 25 20 18 15 18 17 16 12 14 12 8 6 6 5 1 3 1 3 3 10 9 9 9 10 6 5 5 5 5 4 5 3 6 4 8 3 7 2 4 3 6 3 7 12 12 10 10 10 11 10
19 21 24 24 22 18 16 18 18 16 14 14 13 11 10 7 7 8 2 4 2 2 5 7 6 9 8 8 7 4 3 5 3 2 2 3 5 5 5 3 6 10 14 4 3 8 11 12 12 12 12 11 11 12
18 22 23 23 21 18 16 19 16 16 15 14 14 13 10 8 7 8 6 3 3 3 2 1 2 6 4 5 8 8 8 8 7 5 4 3 4 6 5 7 4 6 7 9 4 5 6 13 11 10 10 10 11 11
15 20 24 25 21 18 19 19 15 15 15 15 14 11 10 8 8 5 6 5 5 3 4 5 13 9 10 5 4 6 6 5 4 3 3 6 5 5 5 2 5 6 5 4 3 8 4 7 8 11 12 11 7 10
13 16 22 22 22 20 20 18 17 18 17 16 14 11 9 8 7 3 2 6 10 4 2 3 4 5 8 7 8 7 6 2 1 2 4 4 9 3 3 3 5 7 8 7 3 6 9 8 9 10 10 9 10 10
14 15 15 19 23 21 19 19 19 16 19 16 13 11 9 8 8 3 1 4 4 8 0 4 3 2 8 6 7 3 5 2 2 3 4 8 9 3 2 2 6 7 7 5 5 3 7 9 6 6 7 9 10 12
17 17 15 24 29 23 20 21 19 18 18 15 13 9 7 7 5 6 9 3 6 4 1 3 4 2 8 4 4 4 3 2 4 4 5 6 5 2 1 4 4 5 6 7 7 7 8 5 5 6 6 7 9 9
18 19 16 30 24 21 20 20 20 17 18 15 10 8 5 5 3 3 5 7 11 4 2 4 3 2 2 3 2 3 4 4 4 5 3 3 2 1 5 6 4 5 4 4 4 4 6 5 5 7 7 8 9 9
19 22 24 24 26 23 21 21 20 19 16 15 9 3 2 6 11 12 6 2 2 3 4 4 5 4 4 2 3 2 3 3 3 5 2 2 2 6 6 5 5 5 4 3 4 4 4 5 7 10 10 9 11 10
20 24 25 27 29 26 21 21 21 20 17 6 3 2 3 22 6 3 3 5 5 4 5 5 8 5 4 3 4 3 2 2 3 4 4 4 3 4 5 6 6 6 7 8 9 9 10 9 7 9 10 13 14 13
21 24 27 27 25 23 22 24 24 19 9 9 5 6 7 2 4 3 4 3 4 4 4 6 5 5 2 3 2 2 3 2 3 1 2 2 4 8 7 7 7 8 10 10 12 11 12 12 12 13 13 12 12 12
22 25 26 24 22 21 24 26 26 15 11 8 4 4 3 4 4 4 7 4 4 4 1 1 1 1 2 1 1 2 2 4 2 3 2 3 8 7 7 7 7 8 9 10 11 13 15 15 14 13 13 12 12 11
26 25 23 22 22 24 25 25 21 16 5 3 5 6 4 5 4 4 5 2 3 2 4 4 2 1 0 2 1 3 2 3 2 3 3 5 8 8 8 6 8 8 9 11 12 12 12 12 13 13 12 10 11 10
25 23 24 25 26 27 25 21 20 9 3 3 4 4 6 1 2 4 2 2 2 2 3 3 2 3 3 2 3 3 3 4 2 3 3 7 10 8 7 7 7 7 7 9 10 10 10 10 11 11 10 9 9 10
24 22 23 27 27 25 22 15 12 6 4 2 2 1 1 2 3 2 2 2 2 1 1 1 2 3 4 2 4 4 3 3 3 4 6 8 8 8 8 7 9 10 11 11 10 10 9 8 10 10 9 8 8 8
26 10 22 27 25 23 23 10 5 4 3 2 2 2 2 2 2 2 0 3 2 1 2 3 4 1 2 2 3 2 3 3 5 5 5 8 8 8 9 10 10 11 11 11 10 9 9 8 9 7 7 5 5 4
15 23 27 28 27 23 10 7 3 5 3 2 3 3 2 2 1 2 2 1 2 2 1 1 2 1 3 2 2 3 3 5 6 6 7 8 12 12 12 12 11 11 11 10 10 8 6 4 3 4 4 4 3 4
18 27 32 32 26 6 3 3 5 3 3 2 2 1 1 1 0 0 1 4 4 4 3 2 2 2 2 3 4 6 6 5 7 7 7 12 12 12 12 12 11 11 10 9 7 4 4 3 5 4 2 2 5 2
20 29 30 26 16 1 4 3 2 3 3 3 2 4 2 2 2 0 2 4 4 2 3 2 2 3 3 2 2 5 5 7 8 8 7 7 11 12 12 11 10 9 8 6 3 2 3 3 2 2 6 7 7 8
20 23 25 19 1 2 1 2 2 2 4 3 2 4 3 3 2 3 2 3 3 1 1 2 4 3 4 6 11 11 11 11 6 7 7 7 12 12 12 10 10 8 6 6 6 5 2 3 3 3 3 3 4 5
11 27 7 4 1 0 2 2 3 4 3 3 5 4 3 2 2 2 1 3 1 2 2 3 6 5 5 6 9 11 9 10 12 16 15 15 5 9 8 9 7 5 4 3 2 2 1 2 3 2 3 2 2 5
19 11 5 4 2 1 2 1 2 4 3 5 3 3 2 2 2 2 3 1 2 3 3 7 10 11 13 12 12 12 12 14 12 12 13 11 11 10 9 7 4 5 3 4 1 1 4 3 1 2 4 4 5 6
9 3 4 4 2 3 2 3 3 3 2 3 4 3 2 2 3 3 3 3 4 6 5 9 12 8 10 12 7 10 11 13 14 11 11 11 9 9 8 7 5 4 4 5 3 2 2 1 1 4 4 4 7 8
5 2 2 3 3 4 5 5 4 3 3 4 4 2 3 3 3 3 3 4 6 5 6 10 9 7 6 6 10 9 12 13 12 9 9 10 11 10 8 6 6 5 2 2 3 3 2 2 2 5 6 7 8 8
2 1 1 3 4 4 5 4 6 5 4 5 4 3 3 3 3 3 2 3 5 6 6 6 6 7 7 12 8 10 10 11 14 10 8 8 8 8 8 7 7 6 3 2 3 3 3 2 3 5 6 7 4 3
4 3 2 1 1 3 2 0 3 2 5 5 4 5 4 4 5 3 2 5 3 11 9 6 8 10 9 13 14 13 11 9 11 14 11 9 8 8 7 3 8 6 4 3 2 2 3 3 2 3 5 5 6 5
2 3 4 4 2 1 3 4 5 5 3 2 4 5 3 2 2 2 3 3 5 11 9 7 5 15 18 17 16 14 12 15 17 17 15 11 8 7 7 7 9 8 3 4 4 4 3 3 3 4 5 5 7 7
2 3 3 4 2 2 3 3 3 3 2 1 2 2 2 3 2 2 3 3 7 11 13 14 15 19 20 17 14 11 13 12 12 8 6 6 8 6 6 7 6 5 4 3 4 3 1 1 1 2 4 5 6 7
3 3 3 3 4 4 2 3 2 3 2 2 2 3 3 3 2 0 2 6 9 10 12 13 14 15 15 15 14 11 9 7 4 3 4 5 9 10 7 6 5 5 4 3 2 1 2 3 4 6 5 7 8 9
3 3 3 3 3 2 3 4 3 2 2 1 0 1 4 3 3 1 3 2 8 17 16 15 13 13 14 14 14 13 9 5 9 10 12 13 13 11 9 8 6 5 4 3 3 3 3 4 5 6 7 8 8 9
4 3 3 4 3 3 3 3 4 4 4 4 3 2 3 5 4 5 4 2 8 11 13 14 14 13 14 16 13 10 14 15 13 14 13 13 11 10 9 7 7 5 4 4 4 4 4 5 6 7 8 9 10 11
2 2 2 3 3 5 4 4 5 4 3 3 5 6 6 3 3 3 4 2 3 14 14 16 18 16 15 16 16 17 17 17 16 16 15 14 13 11 9 7 5 5 5 4 4 4 5 6 6 7 8 10 11 12

GFSWCAN_925_spd_087.txt.gz
Wind_Speed
20 19 22 26 21 23 19 16 14 13 12 11 9 8 6 5 4 8 7 10 7 1 4 6 5 3 3 4 2 4 4 5 4 4 3 3 2 3 4 2 6 3 2 3 4 4 1 21 9 7 5 10 11 11
18 19 23 20 24 23 18 15 13 14 13 12 10 8 6 5 4 5 3 5 5 3 2 8 9 8 3 4 2 4 2 2 1 3 3 2 2 3 8 2 6 3 4 2 5 3 6 8 10 10 11 10 10 10
17 21 22 22 25 22 17 14 15 16 13 11 11 8 6 7 6 5 3 3 2 2 4 0 5 8 6 5 3 3 2 2 2 4 3 2 2 3 3 3 4 10 14 3 4 5 10 10 9 11 10 11 11 11
16 20 23 27 25 19 16 14 17 14 14 14 12 10 8 6 6 5 3 7 5 1 2 3 4 3 6 8 10 7 3 1 3 0 1 2 1 2 3 2 3 3 6 6 5 8 8 10 10 8 8 10 12 11
19 21 19 24 22 18 16 18 16 15 16 14 13 11 8 6 6 5 2 2 3 2 1 3 12 12 10 9 7 9 6 3 1 3 1 2 3 2 2 2 3 5 4 3 3 6 5 4 6 7 10 10 10 10
18 20 20 21 20 19 19 18 17 17 14 15 14 11 8 6 8 3 4 3 2 3 2 2 5 2 6 12 7 7 7 2 2 2 3 3 4 2 1 3 4 4 5 7 3 6 8 7 7 9 10 10 10 10
16 18 23 22 21 20 19 17 15 18 17 17 15 11 8 7 6 2 2 4 3 3 2 3 3 2 7 7 3 2 4 2 3 2 2 3 3 3 1 2 7 4 4 5 4 5 7 6 4 6 8 13 18 18
17 18 20 20 21 19 16 17 20 19 19 16 14 12 8 6 3 0 2 4 5 6 1 1 3 1 3 1 0 3 2 2 1 3 3 3 3 2 3 6 6 5 5 6 5 5 5 6 7 7 10 15 13 12
15 15 16 20 24 20 21 23 21 22 20 17 14 11 6 2 2 3 4 5 3 2 1 2 2 3 2 0 2 1 3 1 3 3 3 2 1 3 4 8 4 1 2 4 3 5 5 8 12 13 13 13 11 10
17 16 15 22 29 22 24 23 22 21 21 18 10 3 2 5 7 10 2 1 1 1 2 3 2 2 3 1 2 1 2 3 2 5 1 2 3 7 8 7 5 4 2 4 5 5 4 9 11 12 12 11 12 12
17 18 18 28 28 23 24 24 24 25 21 4 3 2 4 15 5 2 2 2 2 3 4 4 5 3 1 2 3 3 2 2 2 3 3 2 3 3 8 8 8 10 11 11 11 10 12 9 10 10 9 13 13 13
17 22 22 30 26 24 26 26 28 15 9 8 6 5 8 2 2 4 4 2 4 4 3 3 3 5 2 2 2 3 2 1 3 1 2 1 3 8 8 9 8 10 13 13 15 14 15 15 15 15 14 13 14 13
19 25 26 29 28 25 26 28 25 14 14 7 0 3 3 4 5 5 5 3 1 2 1 1 2 3 2 2 1 2 2 3 0 1 2 2 7 7 8 8 9 13 15 16 14 16 17 17 17 16 15 15 14 14
22 27 26 28 26 25 24 28 19 15 4 1 3 4 3 2 4 3 1 2 3 3 3 3 2 3 0 2 0 2 3 2 3 2 2 3 7 7 7 8 9 7 11 12 12 15 16 18 18 16 14 11 11 11
25 28 27 24 24 27 28 28 16 8 3 2 3 4 4 2 3 2 1 1 2 2 2 2 2 2 1 1 3 2 2 3 3 2 2 5 8 8 7 7 7 7 9 10 14 14 14 14 15 14 10 10 10 9
28 26 19 25 27 28 28 22 8 3 1 3 1 2 1 2 3 2 1 2 1 1 2 2 1 2 4 3 2 4 2 3 1 2 4 7 7 7 6 5 10 13 15 15 14 13 13 13 13 13 10 9 9 9
21 6 24 29 29 27 24 10 3 3 3 2 1 1 1 0 1 2 4 1 3 2 2 2 4 6 1 1 2 3 2 2 5 5 5 7 8 7 8 12 15 16 14 13 12 11 12 10 12 12 10 10 8 6
12 26 30 30 28 18 7 1 3 3 3 1 1 2 2 1 1 1 1 1 2 1 1 1 2 1 3 1 2 2 3 4 5 6 6 7 11 15 15 13 13 14 13 13 13 11 10 11 10 10 11 9 11 9
26 33 32 32 26 8 4 4 3 2 2 1 2 2 2 1 0 2 1 2 2 4 2 2 1 1 2 2 3 5 5 4 5 4 5 14 17 13 13 14 15 13 15 14 13 11 10 5 5 7 8 4 4 3
30 32 31 30 17 3 3 2 4 3 3 2 1 2 1 1 1 1 1 1 2 1 1 2 1 1 1 1 2 5 6 7 8 7 6 6 14 15 13 13 11 15 13 10 8 7 5 5 7 5 5 5 7 9
26 22 23 19 3 4 2 3 2 2 2 2 2 3 1 1 2 2 2 2 0 2 1 2 3 1 5 9 12 15 14 14 7 4 7 7 12 13 15 12 16 14 12 12 10 6 4 12 9 7 4 3 2 2
15 20 5 7 4 3 0 2 3 3 3 2 2 1 2 2 2 2 1 1 2 1 1 2 3 3 3 4 8 13 15 16 17 18 17 17 6 8 10 16 14 10 10 8 10 8 12 10 7 5 2 2 2 4
17 7 4 3 2 1 2 3 2 3 3 3 1 2 1 1 1 1 1 1 1 0 3 6 9 11 10 14 15 15 18 18 13 14 17 15 15 14 16 11 8 11 10 10 10 11 9 5 3 2 1 2 3 5
9 4 4 4 3 3 0 2 2 2 2 2 3 2 3 2 2 0 3 2 1 1 4 8 13 6 9 8 2 8 15 19 17 17 15 15 11 14 14 12 14 13 11 9 9 8 6 4 1 1 2 2 4 5
4 4 2 3 3 4 5 3 3 3 3 3 2 2 2 2 2 3 2 2 3 3 3 8 8 5 3 2 7 12 17 18 13 9 15 18 18 16 16 16 13 9 6 5 4 4 5 6 3 1 1 3 4 4
4 3 3 6 4 3 5 4 5 5 3 4 2 2 2 2 2 4 1 2 2 3 4 5 5 5 3 10 5 8 14 18 19 13 12 15 16 18 16 12 10 6 2 3 5 5 7 5 3 2 4 5 5 5
5 4 2 1 2 2 2 1 2 2 3 4 3 3 2 3 4 1 1 3 1 8 10 11 11 8 10 14 19 17 15 18 20 18 16 15 12 8 12 14 15 10 7 4 3 3 4 5 5 3 3 4 5 6
2 2 5 3 2 1 3 3 3 5 3 2 4 4 4 3 2 1 1 6 7 12 11 8 10 21 24 24 24 24 25 25 23 18 15 12 9 8 10 13 12 7 4 4 4 6 5 4 3 3 3 4 5 6
2 1 3 4 2 1 2 4 3 1 2 1 3 2 2 2 2 2 2 5 12 19 17 17 18 25 24 21 18 20 22 21 18 6 6 3 6 8 9 10 9 7 7 8 7 7 4 3 6 5 6 6 6 6
2 1 3 3 4 4 2 2 2 1 2 2 3 2 2 2 1 1 2 5 8 11 14 17 19 19 17 17 17 15 12 11 13 13 7 6 12 14 10 8 11 10 7 6 6 4 4 4 5 5 4 6 7 9
2 1 3 3 2 2 3 2 3 2 1 2 2 1 2 2 2 2 1 7 9 16 19 14 14 17 17 16 16 14 9 9 9 10 14 18 18 16 13 11 10 8 7 7 4 2 3 4 5 6 7 8 8 9
1 2 2 3 2 2 2 1 3 2 2 2 2 2 2 2 2 2 4 2 12 15 17 17 16 14 17 17 15 11 10 16 14 16 17 18 17 15 13 12 10 8 8 7 6 5 6 5 5 6 7 7 8 10
2 2 3 3 2 2 2 1 3 2 2 3 3 4 4 3 4 2 6 7 5 9 18 21 22 22 20 20 19 20 23 21 18 16 15 16 16 15 13 10 10 11 9 7 6 4 4 5 5 5 6 9 11 12

GFSWCAN_925_spd_090.txt.gz
Wind_Speed
23 24 23 19 23 26 21 16 14 14 12 10 9 8 8 7 8 9 10 16 4 3 3 5 4 4 4 4 3 3 4 5 4 4 2 2 1 3 3 3 7 2 3 3 4 1 2 18 6 6 4 7 9 11
21 21 21 25 25 23 20 17 15 15 15 12 10 9 7 6 6 7 6 11 9 4 3 4 2 2 5 5 4 3 5 2 3 3 1 1 2 3 4 3 6 4 5 2 5 3 4 4 6 8 8 9 9 10
23 21 23 27 25 23 20 17 15 14 14 13 11 8 6 7 7 10 10 12 5 3 4 5 2 5 6 5 4 4 2 2 1 4 3 2 1 1 2 3 3 7 9 2 2 4 8 9 7 10 9 10 11 10
22 21 28 23 27 23 18 16 16 16 16 14 12 10 10 8 8 10 9 12 5 3 3 1 4 2 7 9 7 6 6 3 3 2 1 2 1 2 1 2 2 3 7 6 3 6 6 9 9 7 9 10 12 12
22 27 26 30 26 21 17 16 18 16 17 15 13 12 10 9 9 7 10 10 10 4 3 3 11 1 10 12 10 7 6 3 2 2 2 2 2 0 1 2 2 4 3 3 1 6 4 4 6 8 8 10 8 11
24 28 28 27 27 19 18 20 17 19 18 16 15 12 9 9 6 3 3 8 6 4 3 1 5 3 10 11 9 8 5 3 2 2 2 3 4 2 2 2 1 2 4 5 2 5 8 7 8 8 9 9 9 9
25 24 31 27 22 21 22 21 21 20 17 17 15 12 11 10 10 7 3 1 2 3 3 3 3 3 6 5 2 2 4 2 2 1 1 2 3 3 2 2 5 3 3 3 2 5 4 1 4 5 11 15 15 14
25 26 27 27 22 22 22 21 21 19 19 17 15 13 12 12 8 6 6 8 5 7 2 2 3 3 2 1 1 1 2 2 2 2 2 2 3 2 2 7 7 6 5 2 4 3 5 5 6 8 14 13 9 9
24 27 24 27 24 21 20 20 21 21 20 18 16 14 10 3 3 3 5 2 6 4 2 1 2 3 2 1 2 2 2 1 1 2 3 2 1 1 4 9 7 2 2 5 4 4 11 11 10 10 9 8 9 8
23 24 24 25 25 20 22 25 25 24 22 19 9 5 2 1 10 8 3 2 2 1 0 2 0 2 3 1 2 2 0 2 1 4 1 2 2 3 6 7 6 4 4 2 5 7 9 8 9 9 9 9 9 9
19 20 20 26 24 24 26 24 27 25 19 4 3 2 4 14 3 1 2 1 1 2 3 3 5 2 1 3 3 3 2 2 2 2 3 2 3 3 9 10 9 8 10 9 10 8 10 10 9 9 8 10 9 9
18 19 20 28 24 26 27 27 29 15 8 7 9 7 7 2 1 3 3 1 3 3 2 3 4 4 2 2 2 1 2 2 3 2 2 1 1 9 9 10 8 10 12 13 14 14 15 15 13 13 11 11 11 12
18 19 24 32 27 29 27 31 20 14 18 8 3 3 3 2 3 4 4 3 0 2 2 0 2 3 2 3 1 1 2 3 2 1 2 1 6 7 8 8 9 12 13 13 12 14 15 14 14 15 14 14 14 13
21 21 30 30 28 30 29 26 19 15 3 2 3 4 3 2 3 4 3 3 3 2 2 3 1 2 1 3 1 1 3 2 2 3 2 2 7 9 8 6 8 5 8 10 11 15 16 17 17 15 14 12 12 11
25 25 27 27 27 29 31 21 15 6 3 0 2 3 4 3 1 2 0 2 1 1 2 3 3 2 0 1 2 2 2 3 2 1 2 4 7 8 7 6 6 6 7 9 16 15 16 16 15 13 10 9 9 9
29 24 19 29 27 27 27 17 9 2 2 1 2 1 1 2 1 1 1 1 1 1 2 2 2 2 3 3 2 3 2 1 2 2 4 7 7 4 6 5 10 16 16 16 17 15 15 14 14 12 10 8 8 9
24 6 25 25 27 29 22 7 2 1 1 3 1 1 1 0 1 2 2 0 0 2 1 1 3 6 3 0 1 0 2 3 4 5 4 6 8 7 9 12 14 16 16 16 15 13 13 12 12 10 7 8 8 7
15 27 30 34 32 21 6 2 2 2 3 2 1 3 1 1 1 1 0 1 2 1 1 1 2 1 3 3 2 2 2 3 3 4 4 5 10 15 16 14 18 18 17 15 13 12 13 13 8 9 8 10 10 9
35 38 36 33 23 7 3 3 3 3 1 1 1 1 1 1 0 0 1 1 1 1 1 1 1 2 2 2 2 2 4 3 3 2 2 12 18 18 19 19 18 16 15 14 11 12 13 11 9 11 12 6 7 11
36 35 31 26 11 3 4 2 5 2 2 3 2 1 2 1 1 0 1 2 1 1 1 2 3 2 2 2 2 3 4 6 7 5 4 3 16 18 16 14 13 15 13 12 10 9 9 6 10 9 9 7 5 6
25 24 20 11 3 3 1 2 1 2 2 2 2 2 1 1 0 1 1 2 1 2 2 1 2 1 1 6 12 14 12 14 6 4 6 6 12 13 15 15 14 15 13 12 11 8 6 12 10 5 4 4 2 0
12 19 5 3 2 3 1 1 3 3 2 1 2 1 1 1 1 2 1 2 2 2 2 3 2 3 3 3 8 14 17 14 13 14 16 17 6 8 10 12 16 15 15 14 12 8 12 12 8 5 3 2 0 1
18 9 4 4 2 1 4 1 2 2 3 3 1 2 1 1 1 1 2 3 3 3 3 2 5 10 9 11 13 15 18 17 11 12 15 15 15 15 15 16 18 14 9 10 13 17 15 9 5 3 2 2 1 3
11 5 3 3 4 3 2 0 1 2 2 2 2 2 3 2 2 1 3 2 2 1 2 4 10 4 6 8 2 8 13 18 15 17 18 17 11 12 16 12 10 11 13 15 14 12 8 6 4 3 1 1 1 1
4 5 3 1 2 3 4 2 1 2 3 3 3 1 2 2 2 3 3 2 1 2 3 6 5 3 3 1 4 12 17 20 14 11 17 20 18 17 17 17 15 13 11 13 12 10 9 8 6 4 2 0 0 0
5 4 6 6 3 4 4 4 4 4 3 2 3 1 1 2 2 5 2 2 2 3 4 5 4 3 1 7 4 8 13 20 21 12 8 20 25 23 15 12 10 6 6 7 9 9 10 9 6 3 3 3 2 1
4 4 2 1 1 2 1 0 2 3 3 4 3 3 3 3 5 3 1 1 1 4 14 19 16 11 8 11 15 17 20 22 20 17 15 14 16 19 20 19 16 10 8 5 5 6 9 9 8 5 6 5 3 3
4 4 6 3 2 1 3 3 4 5 3 2 4 4 5 6 4 2 2 4 6 15 13 12 14 17 24 24 25 25 22 24 24 22 19 15 11 8 10 12 12 11 7 5 5 6 5 5 4 3 2 2 3 5
1 1 4 3 2 1 4 5 4 2 1 2 5 3 3 1 1 1 2 4 13 17 17 15 15 22 23 22 22 24 29 29 21 6 5 3 4 8 11 11 11 9 8 9 8 6 6 6 7 7 5 3 3 4
2 2 4 2 5 5 4 3 2 2 1 3 3 2 2 2 2 1 3 7 11 14 17 19 22 21 18 18 16 15 16 18 15 13 6 5 13 17 14 12 12 11 10 9 9 9 6 5 4 3 4 2 2 5
1 2 3 3 3 2 3 1 3 2 2 2 2 3 3 2 1 4 4 6 11 16 18 15 16 19 19 18 17 14 8 9 10 10 7 13 19 18 15 14 11 10 9 8 7 5 6 5 5 4 3 4 5 7
1 2 3 3 1 2 2 2 1 1 2 2 2 2 2 3 2 2 6 9 12 15 18 20 16 15 17 19 18 13 11 14 13 15 18 20 20 18 16 14 12 10 9 8 7 7 5 4 3 3 3 4 6 8
1 2 3 3 2 0 2 2 1 1 1 2 3 4 4 5 5 3 4 5 12 19 20 19 18 20 19 19 19 15 17 17 17 17 17 18 18 17 15 12 12 11 10 9 7 5 4 3 3 2 4 6 7 7

GFSWCAN_925_spd_093.txt.gz
Wind_Speed
14 31 33 28 26 24 19 20 16 14 13 11 9 8 7 7 6 6 9 12 3 3 2 4 2 4 3 3 3 3 3 4 3 3 2 1 1 2 2 2 6 3 2 3 5 5 3 16 6 5 3 6 6 10
22 25 28 25 25 24 22 17 17 16 14 13 10 9 8 8 7 6 6 9 10 4 3 3 5 6 4 6 5 2 4 2 3 3 1 2 1 2 1 2 4 2 3 2 4 2 4 5 6 7 8 5 7 9
27 27 24 25 26 22 22 17 16 17 15 13 11 9 9 11 12 12 9 6 6 3 4 4 3 3 4 3 5 4 1 3 2 3 3 2 0 2 1 1 1 4 7 2 2 4 5 7 7 8 8 10 10 8
26 22 25 30 26 26 22 18 16 16 15 13 10 10 11 13 12 12 12 9 7 3 4 3 4 4 5 8 9 8 7 5 5 2 2 2 1 1 1 1 2 3 4 3 3 4 4 7 7 8 10 10 9 8
22 24 30 27 27 23 20 18 17 18 15 14 12 12 12 11 12 13 17 16 12 4 3 2 3 4 8 8 10 10 9 3 2 2 2 1 2 1 1 2 2 2 2 2 1 3 3 4 6 7 9 8 7 9
23 28 29 25 28 22 18 20 18 18 16 14 14 12 11 9 7 2 4 10 11 5 3 2 3 3 4 8 7 5 4 3 2 2 1 2 3 2 1 1 2 3 4 4 3 6 8 7 7 9 9 8 9 8
26 29 30 31 26 21 21 21 19 20 18 17 15 13 11 7 6 7 3 3 5 4 3 2 2 3 2 4 2 2 1 2 2 1 0 1 2 3 2 2 5 4 5 4 5 6 5 5 4 7 10 12 14 14
32 33 33 31 23 23 23 21 22 20 19 17 16 16 15 14 11 8 10 9 5 7 3 3 1 2 2 1 2 1 2 2 1 1 0 2 2 1 1 3 5 5 5 5 3 1 5 8 12 8 11 11 9 9
31 34 32 28 26 26 24 24 21 22 19 19 17 14 8 5 3 2 4 7 11 6 2 2 3 3 2 1 2 2 2 1 1 1 2 3 1 2 2 7 7 5 1 4 6 7 7 5 10 8 8 7 9 7
32 34 29 28 27 26 24 23 23 23 22 20 10 6 3 2 10 3 4 3 3 3 2 1 2 1 3 1 2 2 1 2 1 4 2 2 1 3 5 6 5 5 4 3 9 5 6 6 7 7 7 7 8 8
28 32 30 27 25 24 24 25 26 25 17 3 3 2 4 10 1 2 2 1 1 1 2 2 3 1 1 3 3 3 2 2 2 3 4 3 3 3 4 8 7 7 8 6 6 6 7 7 8 8 7 8 8 7
24 24 27 27 24 25 28 29 28 12 6 6 11 8 4 1 1 2 1 1 2 2 2 3 3 4 2 2 3 1 2 2 3 3 2 1 1 7 7 8 7 6 9 9 10 11 12 11 9 10 9 8 8 10
21 22 27 27 27 27 28 29 16 16 19 6 3 2 2 1 2 4 4 2 1 2 3 2 0 2 2 3 2 2 3 3 1 1 2 2 5 6 7 7 7 8 10 11 11 12 13 12 10 11 12 11 11 10
19 22 28 26 27 28 29 22 16 14 3 2 2 4 2 2 3 4 3 3 3 1 1 2 2 2 0 3 0 2 3 2 2 1 3 3 8 8 6 6 7 5 7 8 9 11 12 14 13 12 12 11 12 11
18 24 30 26 28 29 25 19 13 3 3 2 1 2 4 3 2 2 2 2 0 2 2 2 3 2 2 3 1 2 2 2 1 2 2 5 8 8 6 4 6 6 6 8 13 14 15 15 14 12 9 8 8 8
21 25 21 28 30 27 23 15 7 2 2 1 1 1 0 2 1 2 2 1 1 1 2 2 2 2 1 2 2 4 2 3 2 2 2 5 6 5 5 5 8 13 15 15 15 15 14 13 12 11 9 7 6 6
24 5 28 30 31 24 17 5 1 3 2 2 2 1 1 1 2 1 2 1 0 2 2 1 3 6 2 2 2 2 3 3 1 1 2 4 8 7 7 11 13 14 16 16 13 12 10 10 9 7 5 6 5 3
10 34 32 33 28 18 8 3 3 2 0 2 1 2 0 2 1 1 1 1 1 1 1 1 1 2 3 3 2 3 2 2 1 2 2 3 9 14 15 13 17 17 16 15 13 11 10 10 7 6 3 4 4 5
34 33 33 31 20 7 3 1 1 1 3 1 1 1 1 0 1 1 1 1 1 2 1 0 1 3 3 3 3 2 2 3 3 2 2 7 16 16 17 18 18 17 17 15 13 12 13 11 6 6 8 6 8 10
34 36 33 22 9 3 3 2 3 1 2 3 2 1 1 1 0 1 0 1 1 0 1 3 4 3 3 2 3 3 3 5 6 4 2 1 14 17 16 15 13 17 16 14 11 10 8 5 5 4 5 8 5 3
27 21 16 9 3 4 0 2 2 1 2 1 2 2 1 1 1 1 1 2 1 2 3 3 3 3 1 0 5 10 10 12 4 4 4 5 11 14 14 16 17 16 14 13 10 6 8 11 11 8 5 3 1 2
10 16 6 3 4 3 1 3 3 3 2 1 2 2 1 2 2 2 2 3 3 3 3 3 2 2 2 2 3 8 14 12 11 12 13 18 7 9 10 16 15 13 13 12 11 10 9 9 10 7 5 4 3 3
14 7 4 2 1 2 3 1 2 1 2 2 1 1 1 1 2 1 1 3 3 2 2 2 3 5 6 7 10 11 14 16 9 11 13 14 16 16 16 15 15 14 11 10 10 10 11 11 7 5 5 4 3 1
8 3 3 4 4 2 1 0 1 2 2 1 2 1 2 2 1 1 3 3 3 1 1 1 8 4 5 8 2 7 12 14 14 15 17 16 11 12 16 12 12 14 12 10 11 12 13 9 7 5 3 3 2 1
4 3 3 4 2 3 2 2 2 2 3 3 2 1 2 2 1 2 3 3 1 1 1 4 5 2 3 1 3 9 14 18 13 8 15 17 16 13 11 10 8 10 12 15 15 14 13 11 8 6 4 2 2 2
3 5 5 5 3 4 4 4 4 4 3 2 3 1 1 2 2 5 3 2 2 2 3 4 4 2 1 4 4 5 12 15 19 13 11 18 20 21 14 10 9 7 12 8 10 12 12 10 9 6 3 2 1 0
3 5 2 2 2 2 1 0 2 3 4 4 3 3 2 3 5 4 2 1 1 3 10 16 16 10 7 9 12 13 15 17 18 16 14 16 18 19 20 20 17 11 10 8 6 6 10 11 8 6 5 4 2 2
4 3 5 3 2 0 4 3 4 5 3 2 4 4 6 6 4 2 3 2 2 2 7 12 12 12 17 18 20 21 18 18 19 19 18 13 9 10 11 8 10 12 9 6 5 6 7 7 7 7 5 4 3 3
3 2 3 2 1 1 4 5 5 3 1 3 4 3 4 2 2 2 0 1 7 12 15 13 11 14 16 18 20 21 25 27 20 6 5 3 4 8 14 14 14 11 9 9 10 9 9 9 9 8 6 5 4 3
3 2 3 0 5 6 3 2 2 2 1 2 2 2 2 2 2 2 3 6 10 12 15 17 20 20 16 18 16 15 19 18 14 11 6 5 12 19 17 15 14 13 12 13 15 13 10 8 7 6 6 3 1 2
1 2 3 2 3 2 3 1 2 2 3 2 2 3 2 2 3 7 7 7 9 12 14 15 15 17 21 19 17 14 8 14 9 7 4 9 18 21 19 16 15 15 12 11 10 8 9 8 6 5 3 2 3 6
1 3 4 3 2 2 2 2 1 2 3 2 2 2 3 3 2 2 5 11 15 16 14 18 18 15 18 17 16 13 11 14 14 12 12 18 22 20 19 18 15 13 12 10 9 9 7 7 6 5 3 3 5 6
1 2 2 2 1 0 1 2 1 2 2 1 3 4 4 4 5 3 4 7 12 19 17 17 16 16 16 15 15 12 14 16 15 16 18 20 20 20 18 16 14 13 12 12 10 8 7 6 5 3 3 4 4 5

GFSWCAN_925_spd_096.txt.gz
Wind_Speed
7 16 37 34 30 28 25 23 19 17 15 12 10 8 7 5 2 2 7 7 3 3 2 3 2 4 3 3 3 2 3 4 3 3 2 2 2 1 2 3 4 2 1 2 3 4 4 13 3 5 5 4 6 6
11 32 37 33 29 25 24 21 19 18 15 13 11 8 7 5 3 3 5 10 13 5 3 4 11 10 4 5 5 2 4 2 3 4 1 2 1 1 3 0 4 2 0 1 2 2 3 4 5 5 7 5 6 7
16 30 31 29 27 24 22 18 19 17 15 13 10 10 10 7 4 6 9 7 8 3 4 5 4 7 7 7 5 4 1 3 2 3 3 2 3 2 1 1 1 4 4 2 3 2 3 5 7 8 9 8 9 10
18 36 32 30 28 23 23 20 19 18 15 12 10 12 11 10 10 10 12 8 8 3 3 2 3 4 6 8 11 9 8 6 5 2 2 2 2 1 1 2 2 2 3 2 3 4 5 7 6 6 7 8 10 10
26 27 28 29 26 28 23 21 21 19 16 13 12 12 13 15 18 23 24 20 11 4 3 2 0 7 6 11 14 13 11 4 3 2 2 1 1 2 1 2 2 2 2 1 2 1 3 4 5 6 7 8 8 9
21 26 31 29 29 25 23 20 20 18 16 15 13 12 10 9 6 5 4 12 15 5 4 2 3 4 4 7 10 7 5 3 2 2 1 1 2 2 2 1 2 3 3 3 3 6 9 8 7 8 9 9 10 11
22 29 28 29 25 23 23 22 20 18 17 16 13 11 9 7 8 7 3 3 8 5 3 3 2 3 1 3 2 2 3 2 2 1 0 1 2 3 2 2 7 6 5 6 5 6 6 3 5 8 10 12 13 13
23 30 29 27 24 23 25 22 21 20 18 18 18 19 19 16 13 9 14 12 6 8 3 3 1 2 3 1 2 2 2 2 3 1 1 1 2 1 1 5 6 6 6 3 5 2 7 11 10 9 10 8 7 7
32 31 30 28 25 25 23 23 23 21 19 19 16 13 7 7 4 2 6 8 12 7 3 2 4 3 2 2 2 2 1 1 1 0 2 2 1 3 2 11 9 6 4 8 8 8 9 9 8 7 7 6 6 5
34 34 31 25 27 24 25 24 23 22 20 17 6 5 3 3 5 3 4 4 4 3 3 2 1 1 3 1 1 2 1 1 0 3 2 2 2 2 3 5 6 6 8 10 8 6 7 10 8 7 5 5 6 7
38 32 29 29 27 27 24 25 25 22 14 3 3 2 4 4 3 3 3 3 2 2 1 1 1 2 1 3 2 1 2 1 1 3 4 3 2 4 5 8 6 6 6 4 4 6 6 8 9 8 6 7 8 8
34 32 30 28 26 26 25 27 23 7 4 7 12 7 2 2 2 2 2 1 1 1 1 3 3 3 0 2 3 1 1 2 3 3 1 2 1 6 7 8 6 7 9 9 10 11 12 12 11 12 10 9 9 11
30 30 28 25 24 26 26 25 11 18 21 7 3 3 0 2 2 3 3 1 1 2 2 2 0 2 2 3 2 2 2 1 1 2 3 2 3 6 8 7 7 8 11 13 12 13 15 14 12 13 13 13 13 11
27 27 24 25 28 29 28 17 16 8 3 3 2 3 2 1 2 3 3 3 2 1 2 2 2 2 1 3 1 1 4 1 1 2 3 2 6 7 6 5 6 5 7 9 9 12 14 15 16 14 13 11 12 12
26 25 24 26 29 28 22 17 10 4 3 2 1 1 2 3 2 2 2 2 1 2 2 2 3 2 2 3 1 2 2 3 3 3 3 3 6 7 6 4 6 6 6 7 13 13 15 15 16 13 11 9 8 8
26 24 18 27 30 25 20 13 4 3 3 2 2 2 1 2 2 2 2 2 1 1 1 2 2 3 2 3 1 3 1 3 3 2 2 6 5 5 5 5 7 12 13 14 15 16 14 13 12 11 9 7 6 6
21 6 25 30 27 21 14 5 2 4 3 2 2 1 1 2 1 1 1 0 1 2 1 1 2 5 0 1 2 2 3 2 2 1 1 2 7 6 6 11 13 14 15 16 15 14 12 11 11 9 7 6 5 3
7 28 31 30 26 17 6 4 3 2 3 1 2 2 1 1 1 1 1 2 2 0 1 1 1 2 3 4 3 3 1 2 2 2 2 2 7 13 15 13 16 17 17 16 15 14 13 11 8 6 5 5 4 2
32 35 31 27 15 5 2 2 2 1 1 1 1 1 1 1 1 1 1 1 2 2 1 1 2 2 3 3 3 2 2 2 3 2 1 4 15 15 16 17 18 17 16 15 13 12 13 10 6 4 4 4 2 4
35 32 28 18 5 3 3 1 0 1 1 2 2 1 2 1 0 1 1 1 1 1 1 3 4 3 3 3 3 3 3 4 5 3 2 1 12 16 16 15 13 15 15 13 10 10 9 6 4 2 3 4 3 2
27 18 13 6 4 6 2 2 2 1 2 2 2 2 1 0 0 1 1 2 1 2 3 3 3 2 2 1 3 7 9 11 4 3 4 4 10 13 14 13 16 14 13 14 12 11 10 8 6 6 6 4 2 1
14 14 5 5 4 2 1 0 1 1 2 1 2 1 1 2 2 2 2 2 3 4 3 3 2 3 2 2 3 7 12 12 11 11 12 19 7 9 10 15 15 14 15 16 15 11 9 7 10 8 5 3 1 1
13 5 4 3 3 3 1 1 2 1 3 2 1 0 2 1 2 1 2 3 3 2 2 2 3 5 6 9 11 11 13 15 9 11 13 13 15 17 18 19 19 19 14 13 11 9 9 10 10 7 4 3 2 2
5 3 3 3 3 2 2 1 1 2 2 2 1 2 2 2 1 1 3 3 3 2 0 1 7 4 5 6 2 6 9 12 13 13 16 16 12 14 20 18 16 15 14 10 9 11 13 13 9 7 5 5 4 2
4 3 3 2 1 3 1 1 2 2 2 3 1 2 2 2 1 2 3 3 1 1 1 2 4 2 3 1 2 7 11 16 13 7 13 18 17 17 14 11 10 12 11 9 13 16 16 12 9 7 5 3 1 2
2 4 6 4 2 3 4 4 4 5 3 2 4 1 1 2 1 5 3 2 2 2 2 3 3 2 2 3 3 4 10 12 15 10 11 19 22 20 14 8 7 7 12 11 14 15 13 11 10 8 5 3 3 2
3 4 2 2 1 1 1 1 1 3 4 4 2 3 2 1 4 3 2 2 1 2 2 8 11 8 7 8 10 9 13 14 14 12 15 16 16 16 18 18 16 12 14 11 9 9 12 13 11 8 7 7 5 3
5 3 5 3 2 1 3 3 4 5 3 2 3 3 5 6 4 2 3 1 2 2 1 5 6 7 11 14 16 18 16 16 18 19 17 13 10 11 11 8 11 13 13 10 8 8 10 11 10 10 8 6 6 4
3 2 3 3 1 2 4 5 4 3 1 3 4 3 3 2 1 2 2 1 3 6 9 12 9 11 13 14 16 15 21 24 18 6 5 3 4 7 14 16 17 14 12 12 13 12 12 11 10 10 9 7 6 3
4 2 3 2 5 5 3 2 2 2 1 1 2 2 2 2 2 4 4 6 9 8 10 12 17 17 17 18 15 14 17 15 14 13 7 5 11 19 20 18 17 15 14 15 17 17 14 12 11 10 8 6 3 2
2 2 2 1 3 2 2 1 1 2 3 2 2 3 2 2 4 8 10 8 9 9 11 13 14 14 19 18 17 14 8 12 9 9 8 12 19 23 22 19 17 17 16 16 15 14 13 12 10 9 7 4 3 4
1 3 4 3 2 2 1 2 1 1 3 2 2 2 3 3 2 2 3 10 11 14 12 15 16 16 17 16 17 15 8 17 14 12 11 17 24 24 23 21 19 17 16 15 15 14 12 11 10 7 5 3 3 4
1 2 2 2 1 1 1 1 2 1 2 1 3 3 3 4 5 3 3 7 12 15 14 13 12 12 14 14 15 12 14 17 16 15 16 21 24 25 23 21 18 17 16 16 15 13 11 9 8 6 4 3 3 4

GFSWCAN_925_spd_099.txt.gz
Wind_Speed
11 8 8 20 28 29 27 26 23 20 18 16 13 10 9 9 8 5 4 4 3 3 2 3 2 4 2 2 3 2 2 3 2 3 2 2 2 1 3 1 2 1 2 2 3 3 2 12 2 3 5 5 7 9
8 12 15 33 32 30 28 25 23 20 18 15 13 10 8 7 6 5 4 8 9 5 3 6 14 10 2 4 5 2 2 2 2 3 1 3 2 1 2 2 3 1 1 1 2 2 3 6 6 5 6 6 7 8
9 13 34 36 33 29 27 23 22 20 17 15 12 9 7 4 6 4 8 7 10 3 3 3 3 12 10 8 4 4 1 3 2 1 3 2 3 1 2 2 2 2 3 2 4 3 5 6 7 7 8 9 8 9
6 36 37 35 29 27 25 22 22 20 18 15 14 11 8 6 9 10 8 5 7 3 3 2 5 6 8 12 14 10 8 6 4 1 2 2 2 0 2 3 1 1 2 2 3 6 7 7 7 7 9 9 10 9
13 25 36 33 28 24 25 22 21 20 17 16 15 15 17 23 25 24 24 19 10 3 3 2 1 7 11 17 19 15 11 4 2 2 2 2 2 2 2 2 2 1 2 2 2 3 4 5 7 7 9 8 8 10
23 28 31 30 26 28 25 22 21 19 17 17 16 15 12 6 4 2 4 13 15 8 4 3 2 3 6 12 14 8 5 3 2 2 2 1 0 1 2 2 3 4 6 4 3 5 10 9 8 9 11 10 11 11
31 32 33 31 30 27 26 24 21 19 18 16 15 11 8 7 10 6 3 2 7 5 3 3 2 2 2 2 3 3 4 2 2 2 1 1 1 2 1 2 8 7 9 11 11 10 7 4 6 10 13 13 14 13
31 33 33 31 29 26 25 23 21 19 19 18 20 22 20 17 13 9 15 13 6 9 3 3 1 1 4 1 1 2 2 2 3 1 1 1 2 1 2 5 8 8 8 9 10 2 7 12 12 10 11 10 9 9
30 30 30 28 26 27 26 24 22 22 22 20 17 11 5 8 4 2 7 7 13 6 3 2 4 3 2 1 1 2 1 2 2 1 1 2 1 3 3 12 10 9 6 9 10 11 11 10 9 8 8 7 8 8
30 30 28 26 27 25 26 25 22 22 19 14 4 6 3 2 2 4 3 4 4 3 3 2 0 3 2 1 1 1 2 1 1 1 2 1 2 2 2 9 7 9 10 12 12 10 9 8 8 7 6 7 9 9
32 31 28 28 27 27 28 26 21 20 11 3 3 2 3 2 3 3 3 3 2 2 2 1 1 3 0 2 2 1 2 1 1 2 3 2 3 4 7 9 7 7 7 5 4 6 8 10 10 9 8 10 12 11
34 30 29 27 28 28 27 23 18 6 5 7 12 7 2 3 3 4 3 1 1 1 1 2 2 1 1 1 2 1 1 2 2 4 2 2 1 7 9 9 8 7 8 7 10 11 13 13 12 13 12 10 10 13
36 32 30 30 29 28 25 17 11 22 18 6 4 3 2 3 5 3 3 1 0 2 2 2 2 1 1 2 3 2 0 0 1 3 2 1 5 7 9 9 8 10 12 13 14 14 15 14 13 14 13 14 15 14
35 32 30 28 27 27 21 16 19 7 4 3 3 4 3 2 1 2 1 2 1 1 2 2 2 1 1 2 0 2 1 1 1 1 2 3 9 9 8 8 9 8 8 10 12 13 15 16 17 17 16 15 16 14
31 28 27 28 27 24 18 14 8 4 4 3 2 3 1 2 2 1 1 1 2 3 2 2 3 1 2 3 0 1 0 2 3 2 1 3 9 8 8 6 7 7 6 8 11 12 16 19 19 17 14 14 13 13
31 28 26 28 26 19 14 9 6 3 4 3 4 3 0 2 3 2 3 3 1 1 1 2 2 3 1 2 2 3 2 3 2 1 1 6 7 6 7 6 7 11 12 13 15 17 19 19 17 16 14 12 12 12
18 10 28 26 22 17 9 4 3 4 3 3 2 1 2 3 2 1 1 2 2 1 2 1 2 2 1 1 2 2 3 1 1 1 2 4 8 8 7 10 12 14 13 15 17 15 16 16 17 14 11 10 10 9
19 29 28 25 20 14 5 6 3 3 5 2 2 1 1 2 2 2 1 2 1 1 1 1 1 1 3 3 2 2 2 2 2 2 3 3 7 10 13 13 14 15 15 15 16 17 17 14 11 9 10 10 8 5
31 30 26 20 8 4 3 4 3 3 2 1 1 1 2 2 1 1 1 1 2 2 2 1 2 2 3 2 2 1 2 3 3 2 2 3 13 14 15 16 17 15 16 16 15 13 12 11 11 10 9 8 5 3
31 27 21 11 2 3 3 2 2 2 2 1 1 1 2 1 0 1 1 2 1 1 0 2 4 2 2 2 2 1 2 5 6 4 3 3 9 14 14 16 15 16 15 13 12 13 11 8 7 6 7 6 4 3
25 17 12 3 4 7 2 2 2 2 2 2 2 2 1 1 1 0 1 0 2 2 3 3 3 1 2 1 1 2 7 10 4 3 5 5 9 12 14 13 16 15 15 13 13 11 11 8 9 10 10 7 5 4
13 12 4 5 4 3 3 3 2 1 2 1 1 1 1 1 2 2 2 1 2 3 3 3 2 4 3 2 3 4 9 10 8 8 11 19 8 10 12 15 16 13 13 14 13 13 11 9 11 11 9 7 5 4
10 5 4 4 4 4 1 1 2 1 2 2 1 1 1 1 1 1 2 2 3 1 1 1 2 4 5 6 9 8 10 11 7 7 10 10 13 15 15 15 15 15 12 11 14 11 11 11 13 11 8 6 5 5
5 3 3 2 3 1 1 1 1 2 2 2 2 1 2 2 1 0 3 2 1 2 1 0 6 4 4 5 2 4 7 10 9 9 10 14 12 12 14 15 17 17 17 16 14 12 13 14 13 11 8 6 5 4
5 3 4 2 1 3 2 1 2 1 2 3 2 1 2 1 0 2 2 2 1 1 1 2 2 1 2 2 3 5 9 13 11 6 10 12 13 13 11 14 13 14 15 17 15 15 15 15 12 10 8 6 6 5
2 3 4 5 1 3 4 3 3 5 2 2 3 0 1 2 1 4 2 2 2 1 2 3 3 2 1 3 4 5 9 12 13 8 10 16 18 17 13 9 9 10 16 13 15 18 17 15 13 12 9 7 6 6
1 3 2 1 1 1 1 1 1 3 3 4 2 2 2 1 4 3 1 2 1 1 1 3 8 4 5 6 9 10 13 13 9 8 14 16 18 20 21 17 13 13 15 14 15 16 17 16 15 12 11 9 8 5
4 3 4 3 2 1 3 2 3 4 3 2 4 3 5 6 3 1 1 4 3 1 2 5 6 4 9 13 15 18 16 15 17 20 18 14 12 12 11 10 12 16 15 13 11 11 12 15 14 13 12 11 9 7
3 2 3 2 2 2 4 5 3 2 1 3 4 3 3 2 1 2 3 5 6 7 8 11 9 12 15 15 15 14 22 24 19 9 5 4 4 7 14 17 19 17 16 15 12 12 14 14 14 14 13 12 10 7
4 3 3 2 4 5 2 1 1 1 1 1 0 1 1 1 3 6 6 8 9 9 9 10 15 16 15 16 14 13 16 16 14 12 7 6 11 18 22 21 20 19 18 18 21 20 18 17 17 15 13 10 7 4
3 2 2 2 4 2 2 0 1 1 2 2 2 2 2 3 5 6 11 10 11 8 10 9 13 11 18 17 16 13 8 13 9 9 7 12 17 25 24 22 20 19 18 19 21 21 20 18 15 13 10 8 6 4
2 4 3 3 2 2 1 1 1 1 2 1 1 1 2 2 3 1 1 8 9 9 12 13 14 15 16 14 16 13 7 16 15 13 13 18 24 25 24 22 21 20 21 20 18 17 15 14 13 11 9 7 6 5
2 2 2 2 1 1 0 1 1 1 1 1 2 1 2 3 5 1 1 4 8 9 13 11 10 7 12 13 13 13 12 18 16 15 15 19 24 26 25 23 22 20 19 19 17 16 15 13 12 10 8 7 6 5

GFSWCAN_925_spd_102.txt.gz
Wind_Speed
7 8 8 5 26 28 30 29 27 26 23 21 20 17 16 18 22 13 3 8 1 3 5 4 2 4 4 4 5 5 5 2 3 3 3 3 3 2 4 2 1 4 5 4 3 3 2 11 1 4 5 6 5 7
5 6 5 13 26 28 29 27 26 23 22 20 17 15 15 16 17 10 3 5 5 3 5 7 11 9 5 3 5 3 2 3 2 2 2 3 3 3 4 4 2 3 3 2 4 4 5 7 6 4 4 6 7 7
9 8 7 19 28 29 29 26 24 23 21 19 15 13 12 12 13 9 8 10 10 5 6 4 6 9 10 5 1 2 2 3 3 1 2 2 3 2 4 3 4 4 4 2 6 5 6 6 6 7 7 8 8 9
7 8 17 29 31 30 26 25 24 22 20 17 13 10 9 9 12 11 9 6 4 4 4 5 5 5 9 9 10 9 11 6 5 1 2 2 3 2 2 4 0 3 5 6 5 7 8 6 6 7 8 9 10 9
9 17 33 34 31 27 26 26 24 22 20 16 14 11 13 15 16 18 15 7 4 1 4 5 7 9 9 13 16 12 8 4 2 2 2 2 3 3 3 2 3 1 3 3 2 8 6 8 7 8 8 9 9 10
14 37 36 34 32 29 27 25 23 22 21 19 19 21 13 9 9 5 3 8 8 7 4 4 2 3 6 11 13 10 5 4 2 2 2 2 2 1 3 2 3 4 2 4 5 6 12 12 10 9 10 9 10 10
21 39 35 34 32 30 26 25 22 21 20 19 15 10 6 5 6 6 3 1 5 6 3 5 4 2 1 2 3 3 6 3 3 2 2 2 3 1 1 2 9 7 6 10 14 14 11 11 7 11 12 13 13 12
34 38 32 33 33 30 27 23 22 20 19 18 20 23 21 18 13 8 10 7 7 7 3 4 3 4 1 2 3 2 2 1 3 2 2 2 4 1 2 8 11 11 10 11 8 2 11 15 14 12 13 12 10 9
40 38 37 33 33 29 26 23 22 22 24 24 18 12 6 7 3 2 4 8 11 4 3 2 6 4 2 2 2 2 2 2 0 1 2 2 3 3 1 12 12 12 10 11 7 11 15 14 12 11 10 9 9 9
40 38 35 32 30 29 25 22 23 23 20 13 5 4 2 2 1 3 2 1 3 3 3 3 1 4 3 2 2 2 1 1 2 2 3 2 1 2 3 9 10 11 9 14 13 13 13 12 11 10 9 7 9 10
36 33 32 31 29 25 27 22 20 17 10 3 2 2 3 2 1 3 3 3 1 3 2 3 2 7 2 3 3 1 2 1 1 3 2 3 3 5 5 9 10 10 11 11 7 10 10 12 12 11 10 12 12 12
31 29 30 29 30 24 24 19 17 6 2 4 10 6 2 1 2 4 3 2 1 3 2 4 5 3 3 1 2 2 1 1 1 4 2 3 3 8 9 10 8 9 10 8 9 11 12 13 13 14 14 14 13 12
30 31 30 31 28 26 21 15 12 22 12 5 3 3 2 3 3 2 4 3 3 4 4 5 4 2 3 1 3 2 2 1 2 3 2 2 7 8 9 9 9 9 11 13 13 14 15 16 15 15 15 14 15 13
32 31 30 30 28 23 17 21 16 5 4 3 3 4 3 2 2 2 3 4 3 3 6 4 3 1 1 2 1 2 2 1 2 2 0 4 10 10 8 8 10 10 9 11 13 15 15 15 15 14 14 16 16 13
32 31 30 27 24 20 20 12 5 5 3 3 1 3 2 2 2 3 2 3 3 3 3 4 3 1 2 3 1 1 2 3 2 1 2 4 11 11 10 9 9 9 8 9 13 13 14 15 16 15 12 12 14 15
33 28 21 24 21 17 10 6 4 3 3 2 3 3 2 6 6 4 5 5 2 2 1 2 2 2 2 2 3 3 2 2 2 2 3 8 11 10 9 8 8 11 12 12 12 14 15 14 15 15 13 12 12 12
17 9 24 21 18 12 5 3 3 4 3 3 3 3 5 5 5 3 2 3 2 1 2 1 2 2 3 2 2 2 2 2 2 3 4 8 11 10 9 11 12 13 13 14 15 15 15 14 16 15 13 10 10 9
23 27 23 18 13 7 4 6 3 4 5 4 3 4 5 3 3 2 2 3 1 1 0 1 0 2 2 3 2 2 2 2 3 3 5 7 9 12 12 13 13 14 15 15 15 15 15 15 13 12 13 12 9 8
28 24 19 13 3 3 2 4 4 4 4 2 3 3 3 2 3 3 2 1 2 1 2 1 1 2 2 1 1 2 3 3 4 4 5 7 11 13 13 14 14 15 16 16 17 14 14 12 11 13 12 11 7 6
28 20 11 5 5 3 3 3 2 3 2 2 2 3 2 1 1 1 1 1 1 1 2 2 3 1 1 1 1 2 3 6 7 7 6 6 10 13 14 15 14 16 16 15 13 14 14 12 11 11 10 8 6 6
17 10 5 4 4 6 3 2 3 2 3 2 2 3 2 2 1 0 1 1 2 2 3 3 2 1 2 2 1 2 6 8 5 4 7 8 13 13 14 13 17 17 16 15 15 14 12 12 12 11 11 8 7 6
8 6 2 5 3 3 3 4 3 2 2 3 3 1 2 2 2 2 1 3 3 2 2 1 1 3 3 2 2 2 7 8 7 8 10 18 10 10 13 16 17 15 15 15 15 14 13 12 12 11 10 9 7 6
9 3 3 4 3 3 2 1 2 1 2 3 2 2 1 1 1 1 2 2 2 1 1 1 1 2 4 5 6 6 7 8 6 6 10 10 12 14 15 16 16 16 15 14 14 14 14 12 13 12 10 9 8 7
4 3 3 3 3 2 0 2 1 2 2 2 2 1 2 2 1 2 3 2 1 0 1 2 4 3 4 4 3 5 6 6 7 8 8 11 11 12 14 15 15 15 14 16 15 14 13 12 13 11 10 9 7 6
2 2 0 3 1 2 2 3 2 2 1 3 2 2 2 2 2 2 2 1 1 2 2 3 4 2 2 3 4 5 5 7 6 4 7 9 12 14 13 13 14 14 15 17 15 14 13 13 12 10 10 8 8 6
2 1 0 3 2 1 3 3 3 4 2 3 3 1 2 2 2 3 2 0 1 2 2 3 4 3 3 3 4 5 7 7 7 6 8 10 13 15 14 11 13 11 13 14 16 15 14 14 13 12 10 9 9 8
2 2 1 0 1 2 2 1 2 2 3 4 3 4 3 2 3 1 1 2 1 1 1 0 2 3 3 6 6 7 9 7 5 5 10 10 9 10 14 15 14 14 16 13 12 15 17 16 15 13 12 10 8 6
1 3 3 4 3 2 2 2 3 3 3 3 4 4 3 3 0 1 1 3 3 2 2 2 2 2 5 7 9 12 10 10 11 13 13 11 8 9 10 10 11 15 15 12 12 13 14 15 15 14 12 12 9 7
3 3 3 3 2 3 4 4 3 2 2 3 2 3 2 2 1 2 3 5 5 5 5 6 4 6 9 9 8 7 13 14 15 13 10 8 9 5 9 14 17 17 17 16 14 13 14 15 15 15 14 12 11 8
4 4 3 4 3 5 2 1 0 2 1 2 2 1 2 2 2 4 5 6 7 7 6 6 9 9 10 11 10 9 8 9 7 11 8 8 11 15 16 16 16 16 16 17 18 19 17 17 17 16 14 11 8 7
3 4 3 3 3 1 2 1 1 1 0 0 0 2 2 2 3 4 7 7 7 6 8 8 8 8 11 11 12 12 9 9 9 8 7 12 17 20 18 18 17 16 16 17 18 18 18 15 13 12 11 10 8 7
3 5 3 4 2 2 1 1 0 1 1 2 2 1 2 2 3 3 0 4 7 9 9 8 9 9 10 9 10 7 7 14 14 12 11 17 19 21 22 20 19 18 19 19 18 18 15 14 13 11 11 9 8 7
2 2 1 2 2 2 2 2 2 2 2 2 2 1 2 2 4 2 1 2 4 5 6 7 6 5 10 10 9 10 9 14 15 14 15 18 23 25 23 21 20 21 21 20 18 16 15 14 13 11 10 10 8 7

GFSWCAN_925_spd_105.txt.gz
Wind_Speed
12 10 11 11 16 13 7 27 35 34 29 28 27 27 22 22 21 15 7 10 7 2 5 5 2 5 3 5 6 10 6 3 6 7 5 3 3 3 4 3 5 7 7 5 4 4 3 9 1 2 3 5 4 7
10 4 9 11 10 21 24 31 29 28 27 26 25 23 21 22 23 20 7 6 7 2 5 12 12 10 7 7 5 10 2 10 3 5 2 3 3 3 7 6 2 2 2 2 4 3 4 7 7 4 3 6 6 7
8 8 6 6 20 29 31 29 27 25 24 24 21 19 20 20 20 21 4 7 8 6 7 5 6 10 10 5 3 4 2 4 3 2 1 0 2 5 5 4 5 3 5 3 6 6 6 7 7 7 7 8 8 8
7 6 6 6 26 26 27 27 25 24 23 21 18 18 19 19 20 16 11 8 5 3 4 5 6 6 7 6 4 4 10 4 6 4 2 2 2 2 3 4 1 2 8 7 4 7 8 6 7 8 9 9 10 9
5 4 14 20 27 28 28 26 24 23 20 17 16 15 16 18 18 11 9 4 4 3 5 6 12 10 8 10 11 10 8 6 5 3 3 2 3 3 2 2 4 1 4 3 2 12 5 10 9 9 9 9 8 10
9 10 17 28 28 27 26 25 24 21 17 16 13 14 17 19 21 14 2 2 2 17 4 4 5 5 7 9 9 6 4 2 2 2 2 3 3 2 3 2 2 3 4 5 4 8 12 13 11 10 10 9 8 8
7 27 30 31 28 27 26 25 23 21 19 20 15 12 12 12 6 2 2 4 5 2 3 5 5 3 0 2 2 3 4 3 3 2 2 2 4 3 1 3 8 6 8 12 14 15 11 13 8 11 12 12 12 11
15 34 34 32 29 27 25 23 23 20 19 15 15 19 19 16 12 6 7 7 6 3 2 3 3 5 3 3 3 2 2 1 3 2 1 1 3 2 2 8 10 11 12 13 10 0 12 13 14 12 14 13 10 9
33 35 36 33 29 26 24 23 23 21 19 21 17 15 8 3 3 5 5 7 4 2 2 3 7 4 2 3 1 2 2 2 1 1 2 2 3 3 4 13 12 14 10 11 9 12 16 14 13 12 11 10 9 9
37 32 32 32 30 26 24 23 23 23 22 12 4 3 3 3 7 2 1 1 1 2 1 2 4 4 4 3 2 3 1 1 3 2 3 2 1 5 3 12 11 12 9 13 13 14 13 12 11 11 10 9 9 10
37 36 34 32 29 26 25 25 24 19 9 3 2 2 7 3 2 1 2 2 2 3 2 3 7 7 4 3 3 2 2 1 3 3 3 4 3 6 7 10 11 11 12 11 11 12 12 11 11 10 9 11 12 12
36 35 33 31 28 24 23 21 17 6 3 3 9 8 3 1 2 3 2 2 3 3 4 7 7 6 4 1 2 2 2 2 1 2 2 2 4 10 9 11 11 10 12 10 12 12 11 12 12 12 13 13 13 13
36 33 30 30 27 22 19 15 7 16 14 4 2 3 1 1 2 3 5 3 4 4 4 6 6 3 3 2 2 2 2 1 2 2 2 3 8 9 11 11 10 10 11 11 12 15 16 14 13 14 14 12 14 14
34 31 28 30 23 19 14 19 13 5 0 2 2 3 2 3 2 1 3 5 3 2 7 6 3 2 1 2 1 2 2 2 2 3 2 4 10 10 9 10 11 10 10 11 13 16 16 16 14 14 14 13 13 13
33 31 30 24 20 16 18 8 6 4 3 3 3 3 3 3 3 3 3 5 2 4 6 5 3 3 2 2 2 1 2 3 3 2 2 6 11 10 10 9 11 10 10 10 14 15 15 16 15 15 13 12 11 12
31 27 21 19 18 15 9 5 6 4 3 2 4 3 4 6 5 5 7 5 3 3 3 3 2 3 2 3 3 3 2 2 3 2 3 7 10 10 9 9 10 12 13 14 14 15 16 15 16 16 13 11 11 11
15 9 18 17 11 7 5 3 3 3 2 2 3 3 3 6 5 4 3 4 2 2 2 1 2 1 2 2 2 2 2 3 2 3 4 7 10 10 10 12 13 14 14 15 16 16 16 16 16 16 14 12 12 10
23 21 16 12 7 4 3 4 3 3 4 4 4 4 5 3 4 3 2 4 1 1 0 2 1 2 2 3 2 2 3 3 3 4 5 7 9 13 13 14 14 14 15 15 16 17 16 17 15 13 15 14 13 11
23 16 11 5 3 2 2 3 4 4 4 3 3 4 4 3 4 3 2 2 1 2 2 1 1 2 1 3 3 2 4 3 5 6 6 9 12 13 14 14 14 14 16 17 17 15 16 15 12 15 14 14 10 10
21 15 8 7 4 1 3 3 2 3 2 3 3 3 3 2 2 1 1 1 2 2 2 1 1 2 2 3 3 3 4 5 7 7 7 6 10 13 13 13 13 15 16 16 15 16 15 12 13 13 12 10 10 8
12 6 7 6 4 7 3 2 3 2 3 2 3 2 2 2 2 2 1 1 2 2 1 1 2 2 3 3 4 4 6 6 5 4 8 8 13 12 13 12 15 16 16 16 15 14 14 13 13 12 11 9 8 8
4 6 4 6 4 3 3 5 3 3 2 3 3 1 2 2 2 1 1 2 2 2 1 1 1 3 3 2 3 3 8 6 6 7 11 16 9 8 12 14 15 14 15 15 16 16 13 13 13 13 12 10 9 8
6 4 4 4 3 3 3 2 2 1 2 3 2 1 1 1 1 0 2 2 1 2 1 1 3 2 5 6 6 7 7 6 5 6 9 10 11 12 14 15 15 14 14 16 16 15 14 14 14 13 13 11 10 8
4 3 3 3 4 2 0 1 1 3 2 2 2 1 1 0 0 1 2 1 3 2 2 3 3 3 3 4 4 5 6 5 7 7 8 10 9 11 12 14 14 14 15 16 16 15 16 15 15 13 12 11 9 8
0 3 2 3 1 2 2 3 1 2 2 2 1 1 1 2 1 1 2 1 1 1 2 3 3 3 2 2 3 5 3 5 6 5 6 8 10 12 12 13 13 13 15 17 16 16 16 15 14 13 11 10 9 8
1 1 2 1 1 1 2 2 3 3 2 2 2 1 1 1 2 3 0 1 1 1 2 3 3 3 2 1 3 4 6 5 5 6 6 8 11 12 12 9 11 12 15 17 17 17 16 15 14 13 11 10 9 9
2 2 2 1 1 1 1 0 1 2 3 3 2 3 2 2 2 1 2 1 1 2 3 2 1 1 2 6 7 7 7 6 4 7 9 8 7 8 12 13 14 15 15 15 16 16 16 15 15 13 12 10 9 8
1 2 2 4 3 2 1 2 3 3 3 2 2 4 2 2 1 2 2 3 4 4 4 4 3 2 4 7 9 10 9 10 12 13 12 10 8 9 10 10 14 21 15 14 13 14 15 15 15 14 13 12 10 8
2 2 3 4 2 3 3 3 2 2 1 2 2 2 2 1 2 1 3 5 5 5 5 6 5 7 8 8 8 7 11 12 13 10 10 7 9 7 8 12 15 15 15 15 15 15 15 15 15 15 15 14 12 10
3 4 3 4 3 4 1 2 2 2 2 2 2 1 2 1 1 2 4 5 6 5 5 5 8 8 8 9 8 8 7 7 5 7 6 7 10 15 14 15 16 16 16 17 19 21 22 21 20 18 16 14 11 10
3 5 3 4 2 1 1 1 0 1 1 1 1 2 2 2 1 2 4 4 4 5 6 6 7 7 8 9 10 10 7 7 7 4 8 14 16 17 17 16 16 17 17 17 17 17 18 16 15 15 14 12 11 10
4 5 4 4 2 1 1 1 1 2 2 2 2 2 2 2 3 3 2 1 5 6 7 7 8 8 8 8 8 8 6 12 12 9 11 14 17 18 18 17 17 17 17 17 17 18 16 16 15 14 13 12 11 10
2 3 2 2 3 3 2 2 2 2 3 3 2 1 2 2 3 3 2 2 1 3 2 3 4 7 9 9 9 8 10 12 12 13 15 17 19 20 19 18 18 18 19 18 17 17 16 16 15 14 13 12 11 10

GFSWCAN_925_spd_108.txt.gz
Wind_Speed
18 18 13 11 11 12 20 23 22 22 30 32 38 36 33 29 25 21 6 8 5 2 8 9 4 3 10 4 8 11 6 4 4 6 5 3 2 2 4 2 9 7 5 6 6 8 5 8 3 3 5 7 8 6
15 13 11 11 16 18 20 20 28 28 37 37 32 29 30 26 21 17 3 7 7 3 3 13 15 13 8 4 7 10 3 11 5 6 4 1 2 1 6 5 2 2 2 2 5 3 5 8 10 5 5 9 8 8
13 12 13 13 10 12 16 29 29 29 30 31 29 26 26 22 21 16 6 7 5 3 4 3 4 9 9 7 7 4 2 4 1 2 1 0 2 4 5 3 5 4 5 3 6 6 6 7 8 8 9 10 9 9
11 10 9 6 10 28 30 29 28 27 27 25 24 22 23 23 21 19 11 8 1 1 3 5 5 5 6 5 6 7 9 3 4 3 1 1 1 4 3 4 3 2 7 9 5 7 8 6 7 10 11 10 11 11
8 7 11 6 26 28 26 25 24 25 23 20 20 19 22 19 22 16 11 8 3 3 3 6 11 9 8 10 10 9 8 6 4 3 1 2 3 3 2 4 5 3 3 4 1 14 2 12 10 11 11 11 11 12
6 9 7 20 28 26 24 23 24 22 20 19 18 19 21 21 18 7 2 8 7 14 2 4 4 5 7 8 8 5 1 1 1 2 2 3 2 2 2 2 2 7 6 3 4 10 12 12 11 11 12 11 11 12
8 5 7 24 24 23 22 23 23 21 20 17 18 20 19 20 15 2 2 4 4 3 2 4 4 2 2 2 2 3 1 1 1 1 2 3 3 2 2 3 8 9 9 12 15 17 11 14 8 11 13 14 15 15
4 14 25 23 24 24 24 24 23 19 18 17 18 20 21 14 13 4 2 9 5 1 2 2 4 4 5 3 3 2 2 2 3 2 1 1 3 2 2 6 12 11 10 10 12 0 13 12 15 13 16 15 12 11
16 26 26 26 25 24 24 24 23 21 20 23 24 22 12 5 3 4 7 6 2 2 1 3 6 4 2 2 2 1 2 1 0 1 1 1 3 2 7 12 13 12 8 10 6 13 15 14 14 13 12 12 11 10
27 32 29 27 25 24 24 23 23 23 23 17 8 4 3 3 11 7 1 2 1 1 2 3 4 4 4 2 1 2 2 2 3 2 3 1 2 4 10 12 11 11 11 11 12 12 12 13 12 12 11 9 11 11
33 33 32 28 24 23 23 23 20 18 7 3 2 2 6 7 2 1 2 2 2 2 2 4 6 6 5 3 3 1 2 0 2 3 2 3 3 6 8 12 9 8 10 9 10 11 10 10 10 9 9 12 14 14
34 31 30 27 23 23 22 21 19 5 3 4 9 11 3 1 1 2 2 1 4 3 3 6 7 6 2 1 2 1 1 1 1 2 1 2 4 10 9 9 9 9 6 6 13 12 13 13 12 13 13 14 18 18
36 33 29 27 25 25 22 14 5 7 14 6 3 3 2 1 2 4 5 3 4 3 2 6 5 2 2 4 2 1 1 1 1 2 2 3 8 8 9 10 11 10 10 8 11 14 17 16 17 17 17 19 19 16
33 30 25 25 23 19 14 12 11 3 4 2 3 3 1 3 1 3 5 4 2 3 5 6 3 2 2 3 1 1 2 2 2 3 2 5 7 7 8 9 10 10 9 10 12 18 18 19 19 20 18 18 18 15
30 28 26 22 19 17 13 8 5 3 3 3 3 3 3 2 4 3 3 4 2 4 5 4 3 3 2 2 1 2 2 3 3 3 2 6 9 7 9 10 10 10 10 9 14 14 16 17 17 17 15 15 17 18
32 26 20 17 18 13 8 7 5 3 2 3 4 2 3 5 4 4 4 3 2 2 4 3 2 2 2 4 3 3 2 2 3 2 3 7 9 8 9 9 8 11 12 13 13 15 15 16 16 17 16 16 17 16
15 8 16 15 12 7 5 4 4 4 3 3 3 2 2 5 4 3 2 1 2 1 0 2 2 1 1 2 4 1 2 2 3 3 3 6 9 9 9 10 11 13 14 14 15 15 16 17 19 17 15 13 13 13
22 17 14 11 5 5 7 5 3 2 4 4 3 4 5 4 3 3 2 4 2 1 2 3 3 2 1 2 2 3 3 3 3 4 5 7 8 12 11 11 12 13 15 15 16 17 17 17 16 14 16 16 14 12
18 13 9 5 4 2 2 3 3 3 4 3 3 4 4 2 2 2 1 3 3 4 1 3 1 1 2 3 3 4 4 4 5 5 5 9 11 12 13 13 13 14 15 16 18 15 16 16 14 16 15 15 12 12
17 12 8 7 3 1 3 3 4 3 3 3 3 3 2 2 2 0 1 1 2 1 2 1 2 2 2 3 2 4 5 7 7 7 6 5 10 12 13 13 13 15 15 15 14 16 15 13 15 15 15 13 13 12
11 7 9 7 6 10 4 3 3 2 3 3 2 2 2 2 2 2 2 3 1 2 1 3 3 4 4 4 4 7 5 6 5 5 8 7 11 12 13 11 16 14 13 13 13 13 13 13 14 15 12 11 13 13
3 6 4 7 5 4 4 7 3 2 2 3 2 1 2 2 2 1 1 1 1 1 2 2 3 4 4 4 3 5 7 8 8 12 15 16 7 7 9 14 13 11 13 14 14 14 13 15 17 16 14 14 14 12
4 5 5 5 3 4 2 2 2 1 2 3 2 2 2 1 1 1 1 2 1 2 3 2 4 6 7 7 7 8 7 7 6 8 11 10 11 13 12 14 13 13 12 13 15 15 15 18 18 18 17 14 15 11
6 4 4 3 4 2 1 1 1 3 2 2 2 2 2 1 0 1 2 1 2 3 2 2 3 3 4 5 4 5 5 7 12 8 8 12 9 10 12 12 12 13 14 15 17 15 18 18 18 18 16 15 14 14
1 3 2 3 1 1 2 2 2 2 2 2 1 1 2 1 1 1 1 2 2 2 1 1 2 2 0 2 5 8 1 6 9 6 6 11 12 11 11 11 12 12 14 18 18 18 17 18 17 16 15 14 14 14
3 2 3 1 0 0 2 2 2 2 2 1 1 2 1 1 1 2 1 2 2 1 2 2 2 2 1 2 3 4 5 3 8 8 7 11 13 12 10 8 9 10 15 17 20 19 18 17 17 17 14 14 13 14
1 1 1 1 2 1 1 1 2 2 2 2 3 2 1 2 2 2 2 3 2 3 3 4 5 3 4 8 10 10 8 6 6 10 10 9 8 8 13 12 11 13 16 18 19 20 19 17 18 16 16 14 12 12
1 2 1 2 2 1 2 2 4 3 3 1 3 3 2 1 2 2 2 5 6 6 5 5 6 6 8 11 12 11 9 12 17 16 15 13 11 11 11 12 14 18 17 20 20 20 20 19 19 19 17 15 13 12
2 1 2 3 2 2 2 2 2 2 3 2 1 2 1 3 2 2 5 6 7 7 7 7 6 6 8 8 8 7 11 11 10 8 8 6 7 7 12 18 20 18 17 18 19 20 21 21 20 20 19 17 14 12
3 4 3 3 2 3 2 4 2 2 3 3 2 1 2 2 3 2 4 5 5 4 5 6 9 8 8 9 8 7 8 8 7 7 5 7 10 14 15 17 18 19 21 23 25 25 24 24 23 21 20 17 14 12
3 4 3 4 2 2 3 2 1 1 1 0 1 1 2 2 3 2 0 1 2 3 5 6 6 7 9 9 10 9 7 7 4 3 10 18 21 21 19 19 20 21 22 23 25 23 23 20 19 18 17 15 14 13
4 5 4 4 2 2 1 1 1 2 2 2 2 2 1 2 2 2 3 2 2 3 4 4 6 7 7 7 8 9 7 11 12 12 15 18 20 21 21 22 22 20 19 20 19 21 19 19 18 17 17 15 14 13
3 3 0 0 2 2 2 2 3 2 2 3 1 1 1 2 2 2 3 3 3 6 8 3 4 8 10 8 9 8 11 13 13 13 16 19 22 23 23 21 19 21 21 21 20 19 19 18 18 17 16 16 14 13

GFSWCAN_925_spd_111.txt.gz
Wind_Speed
14 18 19 15 9 8 10 14 18 18 23 26 25 23 20 33 36 24 11 9 1 1 4 6 5 3 4 5 4 6 4 3 2 3 3 2 1 1 3 2 7 4 5 3 3 2 4 6 1 3 6 7 9 8
14 17 15 13 11 14 17 21 25 26 34 31 29 26 24 28 31 22 4 12 3 2 1 7 14 6 4 3 4 4 6 5 4 3 2 2 4 1 5 3 2 1 4 4 2 2 5 7 7 3 8 10 7 8
13 15 15 15 15 18 18 21 22 23 27 33 28 29 32 29 27 20 9 9 4 2 1 3 2 4 0 4 5 4 2 3 2 3 2 1 2 3 2 2 4 3 4 4 4 5 6 7 7 10 10 11 10 9
12 14 13 16 16 12 7 34 30 34 35 39 37 33 30 26 24 12 13 11 5 2 2 2 2 2 3 9 13 9 6 6 4 3 1 1 2 3 1 3 3 4 5 7 5 8 9 8 7 10 11 11 12 10
12 11 14 12 6 23 28 30 29 31 31 32 32 31 27 26 24 12 12 4 7 1 2 2 5 9 9 10 10 9 8 4 2 1 2 1 1 3 2 3 3 3 5 4 3 14 4 11 12 12 11 12 12 12
10 13 12 5 26 29 28 29 29 28 28 27 27 27 26 24 21 8 1 2 9 5 2 2 3 3 9 10 9 4 2 1 1 3 2 2 2 3 3 2 4 6 7 3 5 8 12 15 13 12 12 12 12 12
11 11 1 23 27 28 28 29 27 27 26 26 26 22 25 20 17 2 2 6 12 9 2 2 2 4 5 0 2 2 4 2 2 1 2 3 1 2 2 3 7 11 12 15 16 19 11 13 8 12 13 17 19 17
12 3 23 25 26 28 28 27 27 25 23 23 23 20 19 15 8 3 2 10 7 3 2 3 1 2 2 2 2 2 1 2 4 1 2 3 1 2 3 5 10 9 13 13 8 8 13 12 14 12 17 17 12 10
6 11 23 25 27 29 27 25 25 21 22 24 25 25 15 1 3 3 8 4 1 1 3 2 4 3 2 1 2 3 2 2 2 1 1 3 1 0 6 12 11 8 5 8 11 14 16 15 14 13 12 12 11 9
10 23 25 27 28 27 23 22 23 22 25 26 20 5 1 3 9 10 1 2 3 2 2 2 3 1 3 0 1 2 2 3 1 3 2 3 1 2 9 10 11 8 9 9 13 13 14 14 12 12 10 11 11 11
27 25 26 26 27 24 22 23 28 26 21 6 2 2 3 11 1 1 1 2 1 1 1 1 3 4 1 3 2 1 2 1 2 3 3 1 0 2 10 10 8 9 7 8 9 8 10 10 10 8 9 15 18 18
27 27 27 26 26 26 21 21 16 4 3 4 10 7 4 2 1 4 1 2 1 3 1 4 4 3 1 3 3 3 2 3 1 1 3 0 1 5 7 11 10 8 8 7 13 11 14 14 15 16 16 16 17 23
31 29 26 23 24 22 18 13 4 5 11 6 3 3 2 3 4 4 3 2 2 1 1 3 3 2 3 3 2 3 4 1 1 2 2 1 5 5 8 8 8 9 12 12 11 16 21 18 24 22 16 21 25 23
31 30 26 24 23 19 13 11 9 1 2 2 3 4 2 1 2 3 2 2 2 3 5 4 3 3 1 4 1 4 2 2 2 1 2 2 6 7 8 7 10 8 9 11 12 18 19 21 19 20 22 24 25 23
30 28 25 23 17 13 10 8 7 5 4 3 4 3 3 1 3 2 2 2 3 2 4 3 3 3 1 3 1 3 3 2 3 1 1 4 7 8 9 9 10 10 10 9 15 16 18 20 19 17 20 21 24 25
27 24 18 20 14 10 8 5 6 4 3 3 5 3 1 4 3 3 3 2 4 1 2 3 2 3 1 4 2 4 2 1 2 2 2 6 7 8 8 8 8 12 15 14 14 17 18 18 18 18 20 22 24 24
17 8 14 15 8 6 5 2 3 3 3 3 2 1 3 4 3 3 3 3 3 3 1 2 3 3 1 0 3 2 2 2 3 2 3 6 8 8 8 9 12 14 15 15 16 16 17 20 23 20 17 20 19 18
19 15 12 8 2 5 6 4 3 4 4 3 3 3 4 3 2 3 3 3 3 1 2 1 1 3 1 0 2 2 2 3 3 3 4 7 8 11 11 10 13 15 15 16 16 17 20 19 16 14 18 19 19 19
17 12 8 5 3 2 3 5 4 3 3 2 2 2 3 2 2 1 2 3 3 2 3 2 2 1 2 2 2 3 4 2 3 3 5 9 12 12 13 14 15 15 16 17 17 15 16 16 16 19 19 20 17 21
13 9 7 5 6 3 3 3 4 4 2 1 2 2 2 1 1 1 3 3 2 2 2 2 2 2 2 1 1 3 4 6 6 5 5 4 11 14 12 13 13 16 15 15 14 17 16 15 20 21 22 22 22 21
8 9 10 7 4 11 3 2 3 2 2 2 1 2 1 2 2 2 2 3 3 2 2 1 3 2 2 5 8 10 8 10 5 4 6 5 9 11 12 12 16 14 12 12 12 14 14 17 21 24 23 21 19 17
4 7 4 7 4 3 3 6 3 2 2 1 1 1 2 2 1 1 1 2 1 1 1 2 2 2 1 1 1 8 8 8 10 15 16 16 7 6 8 14 14 10 14 15 15 15 19 23 24 21 23 25 23 23
5 5 5 4 4 4 1 2 2 2 3 2 1 3 2 1 1 1 1 1 1 1 4 3 5 10 6 7 7 7 6 11 8 11 13 13 13 15 14 15 17 13 11 18 18 18 22 26 25 25 24 23 21 21
4 4 3 3 3 1 2 2 2 3 2 2 2 3 2 1 0 1 1 2 1 1 2 2 3 2 3 4 2 1 5 15 14 13 14 13 9 10 15 15 15 16 18 20 21 18 24 23 26 25 24 24 23 22
5 5 3 3 2 2 2 2 3 2 2 1 2 2 2 1 1 1 1 2 1 2 2 1 2 2 1 2 2 8 6 8 10 4 12 15 13 13 13 13 14 16 19 22 18 21 20 25 25 25 24 22 22 20
4 3 3 1 2 1 2 2 1 2 3 1 2 2 1 1 1 1 2 1 2 1 2 2 2 1 1 2 2 2 7 5 12 10 12 16 17 15 10 6 6 12 18 24 25 23 22 23 25 24 21 21 22 24
2 1 0 1 1 2 3 2 2 3 2 2 3 3 2 1 3 1 2 2 2 3 4 6 6 4 5 9 14 13 9 7 10 12 12 12 11 14 18 15 12 15 20 25 28 28 26 24 24 22 19 23 25 24
1 2 3 2 2 2 1 1 2 2 2 1 3 2 3 1 2 1 2 3 6 7 7 7 7 11 14 14 14 13 14 17 18 16 14 11 8 9 10 12 14 18 20 23 25 24 25 24 24 25 25 23 20 19
1 1 3 3 0 1 2 2 2 1 3 1 3 1 1 2 2 2 4 7 8 8 6 6 7 8 11 10 9 7 13 13 11 5 5 2 3 6 13 17 19 19 20 21 21 22 23 25 25 25 24 23 20 18
1 2 1 3 2 2 1 2 2 2 2 1 0 0 2 2 2 4 6 6 5 5 6 7 8 7 7 7 7 9 11 11 10 11 4 4 9 11 17 22 22 21 24 26 26 26 25 25 24 23 23 21 19 18
2 3 1 1 2 2 2 1 1 0 1 1 2 1 2 2 4 3 2 1 3 4 6 8 8 8 10 10 10 8 5 9 6 5 4 15 20 20 20 21 22 24 26 28 29 29 28 26 25 24 21 20 18 18
3 4 2 1 2 2 1 1 1 1 1 1 1 1 1 1 2 2 5 4 2 1 1 4 7 7 8 8 11 13 6 10 9 9 13 20 22 22 21 20 20 22 24 25 25 25 23 23 22 21 20 19 18 16
2 2 1 2 2 3 2 1 2 1 2 2 2 1 1 1 0 2 4 4 4 6 9 6 2 6 9 8 10 10 10 9 12 12 14 17 21 22 22 21 20 21 21 21 21 20 20 21 21 21 20 20 18 17

GFSWCAN_925_spd_114.txt.gz
Wind_Speed
11 14 15 20 18 9 10 17 20 23 28 30 30 30 28 29 33 25 13 14 4 1 1 3 5 8 3 5 5 5 4 2 1 3 3 2 3 3 3 4 6 9 6 3 3 2 5 2 0 5 5 4 7 5
11 14 15 17 14 9 9 11 15 18 22 25 22 29 27 30 27 24 6 16 7 3 1 3 11 13 4 4 5 5 4 5 4 3 1 3 2 0 4 3 3 1 5 5 2 2 2 3 4 7 5 9 7 9
12 14 16 16 12 12 16 19 21 22 24 24 27 24 21 22 34 22 17 16 5 2 1 1 4 8 5 2 3 4 1 5 2 4 3 2 3 3 3 3 3 2 3 4 4 4 5 7 8 8 10 9 11 12
12 14 16 16 18 20 25 24 25 31 34 29 27 22 17 22 28 21 15 17 3 2 2 3 12 5 4 10 16 6 7 3 5 3 2 3 2 1 3 4 3 3 5 7 4 7 8 6 7 11 11 12 12 10
13 15 14 22 19 7 10 18 25 31 34 31 28 26 27 31 23 16 15 17 3 1 3 2 3 7 7 6 12 10 7 4 2 2 2 2 1 2 1 3 2 1 5 4 4 12 4 11 11 13 12 11 10 12
9 13 20 9 3 24 35 34 32 32 36 35 36 33 31 29 22 13 2 13 14 5 3 2 3 6 9 10 8 5 2 3 2 3 2 1 2 3 3 1 1 2 3 3 4 9 8 15 14 12 12 13 11 11
13 8 7 23 24 28 28 31 33 37 37 35 33 29 28 27 19 2 2 9 19 10 2 2 2 4 4 3 3 3 3 2 3 2 2 2 1 3 2 2 4 5 9 13 16 18 13 13 9 13 12 17 19 17
9 11 24 24 27 27 29 30 30 31 32 32 31 28 25 22 1 1 5 12 13 2 2 3 1 3 4 2 2 2 2 3 4 2 2 2 2 2 2 5 8 8 12 15 8 2 12 14 16 14 18 17 13 11
11 23 26 28 27 28 29 31 32 32 31 32 29 24 12 3 1 2 10 8 7 3 3 2 4 2 2 2 1 3 3 3 2 2 1 2 2 1 6 12 11 12 6 8 11 14 16 17 15 15 15 14 13 12
18 26 28 28 28 29 25 25 29 28 31 32 14 3 2 3 9 11 3 2 3 2 2 2 2 1 3 1 2 2 2 2 1 2 2 3 1 3 10 7 10 7 10 14 14 14 16 15 15 15 14 10 12 12
26 28 28 27 28 26 23 28 32 33 18 3 1 2 4 9 2 2 1 2 1 2 1 1 3 4 1 3 2 1 2 0 2 3 3 1 1 0 6 8 6 7 11 11 9 9 11 13 13 12 11 15 18 19
28 28 27 24 24 26 30 26 19 10 4 3 5 7 5 2 3 4 1 2 1 3 0 4 3 3 2 2 3 3 2 2 1 1 3 0 1 4 7 7 6 7 10 9 15 13 14 14 15 16 17 17 19 22
27 28 27 25 23 23 21 12 6 7 14 5 2 3 3 3 6 4 3 2 2 0 1 2 3 2 3 4 3 3 4 2 1 3 2 2 4 5 7 6 6 6 12 11 9 15 21 17 20 23 17 17 25 24
27 26 25 21 18 18 9 10 8 4 3 3 3 4 3 3 1 1 1 2 2 3 6 4 3 3 1 3 0 4 2 2 3 1 3 2 6 7 5 6 9 6 7 10 11 17 19 20 16 19 23 25 25 23
25 25 23 17 14 13 12 11 8 8 4 3 3 3 2 1 3 2 1 2 3 2 4 3 3 3 2 3 1 3 4 1 4 4 1 4 7 8 8 8 8 8 8 8 13 13 15 19 19 17 19 23 23 26
24 21 16 12 12 10 9 8 8 4 3 3 4 3 2 4 2 2 3 3 4 2 2 3 3 3 1 3 3 3 4 4 3 1 2 5 6 6 7 7 7 10 12 13 13 15 17 17 18 19 20 21 23 25
17 6 13 9 8 7 7 5 4 4 3 3 3 3 2 3 2 2 2 2 3 3 2 2 3 3 2 1 1 1 2 1 3 2 3 3 7 7 7 7 11 13 13 15 16 15 16 20 23 20 16 17 22 22
12 12 7 5 6 9 5 6 3 4 4 3 3 2 3 2 1 2 3 2 3 2 2 1 2 3 3 2 2 1 2 2 3 3 3 5 5 8 11 9 12 14 14 15 16 18 20 19 16 14 17 18 19 20
14 8 4 5 4 3 3 5 4 3 3 1 2 2 2 0 1 0 2 3 1 1 3 2 4 1 2 1 2 2 3 2 2 2 2 5 9 11 13 14 15 14 15 16 16 14 15 15 15 19 20 20 17 19
10 10 8 8 4 4 4 3 4 3 2 1 2 3 1 1 1 2 3 3 3 2 4 3 1 1 1 1 1 3 3 5 4 3 3 3 8 12 11 12 11 14 14 14 12 15 14 13 16 19 20 21 22 21
7 9 8 8 5 8 3 2 3 2 2 2 2 2 2 2 3 3 3 3 3 2 2 2 2 2 1 3 9 9 5 5 3 3 3 3 7 10 10 12 14 12 12 11 11 12 14 14 17 21 23 24 26 26
6 6 4 6 4 3 3 4 3 2 2 1 2 1 2 1 2 2 2 4 2 1 1 1 2 1 1 3 2 8 12 11 10 7 11 14 5 4 7 11 12 9 12 14 13 14 15 18 20 22 22 22 23 24
4 4 4 5 5 4 1 3 3 1 3 1 1 2 2 1 1 1 2 1 1 1 1 2 3 7 5 5 7 6 7 12 7 8 11 10 12 13 13 16 17 15 10 15 18 19 19 21 23 25 23 25 24 24
5 4 3 2 3 1 2 3 2 2 2 1 2 3 2 1 0 0 1 1 1 0 2 1 3 2 3 3 1 1 6 11 11 10 13 13 7 9 14 14 17 18 19 18 19 20 22 22 25 26 27 26 25 24
5 5 4 4 3 4 3 3 2 3 1 1 3 1 2 2 1 1 1 2 1 1 2 1 1 1 2 1 1 4 9 12 9 4 14 14 11 10 10 14 17 18 19 21 18 21 20 23 25 27 28 28 26 24
4 4 3 2 2 3 2 2 1 3 2 2 1 2 2 1 1 2 1 1 1 1 2 2 2 1 1 1 2 2 4 8 8 6 12 16 16 14 9 5 5 12 22 25 25 22 22 23 25 26 25 26 28 27
3 2 2 0 1 2 3 2 1 4 2 3 2 3 3 2 3 2 1 2 1 2 1 2 5 5 4 6 9 8 8 8 7 9 8 13 13 15 18 17 12 18 22 24 26 27 27 25 25 25 23 24 27 26
3 2 3 3 2 1 3 2 2 2 2 1 3 2 6 5 2 1 1 3 5 6 6 6 4 8 13 13 11 11 9 10 12 12 11 9 7 8 10 13 13 16 19 22 26 26 27 28 27 26 26 25 25 24
1 2 3 2 2 1 1 2 2 0 2 1 4 1 1 2 2 2 5 7 6 6 5 5 6 8 10 9 7 4 10 15 10 4 3 1 2 3 11 12 14 17 19 22 24 24 24 25 26 26 24 24 24 22
2 1 3 1 3 2 2 1 1 1 2 2 1 1 2 2 3 5 7 7 6 5 6 6 6 6 6 8 7 8 10 9 6 6 4 4 7 9 16 18 18 18 19 21 21 22 22 22 23 23 23 23 22 22
2 3 3 1 3 1 1 0 1 0 1 1 2 1 2 2 3 3 3 1 2 4 7 8 9 9 8 8 7 6 5 13 10 9 10 8 12 15 18 18 18 20 23 23 25 25 25 24 25 26 24 23 23 22
2 3 2 1 1 1 1 1 1 1 2 1 1 1 1 1 3 1 5 3 1 3 1 6 10 9 11 10 11 12 5 10 11 8 7 12 18 18 19 20 20 22 24 25 25 25 25 25 25 24 23 21 20 19
2 1 1 2 1 3 2 2 1 2 1 2 2 1 1 1 3 2 2 3 5 4 4 4 2 6 9 9 9 13 11 7 5 8 8 14 18 19 19 19 19 20 22 23 23 23 22 21 22 21 20 20 19 18

GFSWCAN_925_spd_117.txt.gz
Wind_Speed
10 11 12 14 15 20 28 36 37 33 34 33 31 30 29 29 26 29 20 25 13 2 3 7 4 4 2 3 5 4 3 1 2 1 2 3 3 5 4 4 6 8 7 4 4 3 6 2 3 6 4 4 5 4
11 13 15 16 17 20 12 10 22 31 35 37 35 33 32 30 26 31 9 25 28 4 2 7 10 13 8 7 4 3 3 5 4 3 2 4 2 2 5 3 1 2 6 4 3 4 1 2 2 3 4 5 3 5
13 15 16 17 16 13 10 10 12 19 21 28 32 32 32 32 29 31 13 19 9 0 2 2 6 6 11 18 12 4 3 5 4 5 3 2 3 3 3 3 4 1 2 4 3 3 3 4 5 5 6 8 8 11
15 17 18 18 19 17 17 17 17 18 19 23 26 28 31 28 31 26 19 22 7 2 2 3 7 8 14 8 12 13 5 5 1 2 2 2 3 2 2 3 3 2 6 7 3 4 6 4 5 10 10 12 12 11
16 19 19 21 22 24 26 26 25 22 23 21 25 27 25 27 28 22 23 23 8 2 3 2 7 3 5 4 7 6 7 5 2 2 2 1 2 3 1 2 1 3 5 4 5 11 3 9 10 13 14 13 12 13
15 18 23 28 32 24 26 26 33 32 29 29 26 28 19 26 37 19 3 17 16 5 2 1 3 5 1 13 11 5 3 3 3 3 2 1 1 3 2 2 0 1 1 3 4 11 4 13 13 12 13 12 11 11
17 24 14 5 19 16 16 24 35 34 36 31 27 26 26 32 26 3 3 5 25 10 2 2 3 5 4 4 3 3 4 2 3 2 2 2 2 3 2 2 3 4 6 11 14 18 11 10 7 12 13 15 19 17
13 6 17 17 28 32 32 35 38 36 33 28 29 34 28 21 8 1 3 17 21 3 2 3 1 3 5 2 2 2 2 2 4 2 1 2 1 1 2 2 4 6 9 11 3 4 9 12 14 13 18 17 14 12
11 15 20 23 26 31 38 42 43 42 38 35 32 28 15 3 2 2 11 13 11 1 3 2 3 2 2 1 1 3 2 3 2 2 1 2 2 1 3 10 8 10 5 7 8 12 15 15 15 14 14 14 13 13
16 20 23 25 27 29 33 36 38 36 33 32 17 3 2 3 14 14 3 1 2 1 1 2 0 1 3 1 2 2 2 1 2 2 1 3 1 2 4 6 8 7 9 12 13 10 12 13 14 15 14 12 11 12
20 22 23 24 25 31 33 35 36 34 14 3 2 2 9 17 5 1 1 2 1 1 1 1 2 3 2 3 2 1 1 1 2 2 2 1 1 1 4 6 6 6 9 7 6 7 9 12 13 13 11 13 17 19
22 23 22 24 26 27 26 28 16 4 2 2 13 8 5 2 3 4 1 2 0 3 0 4 2 3 2 2 3 3 2 2 1 2 3 1 2 3 6 6 6 7 8 8 12 9 10 14 16 14 14 16 19 20
21 22 24 29 27 23 18 16 12 6 8 5 5 3 2 3 6 4 3 1 1 1 2 2 3 2 2 4 3 3 4 2 1 3 2 3 2 4 6 5 6 5 8 9 8 14 16 15 18 18 15 17 23 22
24 24 25 20 20 16 12 11 14 8 3 3 3 4 2 2 1 1 1 2 2 2 5 4 3 3 1 4 1 4 2 2 3 1 4 2 4 6 5 4 6 6 7 8 9 14 15 17 15 20 22 23 23 21
23 21 22 19 7 7 12 16 3 1 4 3 3 3 2 1 1 1 1 1 3 2 3 3 3 3 3 4 2 3 3 1 4 4 2 2 6 6 6 5 6 6 7 7 11 12 13 17 16 14 19 23 23 24
23 22 15 8 8 12 9 8 9 3 3 3 4 3 2 3 3 2 3 2 3 1 2 3 3 3 2 3 3 2 5 4 3 1 1 3 5 5 6 6 5 7 9 11 12 13 15 16 17 17 20 22 23 26
12 6 10 10 11 12 9 5 6 5 3 4 3 2 2 1 2 2 3 3 3 3 2 2 3 2 2 2 1 2 2 1 2 1 2 2 6 7 7 7 8 11 12 13 15 14 15 18 22 19 15 16 21 22
11 8 9 8 9 5 5 7 3 3 4 2 3 2 2 2 1 2 3 2 2 2 2 1 3 3 3 2 1 1 1 2 3 3 2 4 4 6 8 8 11 13 12 14 15 17 18 18 14 12 17 19 19 18
9 8 8 7 6 4 3 5 4 3 3 1 1 2 0 1 1 1 2 3 1 2 3 2 4 2 1 1 1 2 2 2 2 1 2 4 7 9 12 13 13 12 14 14 14 12 13 13 13 17 19 20 18 19
11 11 9 7 5 4 3 3 4 3 2 2 1 3 1 0 2 2 3 3 3 2 4 3 1 1 2 1 1 2 3 4 3 2 2 2 6 10 9 10 9 12 12 13 12 14 14 13 15 18 19 19 21 19
7 10 9 7 6 9 3 2 3 2 1 2 2 1 1 2 3 3 3 3 3 2 2 1 1 1 1 1 5 7 3 4 2 3 3 2 4 8 9 9 12 11 11 10 10 11 13 12 15 18 21 19 21 23
5 6 3 5 4 3 3 4 3 1 2 0 2 2 2 2 2 2 2 4 2 1 1 1 1 1 2 3 1 6 8 8 9 8 9 13 3 3 5 11 10 7 10 11 11 12 12 15 17 20 20 22 21 25
3 4 4 5 4 4 1 2 3 1 2 1 1 2 2 2 1 3 2 1 2 1 1 2 3 6 3 4 7 7 6 8 4 6 8 8 10 11 12 14 13 14 9 12 14 17 17 18 19 20 20 22 22 23
4 4 3 2 3 1 2 2 2 2 2 1 2 2 2 1 1 2 1 1 2 1 2 2 3 3 3 3 2 1 4 6 9 9 8 11 6 9 13 14 14 14 14 15 15 19 19 20 22 23 22 22 22 23
5 5 4 4 3 4 3 2 2 2 1 1 3 1 2 1 1 0 2 1 1 2 1 2 1 1 1 1 1 2 8 11 7 3 10 11 8 8 8 10 13 13 13 16 18 20 19 22 23 24 24 23 22 22
4 4 3 3 2 3 3 2 2 3 2 2 1 2 2 1 2 3 1 2 1 2 2 2 2 1 0 1 2 2 5 7 8 5 9 15 15 10 6 4 3 11 16 17 23 22 20 22 23 23 21 23 26 26
2 3 2 1 1 2 3 2 1 3 2 3 2 3 3 2 3 2 1 2 1 1 1 1 3 4 3 4 5 5 4 4 4 3 3 10 11 11 12 12 11 14 19 21 23 25 26 24 24 24 23 22 24 25
3 2 3 3 3 1 3 1 1 2 1 1 3 2 6 6 3 1 1 3 3 4 5 6 4 3 6 7 7 7 5 4 6 7 8 6 5 5 5 6 7 8 18 21 22 23 24 26 27 26 26 25 24 23
1 2 3 3 3 2 1 1 2 1 1 2 4 2 2 1 1 1 3 7 5 4 4 5 7 8 10 8 6 3 3 8 6 3 2 1 2 3 7 6 7 12 15 18 19 20 22 22 24 26 26 24 23 23
2 1 3 2 3 2 3 1 1 1 1 0 1 1 1 1 3 7 10 9 7 5 6 5 5 4 3 4 2 1 3 6 2 2 3 3 5 5 10 11 12 13 15 17 17 18 19 20 22 22 22 21 21 22
2 3 3 2 2 2 1 1 1 1 1 0 0 1 2 2 2 2 4 3 3 4 6 8 9 8 8 7 6 4 3 7 10 6 5 5 3 7 12 13 14 15 16 17 20 21 21 20 21 23 22 23 23 23
1 2 3 0 1 1 1 1 1 1 1 2 2 1 1 1 2 2 2 2 4 3 4 7 9 9 11 10 9 9 6 4 6 9 6 6 7 10 13 13 14 15 17 18 19 21 20 21 22 23 23 22 22 21
2 2 2 2 2 2 2 2 3 3 3 1 2 2 2 4 4 3 2 2 4 5 3 2 3 5 7 8 8 8 10 6 4 4 6 6 8 11 13 14 15 16 17 18 19 20 20 20 22 21 21 20 20 19

GFSWCAN_925_spd_120.txt.gz
Wind_Speed
7 7 8 9 9 10 12 14 15 18 18 20 20 22 24 25 24 24 17 20 13 1 5 3 4 5 5 4 5 4 3 2 2 7 4 4 3 5 3 4 5 8 7 4 3 3 7 4 3 6 3 2 7 8
8 9 11 12 13 14 15 19 24 27 29 28 25 24 23 23 24 25 7 21 26 3 2 4 11 12 5 2 4 5 3 4 4 3 3 3 2 1 5 4 3 4 6 5 7 5 1 2 1 1 3 4 3 7
11 11 13 14 15 16 17 23 19 22 29 38 34 31 27 24 23 28 19 21 17 3 3 4 7 18 19 22 18 3 2 3 3 4 3 2 2 3 3 4 3 1 2 3 3 2 3 3 3 2 3 4 5 7
13 15 16 18 19 18 19 14 10 13 17 33 34 35 31 28 27 28 22 21 21 2 3 4 6 5 11 21 18 23 3 2 2 3 2 2 1 2 3 3 3 3 6 5 1 2 4 4 3 5 8 11 11 9
16 18 20 21 22 22 21 17 13 10 15 18 28 33 32 32 30 27 24 24 18 2 2 3 3 5 10 16 17 20 6 4 2 2 3 3 3 3 1 2 1 3 5 5 5 9 4 4 11 12 12 11 11 14
19 22 23 25 26 26 24 22 18 15 15 18 23 28 31 30 28 17 2 17 31 12 1 2 2 3 8 14 12 12 11 4 4 4 2 1 1 3 3 1 1 1 1 1 2 8 3 12 13 9 13 12 11 12
22 26 32 37 39 39 33 31 26 22 18 19 23 27 30 32 29 7 3 3 33 15 2 1 1 2 1 5 1 2 1 2 2 2 1 2 1 3 2 2 2 3 5 9 13 14 9 9 7 11 13 14 18 18
25 20 11 6 10 17 31 31 30 32 24 25 28 24 22 28 13 3 5 13 27 3 2 2 1 0 4 3 3 2 2 2 4 2 1 2 1 2 1 2 4 5 9 8 3 2 8 12 13 13 19 17 14 13
5 9 22 22 23 23 31 38 32 34 31 27 21 25 19 3 3 4 12 22 18 2 2 2 3 2 3 1 1 3 2 3 1 2 1 2 1 1 2 7 8 7 4 6 7 10 13 14 14 15 15 13 14 14
14 22 31 38 36 39 41 40 37 34 31 35 18 3 3 6 18 18 5 2 0 2 1 1 0 0 3 1 2 2 2 1 2 2 1 3 1 1 2 6 6 6 8 12 13 8 10 12 14 15 12 12 12 12
21 24 29 34 40 44 45 44 40 36 24 3 2 2 11 20 4 2 2 3 1 1 1 2 2 3 2 3 2 1 1 1 2 2 2 1 2 1 3 6 6 5 7 4 2 5 10 12 13 13 12 12 17 19
21 25 31 30 31 29 31 28 19 9 3 5 16 10 4 2 2 4 1 1 1 3 1 3 2 2 1 2 3 2 2 2 1 2 3 1 2 2 5 6 6 6 6 5 6 9 10 13 16 14 14 15 18 19
26 27 26 26 23 21 15 12 15 18 25 5 3 3 2 3 6 4 3 1 1 2 2 2 2 1 2 4 3 3 4 1 0 3 2 3 0 3 5 5 5 6 7 7 7 12 15 14 16 19 15 17 22 21
24 24 22 21 18 16 12 16 13 7 4 3 3 4 2 2 2 1 0 1 1 1 4 3 3 3 1 4 1 4 1 2 3 1 3 2 4 5 5 5 5 5 7 7 7 12 14 16 15 18 21 23 23 19
20 18 17 20 16 16 24 13 4 6 4 3 3 4 3 1 1 0 0 1 2 1 2 3 3 2 3 4 2 3 3 1 4 4 2 1 4 5 5 4 6 6 5 6 10 9 13 17 15 14 19 22 23 24
16 13 14 12 13 12 6 1 3 3 3 3 4 2 2 1 2 2 3 1 2 1 1 3 3 3 2 3 3 2 5 4 3 1 1 2 3 4 4 5 4 6 8 9 13 15 17 16 16 16 19 21 23 27
11 5 10 7 10 8 2 2 5 5 3 3 2 1 1 0 1 1 2 2 2 2 2 2 3 1 1 2 2 2 2 2 1 1 1 2 4 6 6 6 7 10 11 13 15 14 14 17 20 19 14 16 21 23
10 10 8 4 7 6 5 7 3 3 5 2 3 3 2 1 2 2 3 2 3 2 2 1 3 4 2 3 1 2 2 1 3 2 2 3 3 5 7 7 10 11 11 13 15 15 16 17 14 11 17 19 20 21
10 8 7 8 7 4 3 5 5 3 2 1 1 1 1 1 1 2 2 2 2 2 3 2 4 2 1 1 1 2 2 2 2 2 2 4 5 7 9 11 12 10 12 12 12 10 11 12 13 17 18 19 16 18
12 9 9 11 6 4 4 3 4 3 2 2 1 2 1 0 2 2 2 3 2 2 4 3 2 1 1 0 1 1 2 4 3 2 2 2 6 9 8 9 8 12 12 11 11 14 14 13 14 17 19 18 20 18
6 9 9 5 5 8 3 2 3 1 1 2 2 1 1 2 2 3 3 3 3 2 2 1 1 1 1 0 4 7 3 3 3 2 3 2 4 8 8 10 12 11 8 9 8 9 10 10 14 18 20 18 19 19
6 7 4 6 4 4 3 4 3 1 2 1 2 2 2 2 2 2 2 3 2 1 1 1 2 2 1 3 2 9 9 9 8 8 9 14 4 3 4 10 9 6 9 11 10 10 11 15 17 19 21 22 23 23
3 4 4 6 4 4 1 3 3 1 2 1 1 2 2 2 2 2 2 1 1 1 1 2 3 6 4 4 9 8 7 8 4 5 7 6 8 8 11 13 12 13 8 10 12 14 15 16 18 20 20 22 22 23
4 4 3 2 3 1 2 2 1 2 2 1 2 2 1 1 2 2 1 1 2 1 1 2 3 2 3 3 2 1 5 7 10 9 8 10 5 6 10 12 12 11 11 12 15 16 17 18 19 21 21 21 21 22
5 5 4 3 3 4 3 2 3 2 1 1 2 0 2 0 1 1 2 1 1 2 2 2 2 1 2 1 1 2 7 11 8 3 9 8 8 8 7 7 8 9 10 16 17 19 20 21 21 21 21 20 21 20
4 4 3 3 2 2 3 1 2 3 2 2 1 1 1 2 2 3 2 2 1 2 2 2 2 2 1 1 2 1 5 6 7 4 9 12 13 10 6 3 2 8 14 15 21 22 22 23 22 23 21 22 24 24
2 2 1 1 0 2 3 2 1 3 2 3 2 2 3 1 3 3 1 1 2 2 4 2 2 3 3 4 6 6 5 6 3 1 2 9 9 8 8 11 10 9 16 18 21 24 24 24 24 23 23 23 25 27
3 2 3 2 2 1 3 1 1 2 2 1 3 2 5 6 3 0 1 2 5 4 5 5 4 4 6 7 9 9 7 6 7 7 8 7 5 4 4 4 3 5 13 18 19 21 21 24 25 25 25 24 23 23
1 1 3 3 3 3 1 1 1 2 1 2 3 2 2 1 1 1 3 8 5 4 5 8 8 11 12 11 7 7 7 5 5 3 2 1 2 2 6 6 6 8 12 16 17 17 18 20 23 24 24 23 23 22
2 1 3 1 3 2 3 1 0 1 1 1 1 1 1 1 2 6 11 10 9 6 6 4 5 4 5 4 3 2 1 3 1 3 3 3 3 3 8 9 9 11 12 14 15 14 15 17 18 20 21 21 22 22
2 3 3 1 2 3 2 0 0 1 1 1 1 1 2 2 1 4 9 9 8 7 8 8 9 8 8 8 7 4 2 3 7 6 2 1 1 4 9 10 10 12 14 15 17 19 21 21 21 23 23 23 23 23
0 1 3 1 1 1 1 1 1 1 1 1 2 0 1 1 2 3 5 8 9 7 10 11 10 10 11 7 6 6 4 1 3 7 6 2 3 7 9 10 11 12 14 15 16 18 19 20 21 22 22 21 21 21
2 2 2 2 3 2 2 2 3 3 2 1 3 2 1 3 6 3 5 5 7 10 9 8 7 6 6 6 6 6 7 6 4 4 4 4 4 9 11 11 12 12 14 15 16 17 18 18 19 20 20 21 20 20

GFSWCAN_925_spd_123.txt.gz
Wind_Speed
8 6 6 4 4 4 3 3 4 4 7 10 13 16 20 23 24 22 10 19 10 3 3 3 2 3 3 4 5 3 3 2 4 8 7 5 5 6 3 3 6 9 7 4 3 6 10 9 7 8 1 2 7 12
7 5 6 6 6 7 6 7 8 6 7 10 11 16 19 21 22 19 6 15 17 1 1 3 7 10 3 3 5 5 2 4 4 4 4 3 4 4 3 4 4 6 5 6 8 4 1 1 2 2 2 4 7 12
9 9 9 8 9 10 10 9 13 14 16 17 18 17 18 20 22 20 11 19 11 2 3 3 9 19 17 19 11 4 3 4 5 4 2 2 5 4 6 6 4 3 2 3 3 4 3 4 1 3 2 5 9 12
11 12 12 13 12 11 11 12 15 10 14 26 27 24 21 20 20 22 15 18 17 3 2 4 4 7 15 22 23 17 2 1 1 3 2 3 4 4 4 1 4 2 7 5 2 1 0 7 8 8 8 10 12 13
14 15 15 16 15 15 15 13 11 9 10 14 29 33 28 22 20 20 21 18 24 4 2 2 2 7 8 16 18 18 15 7 2 2 3 4 2 3 1 1 3 5 5 5 5 6 3 1 13 13 13 12 14 16
17 19 20 20 19 16 14 13 11 9 9 10 24 31 29 26 22 15 2 18 22 16 2 3 1 4 6 15 18 14 11 6 3 3 2 2 4 2 4 3 0 0 1 1 1 6 4 9 13 9 13 13 13 14
22 23 25 26 24 21 19 19 16 11 9 11 23 29 28 28 28 8 4 2 32 20 1 3 2 2 5 7 3 3 5 2 2 1 3 3 2 2 2 3 2 2 3 8 12 11 8 10 6 11 14 16 19 19
29 31 34 33 35 33 30 26 20 15 11 15 20 27 28 27 19 14 14 7 28 8 2 3 2 1 2 3 3 3 3 3 4 2 1 1 2 1 3 2 4 4 8 7 2 1 6 12 15 14 19 18 16 15
15 8 5 11 19 25 35 31 25 18 14 20 23 26 24 10 3 8 16 18 18 4 3 1 1 1 2 2 3 2 1 2 1 2 1 1 1 3 1 7 8 9 4 7 8 10 14 15 15 16 16 16 16 15
23 20 17 18 23 30 34 29 28 24 30 28 16 3 2 8 18 21 7 4 4 3 2 2 1 2 2 3 3 3 1 2 2 1 1 0 2 1 3 6 8 8 10 12 13 7 10 12 14 15 15 13 14 16
36 36 35 36 39 39 34 35 34 32 28 4 3 2 13 19 5 2 2 2 1 2 2 1 2 2 0 2 2 1 2 0 2 1 2 1 1 1 3 7 8 7 9 3 0 6 11 14 15 14 13 15 19 21
31 36 41 43 39 36 35 36 32 11 6 8 14 10 6 1 1 2 0 0 2 2 1 3 2 1 1 0 2 1 2 0 2 1 1 1 0 3 6 9 5 7 6 3 4 10 12 14 17 16 16 17 18 20
32 31 28 29 29 29 26 20 15 19 25 8 3 4 2 1 4 4 3 1 1 2 2 2 2 1 1 3 3 2 3 1 1 1 1 0 1 4 6 6 6 6 7 7 9 12 16 16 17 18 16 18 21 21
28 23 21 20 20 22 20 13 7 6 2 3 2 3 2 2 2 1 1 1 0 1 3 2 2 2 1 3 1 3 1 0 2 1 2 0 3 6 5 5 7 5 6 8 8 11 13 15 15 17 20 22 22 19
27 25 23 19 21 14 6 10 11 7 4 3 3 4 3 1 1 1 1 1 1 1 1 3 3 2 2 3 2 3 2 1 2 2 1 1 4 6 5 4 6 6 5 6 8 8 12 15 15 14 17 21 22 23
13 20 20 13 11 8 10 9 8 4 3 3 5 2 2 1 2 2 2 2 1 0 1 3 3 3 2 3 2 1 4 3 1 2 1 2 5 5 4 4 4 6 7 8 11 12 14 15 14 14 17 20 22 26
10 7 12 6 4 3 4 3 4 4 3 3 2 1 0 0 1 1 1 1 1 1 2 2 3 1 2 2 2 2 2 1 1 1 1 2 4 6 6 5 5 9 9 11 11 14 12 16 19 16 14 13 18 20
8 11 11 8 6 3 4 6 3 3 4 2 2 2 1 1 1 2 2 2 0 2 1 2 3 3 2 2 2 2 2 2 3 3 3 3 4 6 8 8 9 10 9 10 11 13 13 14 13 11 14 16 17 18
10 10 11 11 6 4 3 5 5 3 2 1 1 2 1 1 0 2 2 2 2 2 3 2 3 2 2 1 1 2 2 2 2 2 2 4 6 7 8 10 10 8 10 11 11 10 10 11 11 14 15 17 16 17
7 8 8 13 6 4 3 3 3 3 2 1 1 2 1 1 2 2 2 3 2 2 4 3 1 1 1 0 0 0 2 4 4 3 2 3 5 7 7 8 8 9 10 10 9 11 11 9 9 13 15 16 18 18
6 9 8 6 5 8 3 2 3 1 1 2 1 1 1 2 2 3 3 3 3 2 2 1 2 1 1 1 4 5 3 3 2 2 3 3 4 7 8 8 9 9 8 9 9 9 10 10 11 13 16 15 15 18
6 7 4 6 4 3 3 4 2 1 2 0 2 2 2 2 2 2 2 3 2 1 2 2 3 2 2 4 3 7 8 9 7 6 7 11 4 4 5 8 9 7 8 9 9 10 10 11 13 14 16 16 20 20
5 4 4 6 4 4 1 2 2 1 2 1 1 2 2 1 2 2 2 1 1 0 1 2 3 5 5 5 10 10 9 9 4 5 6 2 4 5 6 8 9 9 7 7 9 10 11 13 16 17 18 19 19 19
5 4 4 3 3 1 2 3 1 2 2 1 2 1 0 1 1 2 1 0 1 1 1 3 4 4 4 4 2 2 6 9 9 8 7 7 4 4 6 7 8 9 7 10 11 11 12 13 17 17 18 19 19 20
4 5 4 4 3 4 3 3 3 3 1 0 2 1 2 2 1 0 2 2 2 2 3 3 2 1 2 1 2 4 6 11 7 4 8 8 8 6 4 5 7 8 10 13 11 12 13 15 15 17 18 19 20 20
3 4 3 3 2 2 3 1 2 3 2 1 2 0 2 2 1 3 2 3 2 2 3 3 2 2 2 2 2 2 7 8 8 3 7 11 12 9 6 5 5 7 14 14 18 16 16 16 17 18 17 18 21 21
2 2 1 0 0 2 2 1 1 2 2 3 2 2 2 1 3 2 1 0 1 2 4 4 4 4 3 4 4 5 6 8 6 3 3 9 9 8 9 9 8 6 14 17 18 21 23 21 19 18 17 17 22 25
3 2 3 2 2 1 3 1 1 3 2 1 3 2 5 5 2 1 1 2 8 5 4 4 5 6 7 8 9 10 9 8 8 7 7 6 6 6 6 6 6 6 12 17 18 20 22 24 24 22 21 21 21 22
1 1 2 3 2 2 1 1 1 2 1 2 3 2 2 1 1 2 3 9 8 8 7 7 7 12 14 12 9 9 10 8 4 2 2 1 0 3 6 7 8 9 12 17 16 17 19 21 22 23 22 21 21 20
2 0 3 1 3 2 3 1 0 1 1 1 1 1 0 1 2 4 11 11 10 7 7 6 11 8 7 7 6 4 2 2 3 4 3 3 4 5 9 9 9 11 13 16 16 15 15 15 16 18 18 18 18 19
1 2 3 1 2 3 3 1 1 1 1 1 1 2 2 2 2 7 13 12 12 11 10 8 9 8 8 7 7 5 3 6 8 7 4 3 3 5 9 9 11 14 15 17 18 20 20 19 18 19 20 20 21 22
2 2 3 1 2 3 1 1 1 1 0 0 2 1 0 1 2 3 7 15 13 10 12 12 10 10 15 10 8 7 5 5 8 12 11 5 6 7 10 10 12 13 15 17 18 19 20 20 19 19 19 20 21 21
1 1 1 1 2 1 1 2 3 3 1 2 2 2 2 2 5 3 6 12 15 12 13 14 12 11 9 11 11 9 9 7 5 7 9 6 6 9 12 11 12 13 15 16 16 17 18 17 18 18 19 20 20 19

GFSWCAN_925_spd_126.txt.gz
Wind_Speed
10 8 7 6 4 3 4 4 5 12 10 16 30 25 24 25 23 15 11 10 5 3 6 6 7 7 9 11 8 7 6 5 7 8 6 7 8 11 14 13 16 11 7 7 13 10 11 10 11 8 0 1 4 6
8 6 5 4 4 3 3 5 3 6 10 12 17 24 27 26 24 15 9 9 5 2 3 3 8 8 5 3 7 9 5 6 6 7 8 6 7 5 14 14 11 9 11 8 8 3 2 15 0 4 2 2 6 10
7 7 6 6 5 4 5 4 3 3 2 3 10 16 22 26 24 13 13 13 6 2 2 3 8 13 13 14 8 6 4 6 3 2 2 4 7 6 10 12 13 9 7 6 1 7 7 10 7 5 4 4 8 12
9 8 8 8 8 7 7 6 5 5 5 13 12 13 18 21 21 15 12 14 9 3 3 4 8 15 16 19 21 17 7 2 3 3 4 3 4 4 6 6 8 5 7 9 9 5 5 11 12 10 8 9 11 12
11 11 11 11 11 11 9 8 7 4 2 8 19 17 18 22 22 16 11 14 11 3 1 1 7 14 11 22 23 21 17 9 3 4 5 5 4 2 2 3 10 6 7 9 7 2 6 2 10 11 11 12 14 16
15 15 15 15 14 13 12 9 6 6 6 12 21 25 21 21 23 11 1 11 13 7 1 3 1 6 17 17 19 15 11 7 4 2 4 5 3 3 4 4 3 7 3 2 2 5 5 5 9 10 11 12 13 14
19 20 20 19 18 16 14 11 9 9 2 7 16 31 27 23 21 6 1 1 22 12 2 3 3 3 9 9 6 7 13 3 4 2 4 3 3 8 3 6 5 4 3 5 8 8 5 7 5 9 11 12 15 16
26 27 26 24 23 21 18 13 12 8 4 9 17 29 25 21 10 9 2 2 24 6 2 3 3 3 6 4 3 3 3 3 4 3 2 3 2 4 4 4 4 4 6 7 2 1 1 8 12 12 14 15 15 15
28 31 33 34 32 29 24 18 14 10 10 12 25 25 20 10 5 7 9 7 12 4 3 4 3 0 4 2 3 3 3 4 3 5 4 4 5 5 1 5 7 8 4 6 5 7 9 11 13 13 14 15 15 15
2 10 17 22 29 32 32 24 20 13 14 27 31 7 3 8 9 16 5 2 3 3 2 3 0 3 3 3 2 5 4 5 5 4 3 4 4 3 2 3 8 8 8 9 9 7 9 11 12 13 13 12 13 14
27 22 22 25 30 31 34 28 20 34 31 9 3 2 9 25 5 3 4 5 5 4 4 3 6 1 1 3 3 0 3 2 4 4 3 3 3 3 5 8 8 7 9 3 1 2 8 11 12 12 12 12 15 18
36 36 33 34 36 36 34 30 26 10 8 7 7 7 6 4 3 3 3 3 4 2 4 4 4 2 3 2 2 1 2 2 3 2 3 2 3 6 8 9 7 8 7 2 2 5 8 10 14 12 13 14 17 18
38 39 38 38 37 36 34 29 13 15 24 8 2 2 1 3 4 5 6 3 3 5 4 5 4 1 3 2 3 1 2 2 3 3 2 2 5 7 9 7 7 6 6 6 7 9 11 13 13 15 15 16 19 19
27 31 35 35 30 25 19 14 21 16 1 1 2 3 2 2 1 0 2 2 2 0 6 4 3 1 1 2 1 2 2 2 4 3 2 3 7 8 8 7 8 7 6 7 8 9 10 12 13 15 17 21 21 20
23 25 26 24 16 12 9 11 11 6 2 2 1 2 1 1 0 0 1 2 1 3 3 4 3 1 2 2 1 3 3 3 2 1 2 3 7 8 7 6 6 6 6 7 9 9 11 13 14 14 15 17 18 19
21 21 13 7 5 6 7 7 6 3 2 2 2 2 0 2 2 1 2 2 1 1 1 2 2 2 2 2 2 1 2 2 2 2 2 4 6 5 5 5 5 6 8 8 9 10 11 10 12 13 13 13 15 19
15 7 10 3 1 6 5 4 3 3 2 2 2 2 2 2 3 2 1 2 1 1 2 1 2 2 2 2 2 1 0 2 3 3 3 3 5 6 6 6 6 7 9 10 11 11 11 10 12 13 12 12 13 14
7 11 12 10 2 3 4 5 3 3 4 3 2 2 2 2 1 1 1 1 1 2 1 2 3 2 1 2 2 3 3 3 3 3 3 4 5 5 7 7 8 9 10 10 11 11 11 12 11 10 11 14 14 14
8 11 11 12 3 3 2 3 3 3 2 1 1 1 2 2 2 2 2 2 3 3 4 2 2 1 2 1 2 4 4 3 4 3 3 4 5 8 10 10 10 9 11 11 11 9 9 10 8 11 13 16 14 16
8 7 9 9 3 2 3 2 2 3 2 2 0 1 1 1 2 2 3 3 2 1 2 2 1 2 1 2 2 2 4 5 5 5 4 3 4 6 7 8 7 9 10 9 8 9 9 8 8 10 13 15 15 17
5 8 8 5 4 7 3 2 3 2 2 2 1 1 1 1 2 3 2 3 2 2 2 1 3 3 3 3 4 4 4 5 4 3 4 4 5 5 6 6 8 8 8 9 8 8 9 8 9 11 13 13 13 15
6 7 4 5 3 3 3 4 2 1 1 2 1 1 1 1 1 2 2 2 1 1 2 2 4 4 4 5 5 7 8 9 7 7 8 11 5 4 4 6 7 6 7 8 8 8 9 9 10 11 12 12 14 15
5 4 3 5 3 3 2 2 1 1 1 2 2 1 1 1 0 2 0 1 1 1 1 3 5 5 6 7 10 9 8 7 4 5 5 4 5 5 5 6 6 6 6 6 6 7 8 9 11 12 13 14 15 15
5 4 3 3 3 2 1 1 1 2 1 2 2 2 2 1 1 2 2 2 3 3 4 5 5 5 5 6 4 4 6 6 7 6 5 5 4 5 5 5 6 6 6 7 8 8 9 11 12 13 14 15 16 17
1 3 2 3 1 1 1 1 1 1 2 1 1 1 2 1 2 2 2 3 5 5 4 5 4 3 4 4 4 6 5 8 6 4 6 5 6 6 5 5 6 7 8 9 9 10 11 11 13 13 15 16 17 19
1 2 1 1 1 1 2 2 2 2 1 2 2 1 1 2 2 3 2 4 4 4 5 4 4 4 3 3 4 4 8 8 7 4 6 8 8 7 5 5 5 8 10 9 10 12 13 13 13 15 15 15 17 19
1 2 1 1 0 2 1 1 1 1 3 3 2 3 2 3 3 1 2 1 2 3 4 5 6 4 4 5 4 4 6 6 5 2 3 6 6 6 6 7 7 4 11 13 12 14 15 15 15 15 15 15 18 19
2 0 1 2 1 1 1 1 2 1 1 1 2 4 2 2 1 1 1 3 6 5 4 4 5 4 5 6 6 7 5 5 6 5 4 3 4 6 6 6 6 5 8 12 12 12 14 15 16 16 16 16 17 16
1 1 1 1 1 1 1 2 1 1 1 1 2 1 1 1 1 2 4 5 6 6 5 5 3 5 6 7 6 5 8 8 7 5 6 5 3 5 7 6 6 6 8 11 12 12 14 14 14 14 15 15 15 15
1 1 1 1 1 2 2 1 1 1 1 2 2 2 2 2 4 5 6 9 9 8 6 6 8 9 9 9 8 6 5 4 3 6 5 5 4 5 7 7 7 8 10 11 12 11 12 12 13 13 14 14 14 14
0 1 1 1 2 1 1 1 2 2 3 3 3 5 5 1 3 8 11 12 10 10 10 9 10 8 10 9 8 6 4 7 8 8 5 3 4 5 6 7 8 9 11 13 14 15 15 15 13 14 15 15 15 15
1 1 1 2 1 0 2 2 2 3 2 3 5 3 2 3 4 4 7 14 14 13 13 13 13 12 13 10 10 9 5 6 8 10 11 8 5 5 7 8 9 10 11 12 13 13 16 14 14 14 15 15 15 15
1 2 2 2 2 2 2 2 1 3 3 3 3 2 3 3 4 1 4 15 13 14 14 15 14 13 12 14 12 10 8 7 5 8 11 8 6 7 8 8 9 10 11 11 11 12 14 13 12 13 13 14 15 15